<?xml version="1.0" encoding="UTF-8" standalone="no" ?>
<gpx xmlns="http://www.topografix.com/GPX/1/1" xmlns:xsi="http://www.w3.org/2001/XMLSchema-instance" xsi:schemaLocation="http://www.topografix.com/GPX/1/1 http://www.topografix.com/GPX/1/1/gpx.xsd" version="1.1" creator="VisuGPX - https://www.visugpx.com">
  <metadata>
    <name>Moissac Pic de l Aigle - Arche</name>
    <desc><![CDATA[Moissac - Pic de l'Aigle V2]]></desc>
  </metadata>
  <trk>
    <name><![CDATA[Moissac Pic de l'Aigle]]></name>
    <extensions>
      <line xmlns="http://www.topografix.com/GPX/gpx_style/0/2">
        <color>ff0000</color>
        <opacity>1</opacity>
        <width>4</width>
      </line>
    </extensions>
    <trkseg>
      <trkpt lat="43.67827" lon="6.16015">
        <ele>606.5</ele>
        <time>2024-01-12T08:50:02.000Z</time>
      </trkpt>
      <trkpt lat="43.67834" lon="6.16021">
        <ele>606.8</ele>
        <time>2024-01-12T08:50:17.340Z</time>
      </trkpt>
      <trkpt lat="43.67834" lon="6.16028">
        <ele>607</ele>
        <time>2024-01-12T08:50:26.864Z</time>
      </trkpt>
      <trkpt lat="43.67833" lon="6.16036">
        <ele>607.3</ele>
        <time>2024-01-12T08:50:38.334Z</time>
      </trkpt>
      <trkpt lat="43.67831" lon="6.16043">
        <ele>607.5</ele>
        <time>2024-01-12T08:50:48.483Z</time>
      </trkpt>
      <trkpt lat="43.6783" lon="6.1605">
        <ele>607.8</ele>
        <time>2024-01-12T08:50:58.801Z</time>
      </trkpt>
      <trkpt lat="43.67829" lon="6.16056">
        <ele>608</ele>
        <time>2024-01-12T08:51:07.326Z</time>
      </trkpt>
      <trkpt lat="43.67828" lon="6.16062">
        <ele>608.2</ele>
        <time>2024-01-12T08:51:15.852Z</time>
      </trkpt>
      <trkpt lat="43.67826" lon="6.16068">
        <ele>608.4</ele>
        <time>2024-01-12T08:51:24.909Z</time>
      </trkpt>
      <trkpt lat="43.67822" lon="6.16079">
        <ele>608.8</ele>
        <time>2024-01-12T08:51:41.957Z</time>
      </trkpt>
      <trkpt lat="43.6782" lon="6.16086">
        <ele>609.1</ele>
        <time>2024-01-12T08:51:52.732Z</time>
      </trkpt>
      <trkpt lat="43.67818" lon="6.16092">
        <ele>609.3</ele>
        <time>2024-01-12T08:52:01.789Z</time>
      </trkpt>
      <trkpt lat="43.6782" lon="6.16104">
        <ele>609.7</ele>
        <time>2024-01-12T08:52:18.840Z</time>
      </trkpt>
      <trkpt lat="43.67824" lon="6.16109">
        <ele>609.9</ele>
        <time>2024-01-12T08:52:28.905Z</time>
      </trkpt>
      <trkpt lat="43.67827" lon="6.16113">
        <ele>610.1</ele>
        <time>2024-01-12T08:52:36.965Z</time>
      </trkpt>
      <trkpt lat="43.67833" lon="6.16119">
        <ele>610.3</ele>
        <time>2024-01-12T08:52:50.347Z</time>
      </trkpt>
      <trkpt lat="43.67835" lon="6.16126">
        <ele>610.5</ele>
        <time>2024-01-12T08:53:00.496Z</time>
      </trkpt>
      <trkpt lat="43.67836" lon="6.16132">
        <ele>610.8</ele>
        <time>2024-01-12T08:53:09.677Z</time>
      </trkpt>
      <trkpt lat="43.67841" lon="6.16141">
        <ele>611.1</ele>
        <time>2024-01-12T08:53:24.971Z</time>
      </trkpt>
      <trkpt lat="43.67842" lon="6.16148">
        <ele>611.3</ele>
        <time>2024-01-12T08:53:34.655Z</time>
      </trkpt>
      <trkpt lat="43.67843" lon="6.16154">
        <ele>611.5</ele>
        <time>2024-01-12T08:53:43.181Z</time>
      </trkpt>
      <trkpt lat="43.67844" lon="6.16161">
        <ele>611.8</ele>
        <time>2024-01-12T08:53:53.498Z</time>
      </trkpt>
      <trkpt lat="43.67844" lon="6.16168">
        <ele>612</ele>
        <time>2024-01-12T08:54:03.022Z</time>
      </trkpt>
      <trkpt lat="43.67844" lon="6.16175">
        <ele>612.3</ele>
        <time>2024-01-12T08:54:13.182Z</time>
      </trkpt>
      <trkpt lat="43.67844" lon="6.16181">
        <ele>612.5</ele>
        <time>2024-01-12T08:54:21.522Z</time>
      </trkpt>
      <trkpt lat="43.67843" lon="6.16188">
        <ele>612.8</ele>
        <time>2024-01-12T08:54:31.839Z</time>
      </trkpt>
      <trkpt lat="43.67842" lon="6.16194">
        <ele>613</ele>
        <time>2024-01-12T08:54:40.365Z</time>
      </trkpt>
      <trkpt lat="43.67841" lon="6.16202">
        <ele>613.3</ele>
        <time>2024-01-12T08:54:51.835Z</time>
      </trkpt>
      <trkpt lat="43.67839" lon="6.1621">
        <ele>613.6</ele>
        <time>2024-01-12T08:55:03.713Z</time>
      </trkpt>
      <trkpt lat="43.67837" lon="6.16217">
        <ele>613.8</ele>
        <time>2024-01-12T08:55:13.862Z</time>
      </trkpt>
      <trkpt lat="43.67834" lon="6.16224">
        <ele>614.1</ele>
        <time>2024-01-12T08:55:25.354Z</time>
      </trkpt>
      <trkpt lat="43.67832" lon="6.16236">
        <ele>614.5</ele>
        <time>2024-01-12T08:55:42.404Z</time>
      </trkpt>
      <trkpt lat="43.6783" lon="6.16243">
        <ele>614.7</ele>
        <time>2024-01-12T08:55:52.553Z</time>
      </trkpt>
      <trkpt lat="43.67828" lon="6.16249">
        <ele>614.8</ele>
        <time>2024-01-12T08:56:01.024Z</time>
      </trkpt>
      <trkpt lat="43.67826" lon="6.16261">
        <ele>615.1</ele>
        <time>2024-01-12T08:56:17.466Z</time>
      </trkpt>
      <trkpt lat="43.67824" lon="6.16267">
        <ele>615.3</ele>
        <time>2024-01-12T08:56:26.524Z</time>
      </trkpt>
      <trkpt lat="43.67822" lon="6.16273">
        <ele>615.4</ele>
        <time>2024-01-12T08:56:34.994Z</time>
      </trkpt>
      <trkpt lat="43.6782" lon="6.16281">
        <ele>615.7</ele>
        <time>2024-01-12T08:56:46.871Z</time>
      </trkpt>
      <trkpt lat="43.67817" lon="6.16288">
        <ele>616</ele>
        <time>2024-01-12T08:56:58.363Z</time>
      </trkpt>
      <trkpt lat="43.67816" lon="6.16295">
        <ele>616.4</ele>
        <time>2024-01-12T08:57:09.373Z</time>
      </trkpt>
      <trkpt lat="43.67815" lon="6.16302">
        <ele>616.8</ele>
        <time>2024-01-12T08:57:20.383Z</time>
      </trkpt>
      <trkpt lat="43.67815" lon="6.1631">
        <ele>617.2</ele>
        <time>2024-01-12T08:57:32.384Z</time>
      </trkpt>
      <trkpt lat="43.67814" lon="6.16317">
        <ele>617.4</ele>
        <time>2024-01-12T08:57:42.068Z</time>
      </trkpt>
      <trkpt lat="43.67813" lon="6.16324">
        <ele>617.7</ele>
        <time>2024-01-12T08:57:52.386Z</time>
      </trkpt>
      <trkpt lat="43.67812" lon="6.16331">
        <ele>617.9</ele>
        <time>2024-01-12T08:58:02.070Z</time>
      </trkpt>
      <trkpt lat="43.67812" lon="6.16338">
        <ele>618.2</ele>
        <time>2024-01-12T08:58:12.230Z</time>
      </trkpt>
      <trkpt lat="43.67811" lon="6.16345">
        <ele>618.4</ele>
        <time>2024-01-12T08:58:21.914Z</time>
      </trkpt>
      <trkpt lat="43.67809" lon="6.16351">
        <ele>618.6</ele>
        <time>2024-01-12T08:58:30.972Z</time>
      </trkpt>
      <trkpt lat="43.67807" lon="6.16357">
        <ele>618.9</ele>
        <time>2024-01-12T08:58:40.674Z</time>
      </trkpt>
      <trkpt lat="43.67804" lon="6.16363">
        <ele>619.1</ele>
        <time>2024-01-12T08:58:50.547Z</time>
      </trkpt>
      <trkpt lat="43.678" lon="6.16368">
        <ele>619.2</ele>
        <time>2024-01-12T08:59:00.034Z</time>
      </trkpt>
      <trkpt lat="43.67796" lon="6.16373">
        <ele>619.4</ele>
        <time>2024-01-12T08:59:10.099Z</time>
      </trkpt>
      <trkpt lat="43.67792" lon="6.16377">
        <ele>619.6</ele>
        <time>2024-01-12T08:59:19.416Z</time>
      </trkpt>
      <trkpt lat="43.67788" lon="6.1638">
        <ele>619.7</ele>
        <time>2024-01-12T08:59:27.510Z</time>
      </trkpt>
      <trkpt lat="43.67783" lon="6.16383">
        <ele>619.8</ele>
        <time>2024-01-12T08:59:37.093Z</time>
      </trkpt>
      <trkpt lat="43.67779" lon="6.16387">
        <ele>619.9</ele>
        <time>2024-01-12T08:59:45.826Z</time>
      </trkpt>
      <trkpt lat="43.67775" lon="6.16391">
        <ele>620.1</ele>
        <time>2024-01-12T08:59:55.143Z</time>
      </trkpt>
      <trkpt lat="43.67772" lon="6.16397">
        <ele>620.3</ele>
        <time>2024-01-12T09:00:05.016Z</time>
      </trkpt>
      <trkpt lat="43.67769" lon="6.16403">
        <ele>620.5</ele>
        <time>2024-01-12T09:00:14.889Z</time>
      </trkpt>
      <trkpt lat="43.67768" lon="6.1641">
        <ele>620.8</ele>
        <time>2024-01-12T09:00:25.207Z</time>
      </trkpt>
      <trkpt lat="43.67766" lon="6.16416">
        <ele>621</ele>
        <time>2024-01-12T09:00:34.264Z</time>
      </trkpt>
      <trkpt lat="43.67767" lon="6.16424">
        <ele>621.3</ele>
        <time>2024-01-12T09:00:45.735Z</time>
      </trkpt>
      <trkpt lat="43.67767" lon="6.16432">
        <ele>621.6</ele>
        <time>2024-01-12T09:00:57.066Z</time>
      </trkpt>
      <trkpt lat="43.67769" lon="6.16438">
        <ele>621.8</ele>
        <time>2024-01-12T09:01:06.123Z</time>
      </trkpt>
      <trkpt lat="43.67771" lon="6.16444">
        <ele>622</ele>
        <time>2024-01-12T09:01:15.180Z</time>
      </trkpt>
      <trkpt lat="43.67774" lon="6.1645">
        <ele>622.2</ele>
        <time>2024-01-12T09:01:25.054Z</time>
      </trkpt>
      <trkpt lat="43.67776" lon="6.16455">
        <ele>622.4</ele>
        <time>2024-01-12T09:01:33.056Z</time>
      </trkpt>
      <trkpt lat="43.67779" lon="6.1646">
        <ele>622.6</ele>
        <time>2024-01-12T09:01:41.982Z</time>
      </trkpt>
      <trkpt lat="43.67782" lon="6.16465">
        <ele>622.7</ele>
        <time>2024-01-12T09:01:50.321Z</time>
      </trkpt>
      <trkpt lat="43.67786" lon="6.16471">
        <ele>623</ele>
        <time>2024-01-12T09:02:01.841Z</time>
      </trkpt>
      <trkpt lat="43.67789" lon="6.16477">
        <ele>623.2</ele>
        <time>2024-01-12T09:02:11.714Z</time>
      </trkpt>
      <trkpt lat="43.67793" lon="6.16483">
        <ele>623.4</ele>
        <time>2024-01-12T09:02:22.617Z</time>
      </trkpt>
      <trkpt lat="43.67796" lon="6.16488">
        <ele>623.6</ele>
        <time>2024-01-12T09:02:31.544Z</time>
      </trkpt>
      <trkpt lat="43.67801" lon="6.16493">
        <ele>623.7</ele>
        <time>2024-01-12T09:02:42.321Z</time>
      </trkpt>
      <trkpt lat="43.67805" lon="6.16498">
        <ele>623.9</ele>
        <time>2024-01-12T09:02:52.386Z</time>
      </trkpt>
      <trkpt lat="43.67808" lon="6.16504">
        <ele>624.2</ele>
        <time>2024-01-12T09:03:02.890Z</time>
      </trkpt>
      <trkpt lat="43.67811" lon="6.16509">
        <ele>624.5</ele>
        <time>2024-01-12T09:03:12.464Z</time>
      </trkpt>
      <trkpt lat="43.67815" lon="6.16514">
        <ele>624.8</ele>
        <time>2024-01-12T09:03:23.157Z</time>
      </trkpt>
      <trkpt lat="43.67818" lon="6.16519">
        <ele>625.1</ele>
        <time>2024-01-12T09:03:32.731Z</time>
      </trkpt>
      <trkpt lat="43.67822" lon="6.16525">
        <ele>625.5</ele>
        <time>2024-01-12T09:03:44.916Z</time>
      </trkpt>
      <trkpt lat="43.67825" lon="6.1653">
        <ele>625.8</ele>
        <time>2024-01-12T09:03:54.491Z</time>
      </trkpt>
      <trkpt lat="43.67829" lon="6.16535">
        <ele>626.1</ele>
        <time>2024-01-12T09:04:05.183Z</time>
      </trkpt>
      <trkpt lat="43.67832" lon="6.16539">
        <ele>626.4</ele>
        <time>2024-01-12T09:04:13.911Z</time>
      </trkpt>
      <trkpt lat="43.67835" lon="6.16544">
        <ele>626.6</ele>
        <time>2024-01-12T09:04:22.838Z</time>
      </trkpt>
      <trkpt lat="43.67838" lon="6.16549">
        <ele>626.8</ele>
        <time>2024-01-12T09:04:31.765Z</time>
      </trkpt>
      <trkpt lat="43.67842" lon="6.1656">
        <ele>627.2</ele>
        <time>2024-01-12T09:04:48.812Z</time>
      </trkpt>
      <trkpt lat="43.67846" lon="6.16565">
        <ele>627.3</ele>
        <time>2024-01-12T09:04:58.300Z</time>
      </trkpt>
      <trkpt lat="43.6785" lon="6.16569">
        <ele>627.5</ele>
        <time>2024-01-12T09:05:07.617Z</time>
      </trkpt>
      <trkpt lat="43.67854" lon="6.16574">
        <ele>627.7</ele>
        <time>2024-01-12T09:05:17.682Z</time>
      </trkpt>
      <trkpt lat="43.67857" lon="6.16578">
        <ele>627.8</ele>
        <time>2024-01-12T09:05:25.142Z</time>
      </trkpt>
      <trkpt lat="43.6786" lon="6.16584">
        <ele>628</ele>
        <time>2024-01-12T09:05:35.015Z</time>
      </trkpt>
      <trkpt lat="43.67863" lon="6.16589">
        <ele>628.5</ele>
        <time>2024-01-12T09:05:46.092Z</time>
      </trkpt>
      <trkpt lat="43.67867" lon="6.16594">
        <ele>628.9</ele>
        <time>2024-01-12T09:05:57.467Z</time>
      </trkpt>
      <trkpt lat="43.67871" lon="6.16598">
        <ele>629.2</ele>
        <time>2024-01-12T09:06:07.424Z</time>
      </trkpt>
      <trkpt lat="43.67876" lon="6.16607">
        <ele>629.8</ele>
        <time>2024-01-12T09:06:24.676Z</time>
      </trkpt>
      <trkpt lat="43.6788" lon="6.16612">
        <ele>630</ele>
        <time>2024-01-12T09:06:34.741Z</time>
      </trkpt>
      <trkpt lat="43.67883" lon="6.16616">
        <ele>630.2</ele>
        <time>2024-01-12T09:06:42.801Z</time>
      </trkpt>
      <trkpt lat="43.67887" lon="6.16622">
        <ele>630.4</ele>
        <time>2024-01-12T09:06:53.704Z</time>
      </trkpt>
      <trkpt lat="43.6789" lon="6.16627">
        <ele>630.6</ele>
        <time>2024-01-12T09:07:02.630Z</time>
      </trkpt>
      <trkpt lat="43.67894" lon="6.16633">
        <ele>630.8</ele>
        <time>2024-01-12T09:07:13.533Z</time>
      </trkpt>
      <trkpt lat="43.67898" lon="6.16638">
        <ele>631</ele>
        <time>2024-01-12T09:07:23.598Z</time>
      </trkpt>
      <trkpt lat="43.679" lon="6.16645">
        <ele>631.3</ele>
        <time>2024-01-12T09:07:34.374Z</time>
      </trkpt>
      <trkpt lat="43.67902" lon="6.16652">
        <ele>631.7</ele>
        <time>2024-01-12T09:07:45.830Z</time>
      </trkpt>
      <trkpt lat="43.679" lon="6.16659">
        <ele>632</ele>
        <time>2024-01-12T09:07:56.605Z</time>
      </trkpt>
      <trkpt lat="43.67898" lon="6.16665">
        <ele>632.2</ele>
        <time>2024-01-12T09:08:05.662Z</time>
      </trkpt>
      <trkpt lat="43.67896" lon="6.16672">
        <ele>632.4</ele>
        <time>2024-01-12T09:08:15.811Z</time>
      </trkpt>
      <trkpt lat="43.67894" lon="6.16679">
        <ele>632.6</ele>
        <time>2024-01-12T09:08:25.960Z</time>
      </trkpt>
      <trkpt lat="43.67891" lon="6.16687">
        <ele>632.8</ele>
        <time>2024-01-12T09:08:37.878Z</time>
      </trkpt>
      <trkpt lat="43.67888" lon="6.16694">
        <ele>633</ele>
        <time>2024-01-12T09:08:48.753Z</time>
      </trkpt>
      <trkpt lat="43.67884" lon="6.167">
        <ele>633.2</ele>
        <time>2024-01-12T09:08:59.656Z</time>
      </trkpt>
      <trkpt lat="43.67879" lon="6.16706">
        <ele>633.4</ele>
        <time>2024-01-12T09:09:11.743Z</time>
      </trkpt>
      <trkpt lat="43.67874" lon="6.16712">
        <ele>633.6</ele>
        <time>2024-01-12T09:09:23.831Z</time>
      </trkpt>
      <trkpt lat="43.67869" lon="6.16718">
        <ele>633.8</ele>
        <time>2024-01-12T09:09:35.918Z</time>
      </trkpt>
      <trkpt lat="43.67865" lon="6.16728">
        <ele>634.2</ele>
        <time>2024-01-12T09:09:51.922Z</time>
      </trkpt>
      <trkpt lat="43.67861" lon="6.16737">
        <ele>634.5</ele>
        <time>2024-01-12T09:10:06.283Z</time>
      </trkpt>
      <trkpt lat="43.67862" lon="6.16744">
        <ele>634.8</ele>
        <time>2024-01-12T09:10:16.600Z</time>
      </trkpt>
      <trkpt lat="43.67863" lon="6.16751">
        <ele>635.1</ele>
        <time>2024-01-12T09:10:26.918Z</time>
      </trkpt>
      <trkpt lat="43.67865" lon="6.16757">
        <ele>635.5</ele>
        <time>2024-01-12T09:10:37.330Z</time>
      </trkpt>
      <trkpt lat="43.67867" lon="6.16763">
        <ele>635.9</ele>
        <time>2024-01-12T09:10:47.742Z</time>
      </trkpt>
      <trkpt lat="43.67865" lon="6.16775">
        <ele>636.8</ele>
        <time>2024-01-12T09:11:08.347Z</time>
      </trkpt>
      <trkpt lat="43.67863" lon="6.16782">
        <ele>637.2</ele>
        <time>2024-01-12T09:11:19.804Z</time>
      </trkpt>
      <trkpt lat="43.6786" lon="6.16788">
        <ele>637.4</ele>
        <time>2024-01-12T09:11:29.677Z</time>
      </trkpt>
      <trkpt lat="43.67858" lon="6.16797">
        <ele>637.7</ele>
        <time>2024-01-12T09:11:42.677Z</time>
      </trkpt>
      <trkpt lat="43.67856" lon="6.16806">
        <ele>638</ele>
        <time>2024-01-12T09:11:55.677Z</time>
      </trkpt>
      <trkpt lat="43.67856" lon="6.16813">
        <ele>638.3</ele>
        <time>2024-01-12T09:12:05.837Z</time>
      </trkpt>
      <trkpt lat="43.67855" lon="6.1682">
        <ele>638.5</ele>
        <time>2024-01-12T09:12:15.521Z</time>
      </trkpt>
      <trkpt lat="43.67853" lon="6.16827">
        <ele>638.8</ele>
        <time>2024-01-12T09:12:26.297Z</time>
      </trkpt>
      <trkpt lat="43.6785" lon="6.16833">
        <ele>639</ele>
        <time>2024-01-12T09:12:36.170Z</time>
      </trkpt>
      <trkpt lat="43.67848" lon="6.1684">
        <ele>639.2</ele>
        <time>2024-01-12T09:12:46.319Z</time>
      </trkpt>
      <trkpt lat="43.67846" lon="6.16847">
        <ele>639.5</ele>
        <time>2024-01-12T09:12:57.094Z</time>
      </trkpt>
      <trkpt lat="43.67845" lon="6.16855">
        <ele>639.8</ele>
        <time>2024-01-12T09:13:08.564Z</time>
      </trkpt>
      <trkpt lat="43.67843" lon="6.16862">
        <ele>640.1</ele>
        <time>2024-01-12T09:13:19.340Z</time>
      </trkpt>
      <trkpt lat="43.67842" lon="6.1687">
        <ele>640.5</ele>
        <time>2024-01-12T09:13:31.477Z</time>
      </trkpt>
      <trkpt lat="43.6784" lon="6.16877">
        <ele>641</ele>
        <time>2024-01-12T09:13:43.675Z</time>
      </trkpt>
      <trkpt lat="43.67839" lon="6.16884">
        <ele>641.5</ele>
        <time>2024-01-12T09:13:55.442Z</time>
      </trkpt>
      <trkpt lat="43.67837" lon="6.16891">
        <ele>641.9</ele>
        <time>2024-01-12T09:14:06.898Z</time>
      </trkpt>
      <trkpt lat="43.67834" lon="6.169">
        <ele>642.4</ele>
        <time>2024-01-12T09:14:21.795Z</time>
      </trkpt>
      <trkpt lat="43.67831" lon="6.16908">
        <ele>642.7</ele>
        <time>2024-01-12T09:14:34.318Z</time>
      </trkpt>
      <trkpt lat="43.67828" lon="6.16914">
        <ele>642.9</ele>
        <time>2024-01-12T09:14:44.191Z</time>
      </trkpt>
      <trkpt lat="43.67824" lon="6.1692">
        <ele>643.2</ele>
        <time>2024-01-12T09:14:55.710Z</time>
      </trkpt>
      <trkpt lat="43.67819" lon="6.16928">
        <ele>643.6</ele>
        <time>2024-01-12T09:15:10.709Z</time>
      </trkpt>
      <trkpt lat="43.67813" lon="6.16922">
        <ele>643.3</ele>
        <time>2024-01-12T09:15:21.598Z</time>
      </trkpt>
      <trkpt lat="43.67811" lon="6.16929">
        <ele>643.8</ele>
        <time>2024-01-12T09:15:33.795Z</time>
      </trkpt>
      <trkpt lat="43.67809" lon="6.16936">
        <ele>644.3</ele>
        <time>2024-01-12T09:15:45.993Z</time>
      </trkpt>
      <trkpt lat="43.67809" lon="6.16945">
        <ele>644.9</ele>
        <time>2024-01-12T09:16:00.596Z</time>
      </trkpt>
      <trkpt lat="43.67808" lon="6.16954">
        <ele>645</ele>
        <time>2024-01-12T09:16:12.061Z</time>
      </trkpt>
      <trkpt lat="43.67805" lon="6.16962">
        <ele>645</ele>
        <time>2024-01-12T09:16:22.884Z</time>
      </trkpt>
      <trkpt lat="43.67802" lon="6.1697">
        <ele>645</ele>
        <time>2024-01-12T09:16:33.708Z</time>
      </trkpt>
      <trkpt lat="43.67798" lon="6.16977">
        <ele>645.3</ele>
        <time>2024-01-12T09:16:46.124Z</time>
      </trkpt>
      <trkpt lat="43.67793" lon="6.16984">
        <ele>645.7</ele>
        <time>2024-01-12T09:17:00.261Z</time>
      </trkpt>
      <trkpt lat="43.67789" lon="6.16992">
        <ele>646</ele>
        <time>2024-01-12T09:17:13.629Z</time>
      </trkpt>
      <trkpt lat="43.67785" lon="6.17">
        <ele>646.3</ele>
        <time>2024-01-12T09:17:26.996Z</time>
      </trkpt>
      <trkpt lat="43.6778" lon="6.17009">
        <ele>646.7</ele>
        <time>2024-01-12T09:17:42.907Z</time>
      </trkpt>
      <trkpt lat="43.67775" lon="6.17017">
        <ele>647.2</ele>
        <time>2024-01-12T09:17:58.570Z</time>
      </trkpt>
      <trkpt lat="43.67772" lon="6.17025">
        <ele>647.6</ele>
        <time>2024-01-12T09:18:11.742Z</time>
      </trkpt>
      <trkpt lat="43.67768" lon="6.17032">
        <ele>647.9</ele>
        <time>2024-01-12T09:18:24.158Z</time>
      </trkpt>
      <trkpt lat="43.67766" lon="6.17039">
        <ele>648.2</ele>
        <time>2024-01-12T09:18:34.934Z</time>
      </trkpt>
      <trkpt lat="43.67764" lon="6.17046">
        <ele>648.5</ele>
        <time>2024-01-12T09:18:45.709Z</time>
      </trkpt>
      <trkpt lat="43.67762" lon="6.17053">
        <ele>648.9</ele>
        <time>2024-01-12T09:18:57.166Z</time>
      </trkpt>
      <trkpt lat="43.6776" lon="6.17059">
        <ele>649.1</ele>
        <time>2024-01-12T09:19:06.223Z</time>
      </trkpt>
      <trkpt lat="43.67755" lon="6.17065">
        <ele>649.3</ele>
        <time>2024-01-12T09:19:18.310Z</time>
      </trkpt>
      <trkpt lat="43.67749" lon="6.1707">
        <ele>649.5</ele>
        <time>2024-01-12T09:19:31.033Z</time>
      </trkpt>
      <trkpt lat="43.67744" lon="6.17071">
        <ele>649.3</ele>
        <time>2024-01-12T09:19:38.482Z</time>
      </trkpt>
      <trkpt lat="43.67748" lon="6.17078">
        <ele>649.7</ele>
        <time>2024-01-12T09:19:51.549Z</time>
      </trkpt>
      <trkpt lat="43.67752" lon="6.17084">
        <ele>650</ele>
        <time>2024-01-12T09:20:03.069Z</time>
      </trkpt>
      <trkpt lat="43.67754" lon="6.17091">
        <ele>650.3</ele>
        <time>2024-01-12T09:20:13.844Z</time>
      </trkpt>
      <trkpt lat="43.67755" lon="6.17098">
        <ele>650.6</ele>
        <time>2024-01-12T09:20:24.162Z</time>
      </trkpt>
      <trkpt lat="43.67756" lon="6.17106">
        <ele>651</ele>
        <time>2024-01-12T09:20:36.299Z</time>
      </trkpt>
      <trkpt lat="43.67757" lon="6.17114">
        <ele>651.4</ele>
        <time>2024-01-12T09:20:48.437Z</time>
      </trkpt>
      <trkpt lat="43.67758" lon="6.17121">
        <ele>651.6</ele>
        <time>2024-01-12T09:20:58.121Z</time>
      </trkpt>
      <trkpt lat="43.67759" lon="6.17128">
        <ele>651.9</ele>
        <time>2024-01-12T09:21:08.439Z</time>
      </trkpt>
      <trkpt lat="43.6776" lon="6.17137">
        <ele>652.3</ele>
        <time>2024-01-12T09:21:21.720Z</time>
      </trkpt>
      <trkpt lat="43.67761" lon="6.17145">
        <ele>652.7</ele>
        <time>2024-01-12T09:21:33.857Z</time>
      </trkpt>
      <trkpt lat="43.67763" lon="6.17153">
        <ele>653.2</ele>
        <time>2024-01-12T09:21:47.105Z</time>
      </trkpt>
      <trkpt lat="43.67765" lon="6.1716">
        <ele>653.6</ele>
        <time>2024-01-12T09:21:58.561Z</time>
      </trkpt>
      <trkpt lat="43.67766" lon="6.17167">
        <ele>654</ele>
        <time>2024-01-12T09:22:09.571Z</time>
      </trkpt>
      <trkpt lat="43.67766" lon="6.17174">
        <ele>654.4</ele>
        <time>2024-01-12T09:22:20.428Z</time>
      </trkpt>
      <trkpt lat="43.67767" lon="6.17182">
        <ele>654.9</ele>
        <time>2024-01-12T09:22:33.286Z</time>
      </trkpt>
      <trkpt lat="43.67767" lon="6.1719">
        <ele>655.4</ele>
        <time>2024-01-12T09:22:46.011Z</time>
      </trkpt>
      <trkpt lat="43.67768" lon="6.17198">
        <ele>655.7</ele>
        <time>2024-01-12T09:22:57.482Z</time>
      </trkpt>
      <trkpt lat="43.67769" lon="6.17206">
        <ele>656</ele>
        <time>2024-01-12T09:23:08.952Z</time>
      </trkpt>
      <trkpt lat="43.6777" lon="6.17213">
        <ele>656.2</ele>
        <time>2024-01-12T09:23:18.636Z</time>
      </trkpt>
      <trkpt lat="43.67771" lon="6.17219">
        <ele>656.4</ele>
        <time>2024-01-12T09:23:27.162Z</time>
      </trkpt>
      <trkpt lat="43.67772" lon="6.17227">
        <ele>656.8</ele>
        <time>2024-01-12T09:23:39.299Z</time>
      </trkpt>
      <trkpt lat="43.67773" lon="6.17235">
        <ele>657.1</ele>
        <time>2024-01-12T09:23:50.770Z</time>
      </trkpt>
      <trkpt lat="43.67774" lon="6.17243">
        <ele>657.5</ele>
        <time>2024-01-12T09:24:02.907Z</time>
      </trkpt>
      <trkpt lat="43.67774" lon="6.1725">
        <ele>657.7</ele>
        <time>2024-01-12T09:24:12.430Z</time>
      </trkpt>
      <trkpt lat="43.67774" lon="6.17258">
        <ele>658</ele>
        <time>2024-01-12T09:24:23.762Z</time>
      </trkpt>
      <trkpt lat="43.67773" lon="6.17266">
        <ele>658.2</ele>
        <time>2024-01-12T09:24:34.615Z</time>
      </trkpt>
      <trkpt lat="43.67774" lon="6.17274">
        <ele>658.6</ele>
        <time>2024-01-12T09:24:46.752Z</time>
      </trkpt>
      <trkpt lat="43.67775" lon="6.17281">
        <ele>658.9</ele>
        <time>2024-01-12T09:24:57.070Z</time>
      </trkpt>
      <trkpt lat="43.67777" lon="6.17288">
        <ele>659.3</ele>
        <time>2024-01-12T09:25:08.527Z</time>
      </trkpt>
      <trkpt lat="43.67778" lon="6.17294">
        <ele>659.6</ele>
        <time>2024-01-12T09:25:17.708Z</time>
      </trkpt>
      <trkpt lat="43.67782" lon="6.17301">
        <ele>660</ele>
        <time>2024-01-12T09:25:30.775Z</time>
      </trkpt>
      <trkpt lat="43.67786" lon="6.17307">
        <ele>660.3</ele>
        <time>2024-01-12T09:25:42.295Z</time>
      </trkpt>
      <trkpt lat="43.6779" lon="6.17312">
        <ele>660.7</ele>
        <time>2024-01-12T09:25:53.670Z</time>
      </trkpt>
      <trkpt lat="43.67793" lon="6.17317">
        <ele>661</ele>
        <time>2024-01-12T09:26:03.245Z</time>
      </trkpt>
      <trkpt lat="43.67796" lon="6.17322">
        <ele>661.2</ele>
        <time>2024-01-12T09:26:12.172Z</time>
      </trkpt>
      <trkpt lat="43.67799" lon="6.17327">
        <ele>661.5</ele>
        <time>2024-01-12T09:26:21.746Z</time>
      </trkpt>
      <trkpt lat="43.67802" lon="6.17334">
        <ele>661.9</ele>
        <time>2024-01-12T09:26:33.904Z</time>
      </trkpt>
      <trkpt lat="43.67805" lon="6.17341">
        <ele>662.3</ele>
        <time>2024-01-12T09:26:46.062Z</time>
      </trkpt>
      <trkpt lat="43.67807" lon="6.17348">
        <ele>662.6</ele>
        <time>2024-01-12T09:26:56.837Z</time>
      </trkpt>
      <trkpt lat="43.67808" lon="6.17355">
        <ele>662.8</ele>
        <time>2024-01-12T09:27:06.522Z</time>
      </trkpt>
      <trkpt lat="43.67811" lon="6.17362">
        <ele>663.3</ele>
        <time>2024-01-12T09:27:19.400Z</time>
      </trkpt>
      <trkpt lat="43.67813" lon="6.17368">
        <ele>663.8</ele>
        <time>2024-01-12T09:27:30.595Z</time>
      </trkpt>
      <trkpt lat="43.67815" lon="6.17374">
        <ele>664.3</ele>
        <time>2024-01-12T09:27:41.789Z</time>
      </trkpt>
      <trkpt lat="43.67816" lon="6.1738">
        <ele>664.7</ele>
        <time>2024-01-12T09:27:51.698Z</time>
      </trkpt>
      <trkpt lat="43.67819" lon="6.17387">
        <ele>665.3</ele>
        <time>2024-01-12T09:28:05.357Z</time>
      </trkpt>
      <trkpt lat="43.67821" lon="6.17393">
        <ele>665.7</ele>
        <time>2024-01-12T09:28:15.768Z</time>
      </trkpt>
      <trkpt lat="43.67823" lon="6.17399">
        <ele>666</ele>
        <time>2024-01-12T09:28:25.471Z</time>
      </trkpt>
      <trkpt lat="43.67825" lon="6.17405">
        <ele>666.3</ele>
        <time>2024-01-12T09:28:35.173Z</time>
      </trkpt>
      <trkpt lat="43.67828" lon="6.17411">
        <ele>666.6</ele>
        <time>2024-01-12T09:28:45.676Z</time>
      </trkpt>
      <trkpt lat="43.6783" lon="6.17417">
        <ele>666.9</ele>
        <time>2024-01-12T09:28:55.378Z</time>
      </trkpt>
      <trkpt lat="43.67834" lon="6.17424">
        <ele>667.3</ele>
        <time>2024-01-12T09:29:08.445Z</time>
      </trkpt>
      <trkpt lat="43.67837" lon="6.1743">
        <ele>667.5</ele>
        <time>2024-01-12T09:29:18.318Z</time>
      </trkpt>
      <trkpt lat="43.67841" lon="6.17436">
        <ele>667.9</ele>
        <time>2024-01-12T09:29:30.503Z</time>
      </trkpt>
      <trkpt lat="43.67844" lon="6.17442">
        <ele>668.3</ele>
        <time>2024-01-12T09:29:41.694Z</time>
      </trkpt>
      <trkpt lat="43.67848" lon="6.17448">
        <ele>668.7</ele>
        <time>2024-01-12T09:29:53.879Z</time>
      </trkpt>
      <trkpt lat="43.67851" lon="6.17453">
        <ele>668.9</ele>
        <time>2024-01-12T09:30:02.806Z</time>
      </trkpt>
      <trkpt lat="43.67855" lon="6.17458">
        <ele>669.3</ele>
        <time>2024-01-12T09:30:14.182Z</time>
      </trkpt>
      <trkpt lat="43.67859" lon="6.17463">
        <ele>669.6</ele>
        <time>2024-01-12T09:30:24.875Z</time>
      </trkpt>
      <trkpt lat="43.67863" lon="6.17469">
        <ele>669.8</ele>
        <time>2024-01-12T09:30:35.778Z</time>
      </trkpt>
      <trkpt lat="43.67866" lon="6.17475">
        <ele>669.9</ele>
        <time>2024-01-12T09:30:45.071Z</time>
      </trkpt>
      <trkpt lat="43.6787" lon="6.1748">
        <ele>670</ele>
        <time>2024-01-12T09:30:54.559Z</time>
      </trkpt>
      <trkpt lat="43.67873" lon="6.17485">
        <ele>670.2</ele>
        <time>2024-01-12T09:31:03.486Z</time>
      </trkpt>
      <trkpt lat="43.67877" lon="6.17489">
        <ele>670.4</ele>
        <time>2024-01-12T09:31:12.803Z</time>
      </trkpt>
      <trkpt lat="43.6788" lon="6.17493">
        <ele>670.6</ele>
        <time>2024-01-12T09:31:20.862Z</time>
      </trkpt>
      <trkpt lat="43.67883" lon="6.175">
        <ele>671</ele>
        <time>2024-01-12T09:31:33.020Z</time>
      </trkpt>
      <trkpt lat="43.67885" lon="6.17506">
        <ele>671.4</ele>
        <time>2024-01-12T09:31:43.431Z</time>
      </trkpt>
      <trkpt lat="43.67887" lon="6.17513">
        <ele>671.9</ele>
        <time>2024-01-12T09:31:55.629Z</time>
      </trkpt>
      <trkpt lat="43.67889" lon="6.1752">
        <ele>672.4</ele>
        <time>2024-01-12T09:32:07.827Z</time>
      </trkpt>
      <trkpt lat="43.67894" lon="6.17524">
        <ele>672.6</ele>
        <time>2024-01-12T09:32:18.524Z</time>
      </trkpt>
      <trkpt lat="43.67899" lon="6.17528">
        <ele>672.6</ele>
        <time>2024-01-12T09:32:28.117Z</time>
      </trkpt>
      <trkpt lat="43.67903" lon="6.17532">
        <ele>672.7</ele>
        <time>2024-01-12T09:32:36.850Z</time>
      </trkpt>
      <trkpt lat="43.67906" lon="6.17536">
        <ele>672.8</ele>
        <time>2024-01-12T09:32:44.310Z</time>
      </trkpt>
      <trkpt lat="43.67909" lon="6.17543">
        <ele>673</ele>
        <time>2024-01-12T09:32:55.185Z</time>
      </trkpt>
      <trkpt lat="43.67912" lon="6.17549">
        <ele>673.1</ele>
        <time>2024-01-12T09:33:04.479Z</time>
      </trkpt>
      <trkpt lat="43.67915" lon="6.17556">
        <ele>673.2</ele>
        <time>2024-01-12T09:33:14.782Z</time>
      </trkpt>
      <trkpt lat="43.67917" lon="6.17563">
        <ele>673.6</ele>
        <time>2024-01-12T09:33:26.238Z</time>
      </trkpt>
      <trkpt lat="43.67918" lon="6.17571">
        <ele>674.2</ele>
        <time>2024-01-12T09:33:39.877Z</time>
      </trkpt>
      <trkpt lat="43.67919" lon="6.17579">
        <ele>674.8</ele>
        <time>2024-01-12T09:33:53.515Z</time>
      </trkpt>
      <trkpt lat="43.67921" lon="6.17591">
        <ele>675.7</ele>
        <time>2024-01-12T09:34:14.121Z</time>
      </trkpt>
      <trkpt lat="43.67922" lon="6.17598">
        <ele>676.2</ele>
        <time>2024-01-12T09:34:25.888Z</time>
      </trkpt>
      <trkpt lat="43.67923" lon="6.17604">
        <ele>676.7</ele>
        <time>2024-01-12T09:34:36.606Z</time>
      </trkpt>
      <trkpt lat="43.67925" lon="6.17611">
        <ele>677.3</ele>
        <time>2024-01-12T09:34:49.612Z</time>
      </trkpt>
      <trkpt lat="43.67927" lon="6.17618">
        <ele>677.7</ele>
        <time>2024-01-12T09:35:01.068Z</time>
      </trkpt>
      <trkpt lat="43.6793" lon="6.17625">
        <ele>678.2</ele>
        <time>2024-01-12T09:35:13.946Z</time>
      </trkpt>
      <trkpt lat="43.67933" lon="6.17631">
        <ele>678.7</ele>
        <time>2024-01-12T09:35:25.888Z</time>
      </trkpt>
      <trkpt lat="43.67934" lon="6.17638">
        <ele>679.2</ele>
        <time>2024-01-12T09:35:37.655Z</time>
      </trkpt>
      <trkpt lat="43.67935" lon="6.17645">
        <ele>679.8</ele>
        <time>2024-01-12T09:35:50.252Z</time>
      </trkpt>
      <trkpt lat="43.67938" lon="6.17651">
        <ele>680.4</ele>
        <time>2024-01-12T09:36:03.015Z</time>
      </trkpt>
      <trkpt lat="43.6794" lon="6.17657">
        <ele>681</ele>
        <time>2024-01-12T09:36:15.073Z</time>
      </trkpt>
      <trkpt lat="43.67943" lon="6.17664">
        <ele>681.7</ele>
        <time>2024-01-12T09:36:29.576Z</time>
      </trkpt>
      <trkpt lat="43.67945" lon="6.17671">
        <ele>682.3</ele>
        <time>2024-01-12T09:36:42.582Z</time>
      </trkpt>
      <trkpt lat="43.67949" lon="6.17679">
        <ele>682.9</ele>
        <time>2024-01-12T09:36:57.993Z</time>
      </trkpt>
      <trkpt lat="43.67953" lon="6.17686">
        <ele>683.4</ele>
        <time>2024-01-12T09:37:11.758Z</time>
      </trkpt>
      <trkpt lat="43.67956" lon="6.17692">
        <ele>683.8</ele>
        <time>2024-01-12T09:37:22.949Z</time>
      </trkpt>
      <trkpt lat="43.67959" lon="6.17698">
        <ele>684.3</ele>
        <time>2024-01-12T09:37:34.891Z</time>
      </trkpt>
      <trkpt lat="43.67963" lon="6.17704">
        <ele>684.7</ele>
        <time>2024-01-12T09:37:47.076Z</time>
      </trkpt>
      <trkpt lat="43.67967" lon="6.17709">
        <ele>685</ele>
        <time>2024-01-12T09:37:57.768Z</time>
      </trkpt>
      <trkpt lat="43.6797" lon="6.17715">
        <ele>685.5</ele>
        <time>2024-01-12T09:38:09.710Z</time>
      </trkpt>
      <trkpt lat="43.67973" lon="6.1772">
        <ele>685.9</ele>
        <time>2024-01-12T09:38:19.998Z</time>
      </trkpt>
      <trkpt lat="43.67977" lon="6.17725">
        <ele>686.4</ele>
        <time>2024-01-12T09:38:32.118Z</time>
      </trkpt>
      <trkpt lat="43.6798" lon="6.1773">
        <ele>686.8</ele>
        <time>2024-01-12T09:38:42.406Z</time>
      </trkpt>
      <trkpt lat="43.67985" lon="6.17733">
        <ele>687.2</ele>
        <time>2024-01-12T09:38:53.874Z</time>
      </trkpt>
      <trkpt lat="43.6799" lon="6.17735">
        <ele>687.6</ele>
        <time>2024-01-12T09:39:04.954Z</time>
      </trkpt>
      <trkpt lat="43.67997" lon="6.17739">
        <ele>688.1</ele>
        <time>2024-01-12T09:39:20.500Z</time>
      </trkpt>
      <trkpt lat="43.68003" lon="6.17743">
        <ele>688.6</ele>
        <time>2024-01-12T09:39:34.594Z</time>
      </trkpt>
      <trkpt lat="43.68007" lon="6.17748">
        <ele>689.1</ele>
        <time>2024-01-12T09:39:46.714Z</time>
      </trkpt>
      <trkpt lat="43.6801" lon="6.17753">
        <ele>689.6</ele>
        <time>2024-01-12T09:39:57.791Z</time>
      </trkpt>
      <trkpt lat="43.68016" lon="6.17758">
        <ele>690.3</ele>
        <time>2024-01-12T09:40:13.935Z</time>
      </trkpt>
      <trkpt lat="43.68021" lon="6.17762">
        <ele>690.7</ele>
        <time>2024-01-12T09:40:25.920Z</time>
      </trkpt>
      <trkpt lat="43.68026" lon="6.17765">
        <ele>691.1</ele>
        <time>2024-01-12T09:40:37.388Z</time>
      </trkpt>
      <trkpt lat="43.68031" lon="6.17768">
        <ele>691.3</ele>
        <time>2024-01-12T09:40:47.549Z</time>
      </trkpt>
      <trkpt lat="43.68037" lon="6.1777">
        <ele>691.6</ele>
        <time>2024-01-12T09:40:59.508Z</time>
      </trkpt>
      <trkpt lat="43.68043" lon="6.17771">
        <ele>691.8</ele>
        <time>2024-01-12T09:41:10.644Z</time>
      </trkpt>
      <trkpt lat="43.68049" lon="6.17773">
        <ele>692.2</ele>
        <time>2024-01-12T09:41:23.261Z</time>
      </trkpt>
      <trkpt lat="43.68054" lon="6.17774">
        <ele>692.4</ele>
        <time>2024-01-12T09:41:32.768Z</time>
      </trkpt>
      <trkpt lat="43.68059" lon="6.17777">
        <ele>692.8</ele>
        <time>2024-01-12T09:41:44.235Z</time>
      </trkpt>
      <trkpt lat="43.68064" lon="6.1778">
        <ele>693</ele>
        <time>2024-01-12T09:41:54.396Z</time>
      </trkpt>
      <trkpt lat="43.6807" lon="6.17783">
        <ele>693.1</ele>
        <time>2024-01-12T09:42:05.521Z</time>
      </trkpt>
      <trkpt lat="43.68076" lon="6.17785">
        <ele>693.2</ele>
        <time>2024-01-12T09:42:16.300Z</time>
      </trkpt>
      <trkpt lat="43.68081" lon="6.17784">
        <ele>693</ele>
        <time>2024-01-12T09:42:23.749Z</time>
      </trkpt>
      <trkpt lat="43.68086" lon="6.17783">
        <ele>692.8</ele>
        <time>2024-01-12T09:42:31.199Z</time>
      </trkpt>
      <trkpt lat="43.68092" lon="6.17787">
        <ele>693.3</ele>
        <time>2024-01-12T09:42:45.293Z</time>
      </trkpt>
      <trkpt lat="43.68097" lon="6.17791">
        <ele>693.7</ele>
        <time>2024-01-12T09:42:57.278Z</time>
      </trkpt>
      <trkpt lat="43.68102" lon="6.17797">
        <ele>694</ele>
        <time>2024-01-12T09:43:09.969Z</time>
      </trkpt>
      <trkpt lat="43.68107" lon="6.17803">
        <ele>694.2</ele>
        <time>2024-01-12T09:43:22.057Z</time>
      </trkpt>
      <trkpt lat="43.68111" lon="6.17807">
        <ele>694.3</ele>
        <time>2024-01-12T09:43:30.789Z</time>
      </trkpt>
      <trkpt lat="43.68115" lon="6.17811">
        <ele>695.4</ele>
        <time>2024-01-12T09:43:48.829Z</time>
      </trkpt>
      <trkpt lat="43.6812" lon="6.17816">
        <ele>696.4</ele>
        <time>2024-01-12T09:44:06.639Z</time>
      </trkpt>
      <trkpt lat="43.68124" lon="6.1782">
        <ele>697</ele>
        <time>2024-01-12T09:44:18.918Z</time>
      </trkpt>
      <trkpt lat="43.68127" lon="6.17826">
        <ele>697.4</ele>
        <time>2024-01-12T09:44:30.109Z</time>
      </trkpt>
      <trkpt lat="43.6813" lon="6.17831">
        <ele>697.6</ele>
        <time>2024-01-12T09:44:39.036Z</time>
      </trkpt>
      <trkpt lat="43.68133" lon="6.17838">
        <ele>697.7</ele>
        <time>2024-01-12T09:44:49.339Z</time>
      </trkpt>
      <trkpt lat="43.68135" lon="6.17844">
        <ele>697.8</ele>
        <time>2024-01-12T09:44:57.809Z</time>
      </trkpt>
      <trkpt lat="43.6814" lon="6.17854">
        <ele>697.9</ele>
        <time>2024-01-12T09:45:12.934Z</time>
      </trkpt>
      <trkpt lat="43.6814" lon="6.17862">
        <ele>698.3</ele>
        <time>2024-01-12T09:45:24.934Z</time>
      </trkpt>
      <trkpt lat="43.6814" lon="6.1787">
        <ele>699.1</ele>
        <time>2024-01-12T09:45:40.224Z</time>
      </trkpt>
      <trkpt lat="43.68142" lon="6.17876">
        <ele>699.9</ele>
        <time>2024-01-12T09:45:54.296Z</time>
      </trkpt>
      <trkpt lat="43.68144" lon="6.17882">
        <ele>700.7</ele>
        <time>2024-01-12T09:46:08.369Z</time>
      </trkpt>
      <trkpt lat="43.68146" lon="6.17888">
        <ele>701.4</ele>
        <time>2024-01-12T09:46:21.383Z</time>
      </trkpt>
      <trkpt lat="43.68148" lon="6.17894">
        <ele>702.3</ele>
        <time>2024-01-12T09:46:36.629Z</time>
      </trkpt>
      <trkpt lat="43.68154" lon="6.17899">
        <ele>702.9</ele>
        <time>2024-01-12T09:46:51.996Z</time>
      </trkpt>
      <trkpt lat="43.6816" lon="6.17904">
        <ele>703.2</ele>
        <time>2024-01-12T09:47:05.316Z</time>
      </trkpt>
      <trkpt lat="43.68162" lon="6.17909">
        <ele>703.3</ele>
        <time>2024-01-12T09:47:12.718Z</time>
      </trkpt>
      <trkpt lat="43.68167" lon="6.17908">
        <ele>703</ele>
        <time>2024-01-12T09:47:20.059Z</time>
      </trkpt>
      <trkpt lat="43.68171" lon="6.17906">
        <ele>703.3</ele>
        <time>2024-01-12T09:47:28.923Z</time>
      </trkpt>
      <trkpt lat="43.68176" lon="6.17907">
        <ele>703.7</ele>
        <time>2024-01-12T09:47:39.763Z</time>
      </trkpt>
      <trkpt lat="43.68181" lon="6.17907">
        <ele>704.1</ele>
        <time>2024-01-12T09:47:50.521Z</time>
      </trkpt>
      <trkpt lat="43.68186" lon="6.17907">
        <ele>704.4</ele>
        <time>2024-01-12T09:48:00.580Z</time>
      </trkpt>
      <trkpt lat="43.68189" lon="6.1791">
        <ele>704.4</ele>
        <time>2024-01-12T09:48:06.728Z</time>
      </trkpt>
      <trkpt lat="43.68193" lon="6.17914">
        <ele>704.2</ele>
        <time>2024-01-12T09:48:13.987Z</time>
      </trkpt>
      <trkpt lat="43.68198" lon="6.17918">
        <ele>704.5</ele>
        <time>2024-01-12T09:48:25.303Z</time>
      </trkpt>
      <trkpt lat="43.68203" lon="6.17921">
        <ele>705.3</ele>
        <time>2024-01-12T09:48:40.164Z</time>
      </trkpt>
      <trkpt lat="43.6821" lon="6.17922">
        <ele>706.1</ele>
        <time>2024-01-12T09:48:57.186Z</time>
      </trkpt>
      <trkpt lat="43.68217" lon="6.17923">
        <ele>706.9</ele>
        <time>2024-01-12T09:49:14.207Z</time>
      </trkpt>
      <trkpt lat="43.68216" lon="6.17921">
        <ele>706.7</ele>
        <time>2024-01-12T09:49:16.762Z</time>
      </trkpt>
      <trkpt lat="43.68218" lon="6.17916">
        <ele>706.6</ele>
        <time>2024-01-12T09:49:23.139Z</time>
      </trkpt>
      <trkpt lat="43.68224" lon="6.17918">
        <ele>707.2</ele>
        <time>2024-01-12T09:49:37.229Z</time>
      </trkpt>
      <trkpt lat="43.68229" lon="6.17919">
        <ele>707.7</ele>
        <time>2024-01-12T09:49:48.833Z</time>
      </trkpt>
      <trkpt lat="43.68234" lon="6.17926">
        <ele>708.7</ele>
        <time>2024-01-12T09:50:07.793Z</time>
      </trkpt>
      <trkpt lat="43.68239" lon="6.17932">
        <ele>709.6</ele>
        <time>2024-01-12T09:50:25.141Z</time>
      </trkpt>
      <trkpt lat="43.68244" lon="6.17934">
        <ele>710.3</ele>
        <time>2024-01-12T09:50:38.708Z</time>
      </trkpt>
      <trkpt lat="43.68249" lon="6.17936">
        <ele>711</ele>
        <time>2024-01-12T09:50:52.274Z</time>
      </trkpt>
      <trkpt lat="43.68254" lon="6.17936">
        <ele>711.3</ele>
        <time>2024-01-12T09:51:02.333Z</time>
      </trkpt>
      <trkpt lat="43.68259" lon="6.17936">
        <ele>711.5</ele>
        <time>2024-01-12T09:51:11.754Z</time>
      </trkpt>
      <trkpt lat="43.68264" lon="6.17939">
        <ele>711.8</ele>
        <time>2024-01-12T09:51:22.541Z</time>
      </trkpt>
      <trkpt lat="43.68269" lon="6.17941">
        <ele>712</ele>
        <time>2024-01-12T09:51:32.299Z</time>
      </trkpt>
      <trkpt lat="43.68275" lon="6.17945">
        <ele>712.1</ele>
        <time>2024-01-12T09:51:43.889Z</time>
      </trkpt>
      <trkpt lat="43.68281" lon="6.17948">
        <ele>713.2</ele>
        <time>2024-01-12T09:52:03.038Z</time>
      </trkpt>
      <trkpt lat="43.68286" lon="6.17951">
        <ele>714.4</ele>
        <time>2024-01-12T09:52:22.746Z</time>
      </trkpt>
      <trkpt lat="43.68291" lon="6.17954">
        <ele>715.3</ele>
        <time>2024-01-12T09:52:38.660Z</time>
      </trkpt>
      <trkpt lat="43.68297" lon="6.17958">
        <ele>716</ele>
        <time>2024-01-12T09:52:54.290Z</time>
      </trkpt>
      <trkpt lat="43.68302" lon="6.17962">
        <ele>716.3</ele>
        <time>2024-01-12T09:53:05.606Z</time>
      </trkpt>
      <trkpt lat="43.68309" lon="6.17967">
        <ele>716.6</ele>
        <time>2024-01-12T09:53:20.359Z</time>
      </trkpt>
      <trkpt lat="43.68314" lon="6.17967">
        <ele>717.1</ele>
        <time>2024-01-12T09:53:31.884Z</time>
      </trkpt>
      <trkpt lat="43.68318" lon="6.17967">
        <ele>717.5</ele>
        <time>2024-01-12T09:53:41.105Z</time>
      </trkpt>
      <trkpt lat="43.68323" lon="6.17968">
        <ele>717.9</ele>
        <time>2024-01-12T09:53:51.945Z</time>
      </trkpt>
      <trkpt lat="43.68327" lon="6.17969">
        <ele>718.1</ele>
        <time>2024-01-12T09:53:59.836Z</time>
      </trkpt>
      <trkpt lat="43.68332" lon="6.17972">
        <ele>718</ele>
        <time>2024-01-12T09:54:08.396Z</time>
      </trkpt>
      <trkpt lat="43.68337" lon="6.17975">
        <ele>719.6</ele>
        <time>2024-01-12T09:54:35.021Z</time>
      </trkpt>
      <trkpt lat="43.68342" lon="6.17982">
        <ele>721.8</ele>
        <time>2024-01-12T09:55:12.124Z</time>
      </trkpt>
      <trkpt lat="43.68347" lon="6.17988">
        <ele>723.3</ele>
        <time>2024-01-12T09:55:36.684Z</time>
      </trkpt>
      <trkpt lat="43.6835" lon="6.17994">
        <ele>724</ele>
        <time>2024-01-12T09:55:50.344Z</time>
      </trkpt>
      <trkpt lat="43.68353" lon="6.18">
        <ele>724.4</ele>
        <time>2024-01-12T09:56:01.535Z</time>
      </trkpt>
      <trkpt lat="43.68356" lon="6.18007">
        <ele>725</ele>
        <time>2024-01-12T09:56:15.193Z</time>
      </trkpt>
      <trkpt lat="43.68358" lon="6.18013">
        <ele>725.1</ele>
        <time>2024-01-12T09:56:23.662Z</time>
      </trkpt>
      <trkpt lat="43.68362" lon="6.18019">
        <ele>725.2</ele>
        <time>2024-01-12T09:56:33.993Z</time>
      </trkpt>
      <trkpt lat="43.68365" lon="6.18025">
        <ele>725.8</ele>
        <time>2024-01-12T09:56:46.755Z</time>
      </trkpt>
      <trkpt lat="43.68367" lon="6.18032">
        <ele>726.7</ele>
        <time>2024-01-12T09:57:02.661Z</time>
      </trkpt>
      <trkpt lat="43.68369" lon="6.18038">
        <ele>727.8</ele>
        <time>2024-01-12T09:57:20.648Z</time>
      </trkpt>
      <trkpt lat="43.68371" lon="6.18044">
        <ele>728.6</ele>
        <time>2024-01-12T09:57:34.721Z</time>
      </trkpt>
      <trkpt lat="43.68373" lon="6.1805">
        <ele>729.2</ele>
        <time>2024-01-12T09:57:46.779Z</time>
      </trkpt>
      <trkpt lat="43.68376" lon="6.18056">
        <ele>729.5</ele>
        <time>2024-01-12T09:57:57.282Z</time>
      </trkpt>
      <trkpt lat="43.68378" lon="6.18061">
        <ele>730</ele>
        <time>2024-01-12T09:58:07.541Z</time>
      </trkpt>
      <trkpt lat="43.68381" lon="6.18068">
        <ele>730.4</ele>
        <time>2024-01-12T09:58:19.698Z</time>
      </trkpt>
      <trkpt lat="43.68384" lon="6.18074">
        <ele>730.4</ele>
        <time>2024-01-12T09:58:28.458Z</time>
      </trkpt>
      <trkpt lat="43.68388" lon="6.1808">
        <ele>730</ele>
        <time>2024-01-12T09:58:37.034Z</time>
      </trkpt>
      <trkpt lat="43.68392" lon="6.18085">
        <ele>730.9</ele>
        <time>2024-01-12T09:58:52.884Z</time>
      </trkpt>
      <trkpt lat="43.68395" lon="6.18092">
        <ele>732.5</ele>
        <time>2024-01-12T09:59:19.153Z</time>
      </trkpt>
      <trkpt lat="43.68398" lon="6.18098">
        <ele>733.6</ele>
        <time>2024-01-12T09:59:37.365Z</time>
      </trkpt>
      <trkpt lat="43.68401" lon="6.18105">
        <ele>734.5</ele>
        <time>2024-01-12T09:59:53.781Z</time>
      </trkpt>
      <trkpt lat="43.68403" lon="6.18111">
        <ele>735</ele>
        <time>2024-01-12T10:00:04.974Z</time>
      </trkpt>
      <trkpt lat="43.68405" lon="6.18118">
        <ele>735.8</ele>
        <time>2024-01-12T10:00:19.826Z</time>
      </trkpt>
      <trkpt lat="43.68406" lon="6.18124">
        <ele>736.5</ele>
        <time>2024-01-12T10:00:32.446Z</time>
      </trkpt>
      <trkpt lat="43.68408" lon="6.18131">
        <ele>737.2</ele>
        <time>2024-01-12T10:00:46.334Z</time>
      </trkpt>
      <trkpt lat="43.6841" lon="6.18137">
        <ele>737.7</ele>
        <time>2024-01-12T10:00:57.528Z</time>
      </trkpt>
      <trkpt lat="43.68411" lon="6.18145">
        <ele>738.6</ele>
        <time>2024-01-12T10:01:13.927Z</time>
      </trkpt>
      <trkpt lat="43.68412" lon="6.18152">
        <ele>739.2</ele>
        <time>2024-01-12T10:01:26.524Z</time>
      </trkpt>
      <trkpt lat="43.68412" lon="6.1816">
        <ele>740.2</ele>
        <time>2024-01-12T10:01:43.917Z</time>
      </trkpt>
      <trkpt lat="43.68411" lon="6.18168">
        <ele>741.3</ele>
        <time>2024-01-12T10:02:02.578Z</time>
      </trkpt>
      <trkpt lat="43.68412" lon="6.18175">
        <ele>741.7</ele>
        <time>2024-01-12T10:02:13.587Z</time>
      </trkpt>
      <trkpt lat="43.68413" lon="6.18182">
        <ele>742</ele>
        <time>2024-01-12T10:02:23.904Z</time>
      </trkpt>
      <trkpt lat="43.68414" lon="6.18189">
        <ele>742.3</ele>
        <time>2024-01-12T10:02:34.221Z</time>
      </trkpt>
      <trkpt lat="43.68414" lon="6.18195">
        <ele>742.8</ele>
        <time>2024-01-12T10:02:44.774Z</time>
      </trkpt>
      <trkpt lat="43.68416" lon="6.18207">
        <ele>743.5</ele>
        <time>2024-01-12T10:03:03.845Z</time>
      </trkpt>
      <trkpt lat="43.68419" lon="6.18214">
        <ele>744.9</ele>
        <time>2024-01-12T10:03:26.696Z</time>
      </trkpt>
      <trkpt lat="43.68421" lon="6.1822">
        <ele>746.2</ele>
        <time>2024-01-12T10:03:48.042Z</time>
      </trkpt>
      <trkpt lat="43.68419" lon="6.18227">
        <ele>746.2</ele>
        <time>2024-01-12T10:03:57.081Z</time>
      </trkpt>
      <trkpt lat="43.68417" lon="6.18233">
        <ele>746.3</ele>
        <time>2024-01-12T10:04:05.551Z</time>
      </trkpt>
      <trkpt lat="43.68416" lon="6.1824">
        <ele>747.1</ele>
        <time>2024-01-12T10:04:20.057Z</time>
      </trkpt>
      <trkpt lat="43.68414" lon="6.18247">
        <ele>748.4</ele>
        <time>2024-01-12T10:04:41.274Z</time>
      </trkpt>
      <trkpt lat="43.68413" lon="6.18254">
        <ele>749.8</ele>
        <time>2024-01-12T10:05:04.253Z</time>
      </trkpt>
      <trkpt lat="43.68412" lon="6.1826">
        <ele>751.1</ele>
        <time>2024-01-12T10:05:25.860Z</time>
      </trkpt>
      <trkpt lat="43.68412" lon="6.18268">
        <ele>752.5</ele>
        <time>2024-01-12T10:05:48.701Z</time>
      </trkpt>
      <trkpt lat="43.68411" lon="6.18276">
        <ele>753.9</ele>
        <time>2024-01-12T10:06:11.551Z</time>
      </trkpt>
      <trkpt lat="43.68414" lon="6.18285">
        <ele>755.8</ele>
        <time>2024-01-12T10:06:42.659Z</time>
      </trkpt>
      <trkpt lat="43.68418" lon="6.18289">
        <ele>756.9</ele>
        <time>2024-01-12T10:07:00.699Z</time>
      </trkpt>
      <trkpt lat="43.68421" lon="6.18293">
        <ele>758</ele>
        <time>2024-01-12T10:07:18.701Z</time>
      </trkpt>
      <trkpt lat="43.68424" lon="6.18298">
        <ele>759.4</ele>
        <time>2024-01-12T10:07:42.080Z</time>
      </trkpt>
      <trkpt lat="43.68427" lon="6.18303">
        <ele>760.7</ele>
        <time>2024-01-12T10:08:03.475Z</time>
      </trkpt>
      <trkpt lat="43.68432" lon="6.18307">
        <ele>761.9</ele>
        <time>2024-01-12T10:08:23.356Z</time>
      </trkpt>
      <trkpt lat="43.68436" lon="6.18311">
        <ele>763.1</ele>
        <time>2024-01-12T10:08:42.933Z</time>
      </trkpt>
      <trkpt lat="43.68441" lon="6.18315">
        <ele>764.3</ele>
        <time>2024-01-12T10:09:02.814Z</time>
      </trkpt>
      <trkpt lat="43.68446" lon="6.18319">
        <ele>765.5</ele>
        <time>2024-01-12T10:09:22.695Z</time>
      </trkpt>
      <trkpt lat="43.68452" lon="6.18327">
        <ele>767.3</ele>
        <time>2024-01-12T10:09:52.331Z</time>
      </trkpt>
      <trkpt lat="43.68457" lon="6.1833">
        <ele>767.6</ele>
        <time>2024-01-12T10:10:03.118Z</time>
      </trkpt>
      <trkpt lat="43.68461" lon="6.18333">
        <ele>767.8</ele>
        <time>2024-01-12T10:10:11.803Z</time>
      </trkpt>
      <trkpt lat="43.68466" lon="6.18336">
        <ele>768.1</ele>
        <time>2024-01-12T10:10:22.589Z</time>
      </trkpt>
      <trkpt lat="43.68471" lon="6.18339">
        <ele>768.5</ele>
        <time>2024-01-12T10:10:34.057Z</time>
      </trkpt>
      <trkpt lat="43.68475" lon="6.18344">
        <ele>770.3</ele>
        <time>2024-01-12T10:11:05.211Z</time>
      </trkpt>
      <trkpt lat="43.68478" lon="6.18348">
        <ele>771.7</ele>
        <time>2024-01-12T10:11:29.502Z</time>
      </trkpt>
      <trkpt lat="43.68482" lon="6.18354">
        <ele>773.3</ele>
        <time>2024-01-12T10:11:55.762Z</time>
      </trkpt>
      <trkpt lat="43.68486" lon="6.18359">
        <ele>774.3</ele>
        <time>2024-01-12T10:12:12.775Z</time>
      </trkpt>
      <trkpt lat="43.6849" lon="6.18364">
        <ele>775.1</ele>
        <time>2024-01-12T10:12:27.563Z</time>
      </trkpt>
      <trkpt lat="43.68494" lon="6.18369">
        <ele>775.9</ele>
        <time>2024-01-12T10:12:42.351Z</time>
      </trkpt>
      <trkpt lat="43.68496" lon="6.18375">
        <ele>776.6</ele>
        <time>2024-01-12T10:12:55.365Z</time>
      </trkpt>
      <trkpt lat="43.68498" lon="6.18381">
        <ele>777.3</ele>
        <time>2024-01-12T10:13:08.380Z</time>
      </trkpt>
      <trkpt lat="43.68502" lon="6.18387">
        <ele>778.3</ele>
        <time>2024-01-12T10:13:25.894Z</time>
      </trkpt>
      <trkpt lat="43.68505" lon="6.18393">
        <ele>780</ele>
        <time>2024-01-12T10:13:54.944Z</time>
      </trkpt>
      <trkpt lat="43.68509" lon="6.18397">
        <ele>781.5</ele>
        <time>2024-01-12T10:14:20.119Z</time>
      </trkpt>
      <trkpt lat="43.68512" lon="6.18401">
        <ele>782.5</ele>
        <time>2024-01-12T10:14:36.437Z</time>
      </trkpt>
      <trkpt lat="43.68515" lon="6.18407">
        <ele>783.6</ele>
        <time>2024-01-12T10:14:54.649Z</time>
      </trkpt>
      <trkpt lat="43.68518" lon="6.18413">
        <ele>784.4</ele>
        <time>2024-01-12T10:15:09.294Z</time>
      </trkpt>
      <trkpt lat="43.6852" lon="6.1842">
        <ele>785.1</ele>
        <time>2024-01-12T10:15:23.182Z</time>
      </trkpt>
      <trkpt lat="43.68522" lon="6.18426">
        <ele>785.7</ele>
        <time>2024-01-12T10:15:35.240Z</time>
      </trkpt>
      <trkpt lat="43.68524" lon="6.18432">
        <ele>786.3</ele>
        <time>2024-01-12T10:15:47.298Z</time>
      </trkpt>
      <trkpt lat="43.68526" lon="6.18438">
        <ele>786.7</ele>
        <time>2024-01-12T10:15:57.709Z</time>
      </trkpt>
      <trkpt lat="43.6853" lon="6.18449">
        <ele>788.5</ele>
        <time>2024-01-12T10:16:27.688Z</time>
      </trkpt>
      <trkpt lat="43.68531" lon="6.18456">
        <ele>790.1</ele>
        <time>2024-01-12T10:16:54.695Z</time>
      </trkpt>
      <trkpt lat="43.68532" lon="6.18462">
        <ele>791.4</ele>
        <time>2024-01-12T10:17:16.302Z</time>
      </trkpt>
      <trkpt lat="43.68537" lon="6.18468">
        <ele>793.1</ele>
        <time>2024-01-12T10:17:44.069Z</time>
      </trkpt>
      <trkpt lat="43.68541" lon="6.18474">
        <ele>794.3</ele>
        <time>2024-01-12T10:18:04.031Z</time>
      </trkpt>
      <trkpt lat="43.68543" lon="6.1848">
        <ele>795.7</ele>
        <time>2024-01-12T10:18:27.319Z</time>
      </trkpt>
      <trkpt lat="43.68545" lon="6.18486">
        <ele>797.1</ele>
        <time>2024-01-12T10:18:50.606Z</time>
      </trkpt>
      <trkpt lat="43.68548" lon="6.18491">
        <ele>798.2</ele>
        <time>2024-01-12T10:19:08.574Z</time>
      </trkpt>
      <trkpt lat="43.68551" lon="6.18496">
        <ele>799.2</ele>
        <time>2024-01-12T10:19:25.074Z</time>
      </trkpt>
      <trkpt lat="43.68555" lon="6.18503">
        <ele>800.8</ele>
        <time>2024-01-12T10:19:51.177Z</time>
      </trkpt>
      <trkpt lat="43.6856" lon="6.18508">
        <ele>802.5</ele>
        <time>2024-01-12T10:20:19.138Z</time>
      </trkpt>
      <trkpt lat="43.68565" lon="6.18513">
        <ele>804</ele>
        <time>2024-01-12T10:20:43.609Z</time>
      </trkpt>
      <trkpt lat="43.68569" lon="6.18518">
        <ele>805.2</ele>
        <time>2024-01-12T10:21:03.292Z</time>
      </trkpt>
      <trkpt lat="43.68573" lon="6.18522">
        <ele>806.1</ele>
        <time>2024-01-12T10:21:18.680Z</time>
      </trkpt>
      <trkpt lat="43.68577" lon="6.18528">
        <ele>807.1</ele>
        <time>2024-01-12T10:21:36.195Z</time>
      </trkpt>
      <trkpt lat="43.6858" lon="6.18533">
        <ele>808.3</ele>
        <time>2024-01-12T10:21:55.790Z</time>
      </trkpt>
      <trkpt lat="43.68586" lon="6.18542">
        <ele>811</ele>
        <time>2024-01-12T10:22:41.151Z</time>
      </trkpt>
      <trkpt lat="43.68589" lon="6.18548">
        <ele>812.7</ele>
        <time>2024-01-12T10:23:10.201Z</time>
      </trkpt>
      <trkpt lat="43.68592" lon="6.18554">
        <ele>814</ele>
        <time>2024-01-12T10:23:31.408Z</time>
      </trkpt>
      <trkpt lat="43.68595" lon="6.18561">
        <ele>815.3</ele>
        <time>2024-01-12T10:23:52.749Z</time>
      </trkpt>
      <trkpt lat="43.68597" lon="6.18568">
        <ele>816.5</ele>
        <time>2024-01-12T10:24:12.453Z</time>
      </trkpt>
      <trkpt lat="43.68597" lon="6.1857">
        <ele>816.8</ele>
        <time>2024-01-12T10:24:17.425Z</time>
      </trkpt>
      <trkpt lat="43.68594" lon="6.18574">
        <ele>817.6</ele>
        <time>2024-01-12T10:24:30.909Z</time>
      </trkpt>
      <trkpt lat="43.68591" lon="6.18577">
        <ele>818.3</ele>
        <time>2024-01-12T10:24:42.755Z</time>
      </trkpt>
      <trkpt lat="43.6859" lon="6.18583">
        <ele>819.5</ele>
        <time>2024-01-12T10:25:02.435Z</time>
      </trkpt>
      <trkpt lat="43.68585" lon="6.18586">
        <ele>820.3</ele>
        <time>2024-01-12T10:25:17.296Z</time>
      </trkpt>
      <trkpt lat="43.6858" lon="6.18588">
        <ele>820.8</ele>
        <time>2024-01-12T10:25:29.131Z</time>
      </trkpt>
      <trkpt lat="43.68577" lon="6.18595">
        <ele>821.8</ele>
        <time>2024-01-12T10:25:46.628Z</time>
      </trkpt>
      <trkpt lat="43.68574" lon="6.18601">
        <ele>822.7</ele>
        <time>2024-01-12T10:26:02.353Z</time>
      </trkpt>
      <trkpt lat="43.68568" lon="6.18601">
        <ele>822.7</ele>
        <time>2024-01-12T10:26:12.317Z</time>
      </trkpt>
      <trkpt lat="43.68571" lon="6.18607">
        <ele>823.5</ele>
        <time>2024-01-12T10:26:26.962Z</time>
      </trkpt>
      <trkpt lat="43.68573" lon="6.18607">
        <ele>823.5</ele>
        <time>2024-01-12T10:26:30.284Z</time>
      </trkpt>
      <trkpt lat="43.68579" lon="6.18611">
        <ele>824</ele>
        <time>2024-01-12T10:26:44.377Z</time>
      </trkpt>
      <trkpt lat="43.68585" lon="6.18615">
        <ele>824.4</ele>
        <time>2024-01-12T10:26:57.780Z</time>
      </trkpt>
      <trkpt lat="43.68591" lon="6.18616">
        <ele>824.2</ele>
        <time>2024-01-12T10:27:06.863Z</time>
      </trkpt>
      <trkpt lat="43.68596" lon="6.18616">
        <ele>823.9</ele>
        <time>2024-01-12T10:27:14.129Z</time>
      </trkpt>
      <trkpt lat="43.686" lon="6.18621">
        <ele>824.4</ele>
        <time>2024-01-12T10:27:26.248Z</time>
      </trkpt>
      <trkpt lat="43.68603" lon="6.18625">
        <ele>824.9</ele>
        <time>2024-01-12T10:27:36.557Z</time>
      </trkpt>
      <trkpt lat="43.68608" lon="6.18627">
        <ele>825</ele>
        <time>2024-01-12T10:27:45.734Z</time>
      </trkpt>
      <trkpt lat="43.68612" lon="6.18628">
        <ele>825.2</ele>
        <time>2024-01-12T10:27:53.626Z</time>
      </trkpt>
      <trkpt lat="43.68616" lon="6.18635">
        <ele>827.1</ele>
        <time>2024-01-12T10:28:25.266Z</time>
      </trkpt>
      <trkpt lat="43.68619" lon="6.18641">
        <ele>828.6</ele>
        <time>2024-01-12T10:28:50.065Z</time>
      </trkpt>
      <trkpt lat="43.68621" lon="6.18648">
        <ele>830.5</ele>
        <time>2024-01-12T10:29:23.553Z</time>
      </trkpt>
      <trkpt lat="43.68622" lon="6.18655">
        <ele>832.2</ele>
        <time>2024-01-12T10:29:52.832Z</time>
      </trkpt>
      <trkpt lat="43.68625" lon="6.18662">
        <ele>834</ele>
        <time>2024-01-12T10:30:23.097Z</time>
      </trkpt>
      <trkpt lat="43.68628" lon="6.18668">
        <ele>835.5</ele>
        <time>2024-01-12T10:30:47.896Z</time>
      </trkpt>
      <trkpt lat="43.68628" lon="6.18675">
        <ele>836.8</ele>
        <time>2024-01-12T10:31:09.130Z</time>
      </trkpt>
      <trkpt lat="43.68628" lon="6.18682">
        <ele>838.1</ele>
        <time>2024-01-12T10:31:30.364Z</time>
      </trkpt>
      <trkpt lat="43.6863" lon="6.18694">
        <ele>840.2</ele>
        <time>2024-01-12T10:32:04.653Z</time>
      </trkpt>
      <trkpt lat="43.6863" lon="6.18701">
        <ele>841.7</ele>
        <time>2024-01-12T10:32:29.668Z</time>
      </trkpt>
      <trkpt lat="43.68629" lon="6.18707">
        <ele>843.1</ele>
        <time>2024-01-12T10:32:53.399Z</time>
      </trkpt>
      <trkpt lat="43.68628" lon="6.18714">
        <ele>844.7</ele>
        <time>2024-01-12T10:33:20.406Z</time>
      </trkpt>
      <trkpt lat="43.68627" lon="6.18721">
        <ele>846.4</ele>
        <time>2024-01-12T10:33:49.685Z</time>
      </trkpt>
      <trkpt lat="43.68628" lon="6.18728">
        <ele>848.1</ele>
        <time>2024-01-12T10:34:18.964Z</time>
      </trkpt>
      <trkpt lat="43.68629" lon="6.18735">
        <ele>849.8</ele>
        <time>2024-01-12T10:34:48.243Z</time>
      </trkpt>
      <trkpt lat="43.68632" lon="6.18741">
        <ele>850.9</ele>
        <time>2024-01-12T10:35:06.455Z</time>
      </trkpt>
      <trkpt lat="43.68634" lon="6.18746">
        <ele>851.8</ele>
        <time>2024-01-12T10:35:21.256Z</time>
      </trkpt>
      <trkpt lat="43.68636" lon="6.18754">
        <ele>853.5</ele>
        <time>2024-01-12T10:35:49.249Z</time>
      </trkpt>
      <trkpt lat="43.68637" lon="6.18762">
        <ele>855.4</ele>
        <time>2024-01-12T10:36:21.764Z</time>
      </trkpt>
      <trkpt lat="43.6864" lon="6.18767">
        <ele>856.5</ele>
        <time>2024-01-12T10:36:39.732Z</time>
      </trkpt>
      <trkpt lat="43.68643" lon="6.18772">
        <ele>858.3</ele>
        <time>2024-01-12T10:37:12.851Z</time>
      </trkpt>
      <trkpt lat="43.68646" lon="6.18783">
        <ele>861.7</ele>
        <time>2024-01-12T10:38:16.719Z</time>
      </trkpt>
      <trkpt lat="43.68643" lon="6.1879">
        <ele>863.2</ele>
        <time>2024-01-12T10:38:41.211Z</time>
      </trkpt>
      <trkpt lat="43.6864" lon="6.18796">
        <ele>864.4</ele>
        <time>2024-01-12T10:39:00.851Z</time>
      </trkpt>
      <trkpt lat="43.68637" lon="6.18801">
        <ele>866</ele>
        <time>2024-01-12T10:39:28.763Z</time>
      </trkpt>
      <trkpt lat="43.68634" lon="6.18806">
        <ele>868</ele>
        <time>2024-01-12T10:40:07.411Z</time>
      </trkpt>
      <trkpt lat="43.68639" lon="6.18811">
        <ele>868.6</ele>
        <time>2024-01-12T10:40:21.499Z</time>
      </trkpt>
      <trkpt lat="43.68644" lon="6.18815">
        <ele>870.5</ele>
        <time>2024-01-12T10:40:54.202Z</time>
      </trkpt>
      <trkpt lat="43.68643" lon="6.18821">
        <ele>872</ele>
        <time>2024-01-12T10:41:20.256Z</time>
      </trkpt>
      <trkpt lat="43.68641" lon="6.18827">
        <ele>873.5</ele>
        <time>2024-01-12T10:41:45.671Z</time>
      </trkpt>
      <trkpt lat="43.6864" lon="6.18839">
        <ele>876.8</ele>
        <time>2024-01-12T10:42:45.980Z</time>
      </trkpt>
      <trkpt lat="43.68642" lon="6.18845">
        <ele>878.8</ele>
        <time>2024-01-12T10:43:24.352Z</time>
      </trkpt>
      <trkpt lat="43.68644" lon="6.18851">
        <ele>880.7</ele>
        <time>2024-01-12T10:43:59.947Z</time>
      </trkpt>
      <trkpt lat="43.68641" lon="6.18862">
        <ele>883.5</ele>
        <time>2024-01-12T10:44:48.165Z</time>
      </trkpt>
      <trkpt lat="43.6864" lon="6.18869">
        <ele>885.4</ele>
        <time>2024-01-12T10:45:22.468Z</time>
      </trkpt>
      <trkpt lat="43.68639" lon="6.18876">
        <ele>887.3</ele>
        <time>2024-01-12T10:45:56.771Z</time>
      </trkpt>
      <trkpt lat="43.6864" lon="6.18888">
        <ele>890.8</ele>
        <time>2024-01-12T10:47:02.577Z</time>
      </trkpt>
      <trkpt lat="43.6864" lon="6.18894">
        <ele>892.2</ele>
        <time>2024-01-12T10:47:26.511Z</time>
      </trkpt>
      <trkpt lat="43.68639" lon="6.18895">
        <ele>892.3</ele>
        <time>2024-01-12T10:47:29.176Z</time>
      </trkpt>
      <trkpt lat="43.68637" lon="6.189">
        <ele>893.5</ele>
        <time>2024-01-12T10:47:49.097Z</time>
      </trkpt>
      <trkpt lat="43.68635" lon="6.18907">
        <ele>895.1</ele>
        <time>2024-01-12T10:48:15.731Z</time>
      </trkpt>
      <trkpt lat="43.68632" lon="6.18914">
        <ele>896.7</ele>
        <time>2024-01-12T10:48:42.000Z</time>
      </trkpt>
      <trkpt lat="43.68631" lon="6.18926">
        <ele>899.1</ele>
        <time>2024-01-12T10:49:21.459Z</time>
      </trkpt>
      <trkpt lat="43.68633" lon="6.18932">
        <ele>900.3</ele>
        <time>2024-01-12T10:49:41.041Z</time>
      </trkpt>
      <trkpt lat="43.68634" lon="6.18938">
        <ele>901.5</ele>
        <time>2024-01-12T10:50:00.722Z</time>
      </trkpt>
      <trkpt lat="43.68636" lon="6.18944">
        <ele>902.8</ele>
        <time>2024-01-12T10:50:22.068Z</time>
      </trkpt>
      <trkpt lat="43.68637" lon="6.1895">
        <ele>903.9</ele>
        <time>2024-01-12T10:50:40.013Z</time>
      </trkpt>
      <trkpt lat="43.68636" lon="6.18958">
        <ele>905.3</ele>
        <time>2024-01-12T10:51:02.863Z</time>
      </trkpt>
      <trkpt lat="43.68635" lon="6.18965">
        <ele>906.5</ele>
        <time>2024-01-12T10:51:22.471Z</time>
      </trkpt>
      <trkpt lat="43.68637" lon="6.18972">
        <ele>907.8</ele>
        <time>2024-01-12T10:51:43.688Z</time>
      </trkpt>
      <trkpt lat="43.68638" lon="6.18979">
        <ele>908.7</ele>
        <time>2024-01-12T10:51:59.294Z</time>
      </trkpt>
      <trkpt lat="43.6864" lon="6.18985">
        <ele>909.4</ele>
        <time>2024-01-12T10:52:12.308Z</time>
      </trkpt>
      <trkpt lat="43.68642" lon="6.18991">
        <ele>910.1</ele>
        <time>2024-01-12T10:52:25.322Z</time>
      </trkpt>
      <trkpt lat="43.68641" lon="6.18999">
        <ele>911</ele>
        <time>2024-01-12T10:52:41.721Z</time>
      </trkpt>
      <trkpt lat="43.68639" lon="6.19007">
        <ele>911.5</ele>
        <time>2024-01-12T10:52:54.967Z</time>
      </trkpt>
      <trkpt lat="43.68639" lon="6.19015">
        <ele>912.1</ele>
        <time>2024-01-12T10:53:08.476Z</time>
      </trkpt>
      <trkpt lat="43.68639" lon="6.19022">
        <ele>912.6</ele>
        <time>2024-01-12T10:53:20.095Z</time>
      </trkpt>
      <trkpt lat="43.68641" lon="6.19029">
        <ele>913.2</ele>
        <time>2024-01-12T10:53:33.100Z</time>
      </trkpt>
      <trkpt lat="43.68642" lon="6.19036">
        <ele>913.7</ele>
        <time>2024-01-12T10:53:44.867Z</time>
      </trkpt>
      <trkpt lat="43.68646" lon="6.19042">
        <ele>914.1</ele>
        <time>2024-01-12T10:53:57.051Z</time>
      </trkpt>
      <trkpt lat="43.6865" lon="6.19048">
        <ele>914.6</ele>
        <time>2024-01-12T10:54:09.955Z</time>
      </trkpt>
      <trkpt lat="43.68652" lon="6.19055">
        <ele>915</ele>
        <time>2024-01-12T10:54:21.410Z</time>
      </trkpt>
      <trkpt lat="43.68654" lon="6.19062">
        <ele>914.9</ele>
        <time>2024-01-12T10:54:29.958Z</time>
      </trkpt>
      <trkpt lat="43.6866" lon="6.19071">
        <ele>914.6</ele>
        <time>2024-01-12T10:54:43.230Z</time>
      </trkpt>
      <trkpt lat="43.68665" lon="6.1908">
        <ele>914.2</ele>
        <time>2024-01-12T10:54:55.156Z</time>
      </trkpt>
      <trkpt lat="43.68663" lon="6.19079">
        <ele>914.3</ele>
        <time>2024-01-12T10:54:59.256Z</time>
      </trkpt>
      <trkpt lat="43.68662" lon="6.19082">
        <ele>914.2</ele>
        <time>2024-01-12T10:55:02.755Z</time>
      </trkpt>
      <trkpt lat="43.6866" lon="6.19085">
        <ele>914.2</ele>
        <time>2024-01-12T10:55:07.655Z</time>
      </trkpt>
      <trkpt lat="43.68658" lon="6.19086">
        <ele>914.2</ele>
        <time>2024-01-12T10:55:11.187Z</time>
      </trkpt>
      <trkpt lat="43.68656" lon="6.19087">
        <ele>914.3</ele>
        <time>2024-01-12T10:55:15.286Z</time>
      </trkpt>
      <trkpt lat="43.68653" lon="6.19089">
        <ele>914.4</ele>
        <time>2024-01-12T10:55:21.364Z</time>
      </trkpt>
      <trkpt lat="43.68651" lon="6.19092">
        <ele>914.4</ele>
        <time>2024-01-12T10:55:26.264Z</time>
      </trkpt>
      <trkpt lat="43.68649" lon="6.19094">
        <ele>914.5</ele>
        <time>2024-01-12T10:55:30.922Z</time>
      </trkpt>
      <trkpt lat="43.68646" lon="6.19095">
        <ele>914.6</ele>
        <time>2024-01-12T10:55:36.596Z</time>
      </trkpt>
      <trkpt lat="43.68643" lon="6.19097">
        <ele>914.8</ele>
        <time>2024-01-12T10:55:43.297Z</time>
      </trkpt>
      <trkpt lat="43.68641" lon="6.19098">
        <ele>914.9</ele>
        <time>2024-01-12T10:55:47.397Z</time>
      </trkpt>
      <trkpt lat="43.68638" lon="6.191">
        <ele>915.1</ele>
        <time>2024-01-12T10:55:54.098Z</time>
      </trkpt>
      <trkpt lat="43.68635" lon="6.19102">
        <ele>915.2</ele>
        <time>2024-01-12T10:56:00.175Z</time>
      </trkpt>
      <trkpt lat="43.68633" lon="6.19105">
        <ele>915.4</ele>
        <time>2024-01-12T10:56:06.267Z</time>
      </trkpt>
      <trkpt lat="43.68632" lon="6.19107">
        <ele>915.5</ele>
        <time>2024-01-12T10:56:09.768Z</time>
      </trkpt>
      <trkpt lat="43.6863" lon="6.1911">
        <ele>915.6</ele>
        <time>2024-01-12T10:56:15.220Z</time>
      </trkpt>
      <trkpt lat="43.68628" lon="6.19113">
        <ele>915.8</ele>
        <time>2024-01-12T10:56:21.312Z</time>
      </trkpt>
      <trkpt lat="43.68626" lon="6.19116">
        <ele>915.9</ele>
        <time>2024-01-12T10:56:26.763Z</time>
      </trkpt>
      <trkpt lat="43.68624" lon="6.19119">
        <ele>916.1</ele>
        <time>2024-01-12T10:56:32.855Z</time>
      </trkpt>
      <trkpt lat="43.68622" lon="6.19122">
        <ele>916.2</ele>
        <time>2024-01-12T10:56:38.306Z</time>
      </trkpt>
      <trkpt lat="43.6862" lon="6.19124">
        <ele>916.4</ele>
        <time>2024-01-12T10:56:43.636Z</time>
      </trkpt>
      <trkpt lat="43.68618" lon="6.19127">
        <ele>916.5</ele>
        <time>2024-01-12T10:56:49.087Z</time>
      </trkpt>
      <trkpt lat="43.68618" lon="6.19129">
        <ele>916.5</ele>
        <time>2024-01-12T10:56:51.489Z</time>
      </trkpt>
      <trkpt lat="43.68618" lon="6.19132">
        <ele>916.5</ele>
        <time>2024-01-12T10:56:55.091Z</time>
      </trkpt>
      <trkpt lat="43.68618" lon="6.19135">
        <ele>916.5</ele>
        <time>2024-01-12T10:56:58.694Z</time>
      </trkpt>
      <trkpt lat="43.68619" lon="6.1914">
        <ele>916.5</ele>
        <time>2024-01-12T10:57:04.924Z</time>
      </trkpt>
      <trkpt lat="43.6862" lon="6.19143">
        <ele>916.5</ele>
        <time>2024-01-12T10:57:08.891Z</time>
      </trkpt>
      <trkpt lat="43.6862" lon="6.19146">
        <ele>916.6</ele>
        <time>2024-01-12T10:57:13.061Z</time>
      </trkpt>
      <trkpt lat="43.68619" lon="6.1915">
        <ele>916.8</ele>
        <time>2024-01-12T10:57:19.328Z</time>
      </trkpt>
      <trkpt lat="43.68619" lon="6.19153">
        <ele>916.9</ele>
        <time>2024-01-12T10:57:23.498Z</time>
      </trkpt>
      <trkpt lat="43.6862" lon="6.19156">
        <ele>917</ele>
        <time>2024-01-12T10:57:28.026Z</time>
      </trkpt>
      <trkpt lat="43.6862" lon="6.1916">
        <ele>917.1</ele>
        <time>2024-01-12T10:57:33.381Z</time>
      </trkpt>
      <trkpt lat="43.68619" lon="6.19167">
        <ele>917.4</ele>
        <time>2024-01-12T10:57:43.698Z</time>
      </trkpt>
      <trkpt lat="43.68618" lon="6.19171">
        <ele>917.5</ele>
        <time>2024-01-12T10:57:49.330Z</time>
      </trkpt>
      <trkpt lat="43.68616" lon="6.19174">
        <ele>917.6</ele>
        <time>2024-01-12T10:57:54.781Z</time>
      </trkpt>
      <trkpt lat="43.68614" lon="6.19176">
        <ele>917.8</ele>
        <time>2024-01-12T10:58:00.111Z</time>
      </trkpt>
      <trkpt lat="43.68613" lon="6.19181">
        <ele>917.8</ele>
        <time>2024-01-12T10:58:06.341Z</time>
      </trkpt>
      <trkpt lat="43.68611" lon="6.19182">
        <ele>918</ele>
        <time>2024-01-12T10:58:11.143Z</time>
      </trkpt>
      <trkpt lat="43.68609" lon="6.19183">
        <ele>918.2</ele>
        <time>2024-01-12T10:58:15.944Z</time>
      </trkpt>
      <trkpt lat="43.68609" lon="6.19186">
        <ele>918.2</ele>
        <time>2024-01-12T10:58:19.547Z</time>
      </trkpt>
      <trkpt lat="43.68609" lon="6.1919">
        <ele>918.2</ele>
        <time>2024-01-12T10:58:24.351Z</time>
      </trkpt>
      <trkpt lat="43.68608" lon="6.19193">
        <ele>918.2</ele>
        <time>2024-01-12T10:58:28.318Z</time>
      </trkpt>
      <trkpt lat="43.68606" lon="6.19196">
        <ele>918.3</ele>
        <time>2024-01-12T10:58:33.769Z</time>
      </trkpt>
      <trkpt lat="43.68604" lon="6.19199">
        <ele>918.4</ele>
        <time>2024-01-12T10:58:39.220Z</time>
      </trkpt>
      <trkpt lat="43.68603" lon="6.19202">
        <ele>918.4</ele>
        <time>2024-01-12T10:58:43.188Z</time>
      </trkpt>
      <trkpt lat="43.68601" lon="6.19204">
        <ele>918.5</ele>
        <time>2024-01-12T10:58:47.846Z</time>
      </trkpt>
      <trkpt lat="43.68599" lon="6.19207">
        <ele>918.6</ele>
        <time>2024-01-12T10:58:53.297Z</time>
      </trkpt>
      <trkpt lat="43.68598" lon="6.19209">
        <ele>918.7</ele>
        <time>2024-01-12T10:58:56.798Z</time>
      </trkpt>
      <trkpt lat="43.68597" lon="6.19211">
        <ele>918.7</ele>
        <time>2024-01-12T10:58:59.718Z</time>
      </trkpt>
      <trkpt lat="43.68594" lon="6.19214">
        <ele>919</ele>
        <time>2024-01-12T10:59:07.712Z</time>
      </trkpt>
      <trkpt lat="43.68592" lon="6.19215">
        <ele>919.1</ele>
        <time>2024-01-12T10:59:11.812Z</time>
      </trkpt>
      <trkpt lat="43.6859" lon="6.19214">
        <ele>919.4</ele>
        <time>2024-01-12T10:59:17.490Z</time>
      </trkpt>
      <trkpt lat="43.68587" lon="6.19213">
        <ele>919.6</ele>
        <time>2024-01-12T10:59:23.798Z</time>
      </trkpt>
      <trkpt lat="43.68585" lon="6.19213">
        <ele>919.8</ele>
        <time>2024-01-12T10:59:28.408Z</time>
      </trkpt>
      <trkpt lat="43.68582" lon="6.19214">
        <ele>920.1</ele>
        <time>2024-01-12T10:59:35.453Z</time>
      </trkpt>
      <trkpt lat="43.6858" lon="6.19216">
        <ele>920.2</ele>
        <time>2024-01-12T10:59:40.111Z</time>
      </trkpt>
      <trkpt lat="43.6858" lon="6.1922">
        <ele>920.2</ele>
        <time>2024-01-12T10:59:44.915Z</time>
      </trkpt>
      <trkpt lat="43.68578" lon="6.19223">
        <ele>920.3</ele>
        <time>2024-01-12T10:59:50.366Z</time>
      </trkpt>
      <trkpt lat="43.68575" lon="6.19224">
        <ele>920.5</ele>
        <time>2024-01-12T10:59:56.675Z</time>
      </trkpt>
      <trkpt lat="43.68573" lon="6.19227">
        <ele>920.5</ele>
        <time>2024-01-12T11:00:01.575Z</time>
      </trkpt>
      <trkpt lat="43.68571" lon="6.19229">
        <ele>920.5</ele>
        <time>2024-01-12T11:00:05.674Z</time>
      </trkpt>
      <trkpt lat="43.6857" lon="6.19232">
        <ele>920.4</ele>
        <time>2024-01-12T11:00:09.173Z</time>
      </trkpt>
      <trkpt lat="43.68568" lon="6.19234">
        <ele>920.5</ele>
        <time>2024-01-12T11:00:13.831Z</time>
      </trkpt>
      <trkpt lat="43.68566" lon="6.19236">
        <ele>920.6</ele>
        <time>2024-01-12T11:00:18.489Z</time>
      </trkpt>
      <trkpt lat="43.68564" lon="6.19238">
        <ele>920.7</ele>
        <time>2024-01-12T11:00:23.147Z</time>
      </trkpt>
      <trkpt lat="43.68562" lon="6.1924">
        <ele>920.7</ele>
        <time>2024-01-12T11:00:27.246Z</time>
      </trkpt>
      <trkpt lat="43.6856" lon="6.19243">
        <ele>920.8</ele>
        <time>2024-01-12T11:00:32.698Z</time>
      </trkpt>
      <trkpt lat="43.68558" lon="6.19245">
        <ele>920.9</ele>
        <time>2024-01-12T11:00:37.356Z</time>
      </trkpt>
      <trkpt lat="43.68556" lon="6.19248">
        <ele>921</ele>
        <time>2024-01-12T11:00:42.807Z</time>
      </trkpt>
      <trkpt lat="43.68555" lon="6.19252">
        <ele>920.9</ele>
        <time>2024-01-12T11:00:47.413Z</time>
      </trkpt>
      <trkpt lat="43.68554" lon="6.19255">
        <ele>920.8</ele>
        <time>2024-01-12T11:00:50.911Z</time>
      </trkpt>
      <trkpt lat="43.68552" lon="6.19259">
        <ele>920.7</ele>
        <time>2024-01-12T11:00:56.270Z</time>
      </trkpt>
      <trkpt lat="43.68551" lon="6.19262">
        <ele>920.6</ele>
        <time>2024-01-12T11:00:59.769Z</time>
      </trkpt>
      <trkpt lat="43.68549" lon="6.19265">
        <ele>920.6</ele>
        <time>2024-01-12T11:01:04.669Z</time>
      </trkpt>
      <trkpt lat="43.68546" lon="6.19268">
        <ele>920.7</ele>
        <time>2024-01-12T11:01:11.360Z</time>
      </trkpt>
      <trkpt lat="43.68544" lon="6.1927">
        <ele>920.8</ele>
        <time>2024-01-12T11:01:16.019Z</time>
      </trkpt>
      <trkpt lat="43.68542" lon="6.19273">
        <ele>920.8</ele>
        <time>2024-01-12T11:01:20.919Z</time>
      </trkpt>
      <trkpt lat="43.6854" lon="6.19276">
        <ele>920.8</ele>
        <time>2024-01-12T11:01:25.819Z</time>
      </trkpt>
      <trkpt lat="43.68538" lon="6.19278">
        <ele>920.9</ele>
        <time>2024-01-12T11:01:30.477Z</time>
      </trkpt>
      <trkpt lat="43.68536" lon="6.1928">
        <ele>920.9</ele>
        <time>2024-01-12T11:01:34.576Z</time>
      </trkpt>
      <trkpt lat="43.68534" lon="6.19281">
        <ele>921</ele>
        <time>2024-01-12T11:01:38.676Z</time>
      </trkpt>
      <trkpt lat="43.68533" lon="6.19282">
        <ele>921</ele>
        <time>2024-01-12T11:01:40.725Z</time>
      </trkpt>
      <trkpt lat="43.68531" lon="6.19284">
        <ele>921</ele>
        <time>2024-01-12T11:01:44.824Z</time>
      </trkpt>
      <trkpt lat="43.68529" lon="6.19287">
        <ele>920.9</ele>
        <time>2024-01-12T11:01:49.248Z</time>
      </trkpt>
      <trkpt lat="43.68527" lon="6.19288">
        <ele>921</ele>
        <time>2024-01-12T11:01:53.348Z</time>
      </trkpt>
      <trkpt lat="43.68524" lon="6.1929">
        <ele>921.1</ele>
        <time>2024-01-12T11:01:59.425Z</time>
      </trkpt>
      <trkpt lat="43.68521" lon="6.19292">
        <ele>921.3</ele>
        <time>2024-01-12T11:02:06.126Z</time>
      </trkpt>
      <trkpt lat="43.68519" lon="6.19293">
        <ele>921.5</ele>
        <time>2024-01-12T11:02:10.928Z</time>
      </trkpt>
      <trkpt lat="43.68516" lon="6.19296">
        <ele>921.6</ele>
        <time>2024-01-12T11:02:17.619Z</time>
      </trkpt>
      <trkpt lat="43.68516" lon="6.19298">
        <ele>921.4</ele>
        <time>2024-01-12T11:02:19.721Z</time>
      </trkpt>
      <trkpt lat="43.68513" lon="6.193">
        <ele>921.6</ele>
        <time>2024-01-12T11:02:26.422Z</time>
      </trkpt>
      <trkpt lat="43.68511" lon="6.19301">
        <ele>921.8</ele>
        <time>2024-01-12T11:02:31.224Z</time>
      </trkpt>
      <trkpt lat="43.68508" lon="6.19303">
        <ele>922.1</ele>
        <time>2024-01-12T11:02:38.642Z</time>
      </trkpt>
      <trkpt lat="43.68506" lon="6.19305">
        <ele>922.2</ele>
        <time>2024-01-12T11:02:43.300Z</time>
      </trkpt>
      <trkpt lat="43.68503" lon="6.19307">
        <ele>922.4</ele>
        <time>2024-01-12T11:02:50.001Z</time>
      </trkpt>
      <trkpt lat="43.68501" lon="6.19309">
        <ele>922.5</ele>
        <time>2024-01-12T11:02:54.660Z</time>
      </trkpt>
      <trkpt lat="43.68499" lon="6.19311">
        <ele>922.5</ele>
        <time>2024-01-12T11:02:58.758Z</time>
      </trkpt>
      <trkpt lat="43.68496" lon="6.19313">
        <ele>922.7</ele>
        <time>2024-01-12T11:03:05.460Z</time>
      </trkpt>
      <trkpt lat="43.68494" lon="6.19315">
        <ele>922.7</ele>
        <time>2024-01-12T11:03:09.559Z</time>
      </trkpt>
      <trkpt lat="43.68491" lon="6.19316">
        <ele>923</ele>
        <time>2024-01-12T11:03:16.603Z</time>
      </trkpt>
      <trkpt lat="43.68488" lon="6.19316">
        <ele>923.3</ele>
        <time>2024-01-12T11:03:23.519Z</time>
      </trkpt>
      <trkpt lat="43.68485" lon="6.19316">
        <ele>923.7</ele>
        <time>2024-01-12T11:03:31.306Z</time>
      </trkpt>
      <trkpt lat="43.68482" lon="6.19317">
        <ele>924</ele>
        <time>2024-01-12T11:03:38.350Z</time>
      </trkpt>
      <trkpt lat="43.68479" lon="6.19315">
        <ele>924.5</ele>
        <time>2024-01-12T11:03:47.544Z</time>
      </trkpt>
      <trkpt lat="43.68477" lon="6.19316">
        <ele>924.7</ele>
        <time>2024-01-12T11:03:52.346Z</time>
      </trkpt>
      <trkpt lat="43.68474" lon="6.19317">
        <ele>925</ele>
        <time>2024-01-12T11:03:59.391Z</time>
      </trkpt>
      <trkpt lat="43.68472" lon="6.19318">
        <ele>925.1</ele>
        <time>2024-01-12T11:04:03.491Z</time>
      </trkpt>
      <trkpt lat="43.6847" lon="6.19318">
        <ele>925.4</ele>
        <time>2024-01-12T11:04:09.009Z</time>
      </trkpt>
      <trkpt lat="43.68468" lon="6.19318">
        <ele>925.6</ele>
        <time>2024-01-12T11:04:13.620Z</time>
      </trkpt>
      <trkpt lat="43.68466" lon="6.19317">
        <ele>925.9</ele>
        <time>2024-01-12T11:04:19.298Z</time>
      </trkpt>
      <trkpt lat="43.68464" lon="6.19319">
        <ele>926.1</ele>
        <time>2024-01-12T11:04:24.627Z</time>
      </trkpt>
      <trkpt lat="43.68462" lon="6.1932">
        <ele>926.3</ele>
        <time>2024-01-12T11:04:29.429Z</time>
      </trkpt>
      <trkpt lat="43.6846" lon="6.19321">
        <ele>926.5</ele>
        <time>2024-01-12T11:04:34.231Z</time>
      </trkpt>
      <trkpt lat="43.68457" lon="6.19322">
        <ele>926.8</ele>
        <time>2024-01-12T11:04:41.276Z</time>
      </trkpt>
      <trkpt lat="43.68455" lon="6.19324">
        <ele>926.9</ele>
        <time>2024-01-12T11:04:45.934Z</time>
      </trkpt>
      <trkpt lat="43.68452" lon="6.19326">
        <ele>927.2</ele>
        <time>2024-01-12T11:04:53.351Z</time>
      </trkpt>
      <trkpt lat="43.68449" lon="6.19327">
        <ele>927.6</ele>
        <time>2024-01-12T11:05:01.254Z</time>
      </trkpt>
      <trkpt lat="43.68447" lon="6.19328">
        <ele>927.8</ele>
        <time>2024-01-12T11:05:06.056Z</time>
      </trkpt>
      <trkpt lat="43.68444" lon="6.19329">
        <ele>928.2</ele>
        <time>2024-01-12T11:05:13.959Z</time>
      </trkpt>
      <trkpt lat="43.68441" lon="6.1933">
        <ele>928.5</ele>
        <time>2024-01-12T11:05:21.004Z</time>
      </trkpt>
      <trkpt lat="43.68438" lon="6.19332">
        <ele>928.7</ele>
        <time>2024-01-12T11:05:27.705Z</time>
      </trkpt>
      <trkpt lat="43.68436" lon="6.19334">
        <ele>928.9</ele>
        <time>2024-01-12T11:05:33.034Z</time>
      </trkpt>
      <trkpt lat="43.68434" lon="6.19337">
        <ele>929</ele>
        <time>2024-01-12T11:05:38.486Z</time>
      </trkpt>
      <trkpt lat="43.68432" lon="6.19339">
        <ele>929.2</ele>
        <time>2024-01-12T11:05:43.815Z</time>
      </trkpt>
      <trkpt lat="43.6843" lon="6.19342">
        <ele>929.4</ele>
        <time>2024-01-12T11:05:49.907Z</time>
      </trkpt>
      <trkpt lat="43.68428" lon="6.19345">
        <ele>929.6</ele>
        <time>2024-01-12T11:05:55.999Z</time>
      </trkpt>
      <trkpt lat="43.68426" lon="6.19348">
        <ele>929.8</ele>
        <time>2024-01-12T11:06:02.092Z</time>
      </trkpt>
      <trkpt lat="43.68424" lon="6.1935">
        <ele>930</ele>
        <time>2024-01-12T11:06:07.421Z</time>
      </trkpt>
      <trkpt lat="43.68422" lon="6.19353">
        <ele>930.3</ele>
        <time>2024-01-12T11:06:14.262Z</time>
      </trkpt>
      <trkpt lat="43.6842" lon="6.19356">
        <ele>930.5</ele>
        <time>2024-01-12T11:06:20.355Z</time>
      </trkpt>
      <trkpt lat="43.68418" lon="6.19359">
        <ele>930.8</ele>
        <time>2024-01-12T11:06:27.196Z</time>
      </trkpt>
      <trkpt lat="43.68416" lon="6.19361">
        <ele>931.1</ele>
        <time>2024-01-12T11:06:33.336Z</time>
      </trkpt>
      <trkpt lat="43.68413" lon="6.19362">
        <ele>931.4</ele>
        <time>2024-01-12T11:06:40.381Z</time>
      </trkpt>
      <trkpt lat="43.68411" lon="6.19363">
        <ele>931.6</ele>
        <time>2024-01-12T11:06:45.183Z</time>
      </trkpt>
      <trkpt lat="43.68408" lon="6.19362">
        <ele>931.9</ele>
        <time>2024-01-12T11:06:52.228Z</time>
      </trkpt>
      <trkpt lat="43.68405" lon="6.19361">
        <ele>932.3</ele>
        <time>2024-01-12T11:07:00.130Z</time>
      </trkpt>
      <trkpt lat="43.68402" lon="6.19362">
        <ele>932.6</ele>
        <time>2024-01-12T11:07:07.175Z</time>
      </trkpt>
      <trkpt lat="43.684" lon="6.19363">
        <ele>932.8</ele>
        <time>2024-01-12T11:07:11.977Z</time>
      </trkpt>
      <trkpt lat="43.68397" lon="6.19365">
        <ele>933.2</ele>
        <time>2024-01-12T11:07:20.219Z</time>
      </trkpt>
      <trkpt lat="43.68395" lon="6.19365">
        <ele>933.4</ele>
        <time>2024-01-12T11:07:24.829Z</time>
      </trkpt>
      <trkpt lat="43.68392" lon="6.19367">
        <ele>933.8</ele>
        <time>2024-01-12T11:07:33.071Z</time>
      </trkpt>
      <trkpt lat="43.6839" lon="6.1937">
        <ele>934.2</ele>
        <time>2024-01-12T11:07:40.792Z</time>
      </trkpt>
      <trkpt lat="43.68387" lon="6.19373">
        <ele>934.6</ele>
        <time>2024-01-12T11:07:49.570Z</time>
      </trkpt>
      <trkpt lat="43.68385" lon="6.19374">
        <ele>934.8</ele>
        <time>2024-01-12T11:07:54.372Z</time>
      </trkpt>
      <trkpt lat="43.68384" lon="6.19376">
        <ele>935</ele>
        <time>2024-01-12T11:07:58.626Z</time>
      </trkpt>
      <trkpt lat="43.68383" lon="6.19377">
        <ele>935.1</ele>
        <time>2024-01-12T11:08:01.291Z</time>
      </trkpt>
      <trkpt lat="43.6838" lon="6.19381">
        <ele>935.6</ele>
        <time>2024-01-12T11:08:11.600Z</time>
      </trkpt>
      <trkpt lat="43.68377" lon="6.19382">
        <ele>935.9</ele>
        <time>2024-01-12T11:08:18.645Z</time>
      </trkpt>
      <trkpt lat="43.68374" lon="6.19383">
        <ele>936.3</ele>
        <time>2024-01-12T11:08:26.547Z</time>
      </trkpt>
      <trkpt lat="43.68371" lon="6.19384">
        <ele>936.6</ele>
        <time>2024-01-12T11:08:33.592Z</time>
      </trkpt>
      <trkpt lat="43.68368" lon="6.19385">
        <ele>937</ele>
        <time>2024-01-12T11:08:41.495Z</time>
      </trkpt>
      <trkpt lat="43.68366" lon="6.19387">
        <ele>937.3</ele>
        <time>2024-01-12T11:08:47.635Z</time>
      </trkpt>
      <trkpt lat="43.68363" lon="6.19388">
        <ele>937.7</ele>
        <time>2024-01-12T11:08:55.537Z</time>
      </trkpt>
      <trkpt lat="43.68361" lon="6.19391">
        <ele>938</ele>
        <time>2024-01-12T11:09:02.379Z</time>
      </trkpt>
      <trkpt lat="43.68359" lon="6.19394">
        <ele>938.1</ele>
        <time>2024-01-12T11:09:07.830Z</time>
      </trkpt>
      <trkpt lat="43.68357" lon="6.19397">
        <ele>938.2</ele>
        <time>2024-01-12T11:09:13.281Z</time>
      </trkpt>
      <trkpt lat="43.68355" lon="6.19399">
        <ele>938.4</ele>
        <time>2024-01-12T11:09:18.611Z</time>
      </trkpt>
      <trkpt lat="43.68353" lon="6.19401">
        <ele>938.5</ele>
        <time>2024-01-12T11:09:23.269Z</time>
      </trkpt>
      <trkpt lat="43.68351" lon="6.19404">
        <ele>938.8</ele>
        <time>2024-01-12T11:09:30.111Z</time>
      </trkpt>
      <trkpt lat="43.68348" lon="6.19406">
        <ele>939.1</ele>
        <time>2024-01-12T11:09:37.528Z</time>
      </trkpt>
      <trkpt lat="43.68346" lon="6.19408">
        <ele>939.3</ele>
        <time>2024-01-12T11:09:42.857Z</time>
      </trkpt>
      <trkpt lat="43.68343" lon="6.1941">
        <ele>939.6</ele>
        <time>2024-01-12T11:09:50.275Z</time>
      </trkpt>
      <trkpt lat="43.68341" lon="6.19411">
        <ele>939.9</ele>
        <time>2024-01-12T11:09:55.953Z</time>
      </trkpt>
      <trkpt lat="43.68339" lon="6.19413">
        <ele>940.2</ele>
        <time>2024-01-12T11:10:02.093Z</time>
      </trkpt>
      <trkpt lat="43.68337" lon="6.19415">
        <ele>940.5</ele>
        <time>2024-01-12T11:10:08.232Z</time>
      </trkpt>
      <trkpt lat="43.68335" lon="6.19417">
        <ele>940.8</ele>
        <time>2024-01-12T11:10:14.372Z</time>
      </trkpt>
      <trkpt lat="43.68332" lon="6.19419">
        <ele>941.1</ele>
        <time>2024-01-12T11:10:21.790Z</time>
      </trkpt>
      <trkpt lat="43.68332" lon="6.19423">
        <ele>941.3</ele>
        <time>2024-01-12T11:10:27.789Z</time>
      </trkpt>
      <trkpt lat="43.68329" lon="6.19425">
        <ele>941.5</ele>
        <time>2024-01-12T11:10:34.491Z</time>
      </trkpt>
      <trkpt lat="43.68327" lon="6.19427">
        <ele>941.7</ele>
        <time>2024-01-12T11:10:39.820Z</time>
      </trkpt>
      <trkpt lat="43.68324" lon="6.1943">
        <ele>942</ele>
        <time>2024-01-12T11:10:47.814Z</time>
      </trkpt>
      <trkpt lat="43.68322" lon="6.19432">
        <ele>942.2</ele>
        <time>2024-01-12T11:10:53.144Z</time>
      </trkpt>
      <trkpt lat="43.6832" lon="6.19435">
        <ele>942.5</ele>
        <time>2024-01-12T11:10:59.985Z</time>
      </trkpt>
      <trkpt lat="43.68318" lon="6.19438">
        <ele>942.7</ele>
        <time>2024-01-12T11:11:06.077Z</time>
      </trkpt>
      <trkpt lat="43.68316" lon="6.1944">
        <ele>943</ele>
        <time>2024-01-12T11:11:12.217Z</time>
      </trkpt>
      <trkpt lat="43.68314" lon="6.19442">
        <ele>943.2</ele>
        <time>2024-01-12T11:11:17.546Z</time>
      </trkpt>
      <trkpt lat="43.68311" lon="6.19446">
        <ele>943.7</ele>
        <time>2024-01-12T11:11:27.855Z</time>
      </trkpt>
      <trkpt lat="43.68311" lon="6.1945">
        <ele>943.9</ele>
        <time>2024-01-12T11:11:33.855Z</time>
      </trkpt>
      <trkpt lat="43.6831" lon="6.19454">
        <ele>944.3</ele>
        <time>2024-01-12T11:11:41.723Z</time>
      </trkpt>
      <trkpt lat="43.68308" lon="6.19457">
        <ele>944.6</ele>
        <time>2024-01-12T11:11:48.565Z</time>
      </trkpt>
      <trkpt lat="43.68307" lon="6.19461">
        <ele>945</ele>
        <time>2024-01-12T11:11:56.433Z</time>
      </trkpt>
      <trkpt lat="43.68306" lon="6.19464">
        <ele>945.4</ele>
        <time>2024-01-12T11:12:03.470Z</time>
      </trkpt>
      <trkpt lat="43.68304" lon="6.19469">
        <ele>945.8</ele>
        <time>2024-01-12T11:12:12.889Z</time>
      </trkpt>
      <trkpt lat="43.68303" lon="6.19472">
        <ele>946</ele>
        <time>2024-01-12T11:12:18.095Z</time>
      </trkpt>
      <trkpt lat="43.68301" lon="6.19475">
        <ele>946</ele>
        <time>2024-01-12T11:12:22.995Z</time>
      </trkpt>
      <trkpt lat="43.68298" lon="6.19476">
        <ele>946.1</ele>
        <time>2024-01-12T11:12:28.669Z</time>
      </trkpt>
      <trkpt lat="43.68295" lon="6.19477">
        <ele>946.1</ele>
        <time>2024-01-12T11:12:33.794Z</time>
      </trkpt>
      <trkpt lat="43.68292" lon="6.19477">
        <ele>946.2</ele>
        <time>2024-01-12T11:12:39.327Z</time>
      </trkpt>
      <trkpt lat="43.6829" lon="6.19478">
        <ele>946.2</ele>
        <time>2024-01-12T11:12:42.859Z</time>
      </trkpt>
      <trkpt lat="43.68288" lon="6.1948">
        <ele>946.4</ele>
        <time>2024-01-12T11:12:48.188Z</time>
      </trkpt>
      <trkpt lat="43.68287" lon="6.19484">
        <ele>946.6</ele>
        <time>2024-01-12T11:12:54.456Z</time>
      </trkpt>
      <trkpt lat="43.68287" lon="6.19487">
        <ele>946.7</ele>
        <time>2024-01-12T11:12:58.625Z</time>
      </trkpt>
      <trkpt lat="43.68286" lon="6.1949">
        <ele>946.9</ele>
        <time>2024-01-12T11:13:03.831Z</time>
      </trkpt>
      <trkpt lat="43.68285" lon="6.19493">
        <ele>947.1</ele>
        <time>2024-01-12T11:13:09.037Z</time>
      </trkpt>
      <trkpt lat="43.68284" lon="6.19495">
        <ele>947.3</ele>
        <time>2024-01-12T11:13:13.291Z</time>
      </trkpt>
      <trkpt lat="43.68283" lon="6.19498">
        <ele>947.5</ele>
        <time>2024-01-12T11:13:18.497Z</time>
      </trkpt>
      <trkpt lat="43.68283" lon="6.19502">
        <ele>947.7</ele>
        <time>2024-01-12T11:13:24.496Z</time>
      </trkpt>
      <trkpt lat="43.68282" lon="6.19505">
        <ele>948</ele>
        <time>2024-01-12T11:13:30.526Z</time>
      </trkpt>
      <trkpt lat="43.68281" lon="6.19507">
        <ele>948.2</ele>
        <time>2024-01-12T11:13:34.780Z</time>
      </trkpt>
      <trkpt lat="43.6828" lon="6.19509">
        <ele>948.4</ele>
        <time>2024-01-12T11:13:39.034Z</time>
      </trkpt>
      <trkpt lat="43.68278" lon="6.19509">
        <ele>948.6</ele>
        <time>2024-01-12T11:13:43.644Z</time>
      </trkpt>
      <trkpt lat="43.68273" lon="6.19509">
        <ele>948.3</ele>
        <time>2024-01-12T11:13:50.910Z</time>
      </trkpt>
      <trkpt lat="43.68269" lon="6.19513">
        <ele>948.4</ele>
        <time>2024-01-12T11:13:59.642Z</time>
      </trkpt>
      <trkpt lat="43.68267" lon="6.19516">
        <ele>948.7</ele>
        <time>2024-01-12T11:14:06.483Z</time>
      </trkpt>
      <trkpt lat="43.68264" lon="6.19519">
        <ele>948.9</ele>
        <time>2024-01-12T11:14:13.786Z</time>
      </trkpt>
      <trkpt lat="43.68262" lon="6.19521">
        <ele>949.1</ele>
        <time>2024-01-12T11:14:19.115Z</time>
      </trkpt>
      <trkpt lat="43.6826" lon="6.19523">
        <ele>949.3</ele>
        <time>2024-01-12T11:14:24.445Z</time>
      </trkpt>
      <trkpt lat="43.68257" lon="6.19525">
        <ele>949.6</ele>
        <time>2024-01-12T11:14:31.862Z</time>
      </trkpt>
      <trkpt lat="43.68255" lon="6.19526">
        <ele>949.7</ele>
        <time>2024-01-12T11:14:35.962Z</time>
      </trkpt>
      <trkpt lat="43.68252" lon="6.19527">
        <ele>949.9</ele>
        <time>2024-01-12T11:14:42.270Z</time>
      </trkpt>
      <trkpt lat="43.6825" lon="6.19529">
        <ele>950.1</ele>
        <time>2024-01-12T11:14:47.600Z</time>
      </trkpt>
      <trkpt lat="43.68247" lon="6.1953">
        <ele>949.7</ele>
        <time>2024-01-12T11:14:52.084Z</time>
      </trkpt>
      <trkpt lat="43.68245" lon="6.19532">
        <ele>949.6</ele>
        <time>2024-01-12T11:14:55.713Z</time>
      </trkpt>
      <trkpt lat="43.68243" lon="6.19534">
        <ele>949.5</ele>
        <time>2024-01-12T11:14:59.343Z</time>
      </trkpt>
      <trkpt lat="43.68241" lon="6.19535">
        <ele>949.3</ele>
        <time>2024-01-12T11:15:02.433Z</time>
      </trkpt>
      <trkpt lat="43.6824" lon="6.19536">
        <ele>949.3</ele>
        <time>2024-01-12T11:15:04.483Z</time>
      </trkpt>
      <trkpt lat="43.68239" lon="6.19537">
        <ele>949.2</ele>
        <time>2024-01-12T11:15:06.276Z</time>
      </trkpt>
      <trkpt lat="43.68236" lon="6.19538">
        <ele>948.9</ele>
        <time>2024-01-12T11:15:10.760Z</time>
      </trkpt>
      <trkpt lat="43.68233" lon="6.1954">
        <ele>948.7</ele>
        <time>2024-01-12T11:15:15.600Z</time>
      </trkpt>
      <trkpt lat="43.68231" lon="6.19541">
        <ele>948.5</ele>
        <time>2024-01-12T11:15:18.690Z</time>
      </trkpt>
      <trkpt lat="43.68228" lon="6.19543">
        <ele>948.4</ele>
        <time>2024-01-12T11:15:23.742Z</time>
      </trkpt>
      <trkpt lat="43.68226" lon="6.19545">
        <ele>948.3</ele>
        <time>2024-01-12T11:15:27.371Z</time>
      </trkpt>
      <trkpt lat="43.68224" lon="6.19547">
        <ele>948.3</ele>
        <time>2024-01-12T11:15:31.470Z</time>
      </trkpt>
      <trkpt lat="43.68221" lon="6.19548">
        <ele>948</ele>
        <time>2024-01-12T11:15:35.954Z</time>
      </trkpt>
      <trkpt lat="43.68219" lon="6.1955">
        <ele>948</ele>
        <time>2024-01-12T11:15:40.053Z</time>
      </trkpt>
      <trkpt lat="43.68217" lon="6.19551">
        <ele>947.8</ele>
        <time>2024-01-12T11:15:43.144Z</time>
      </trkpt>
      <trkpt lat="43.68214" lon="6.19552">
        <ele>947.6</ele>
        <time>2024-01-12T11:15:47.628Z</time>
      </trkpt>
      <trkpt lat="43.68211" lon="6.19554">
        <ele>947.5</ele>
        <time>2024-01-12T11:15:52.679Z</time>
      </trkpt>
      <trkpt lat="43.68209" lon="6.19555">
        <ele>947.5</ele>
        <time>2024-01-12T11:15:56.211Z</time>
      </trkpt>
      <trkpt lat="43.68207" lon="6.19557">
        <ele>947</ele>
        <time>2024-01-12T11:15:59.798Z</time>
      </trkpt>
      <trkpt lat="43.68205" lon="6.19559">
        <ele>946.3</ele>
        <time>2024-01-12T11:16:03.384Z</time>
      </trkpt>
      <trkpt lat="43.68202" lon="6.1956">
        <ele>945.8</ele>
        <time>2024-01-12T11:16:07.868Z</time>
      </trkpt>
      <trkpt lat="43.682" lon="6.19562">
        <ele>945.3</ele>
        <time>2024-01-12T11:16:11.455Z</time>
      </trkpt>
      <trkpt lat="43.68198" lon="6.19563">
        <ele>944.9</ele>
        <time>2024-01-12T11:16:14.545Z</time>
      </trkpt>
      <trkpt lat="43.68196" lon="6.19565">
        <ele>944.4</ele>
        <time>2024-01-12T11:16:18.132Z</time>
      </trkpt>
      <trkpt lat="43.68193" lon="6.19566">
        <ele>944</ele>
        <time>2024-01-12T11:16:22.616Z</time>
      </trkpt>
      <trkpt lat="43.6819" lon="6.19566">
        <ele>943.6</ele>
        <time>2024-01-12T11:16:26.976Z</time>
      </trkpt>
      <trkpt lat="43.68189" lon="6.19567">
        <ele>943.4</ele>
        <time>2024-01-12T11:16:28.769Z</time>
      </trkpt>
      <trkpt lat="43.68186" lon="6.19568">
        <ele>942.9</ele>
        <time>2024-01-12T11:16:33.253Z</time>
      </trkpt>
      <trkpt lat="43.68183" lon="6.19569">
        <ele>942.5</ele>
        <time>2024-01-12T11:16:37.737Z</time>
      </trkpt>
      <trkpt lat="43.68181" lon="6.19571">
        <ele>942.1</ele>
        <time>2024-01-12T11:16:41.324Z</time>
      </trkpt>
      <trkpt lat="43.68178" lon="6.19571">
        <ele>941.9</ele>
        <time>2024-01-12T11:16:45.683Z</time>
      </trkpt>
      <trkpt lat="43.68175" lon="6.19572">
        <ele>941.6</ele>
        <time>2024-01-12T11:16:50.168Z</time>
      </trkpt>
      <trkpt lat="43.68172" lon="6.19572">
        <ele>941.4</ele>
        <time>2024-01-12T11:16:54.527Z</time>
      </trkpt>
      <trkpt lat="43.68169" lon="6.19572">
        <ele>941.2</ele>
        <time>2024-01-12T11:16:58.886Z</time>
      </trkpt>
      <trkpt lat="43.68166" lon="6.19572">
        <ele>941</ele>
        <time>2024-01-12T11:17:03.246Z</time>
      </trkpt>
      <trkpt lat="43.68164" lon="6.19571">
        <ele>940.9</ele>
        <time>2024-01-12T11:17:06.336Z</time>
      </trkpt>
      <trkpt lat="43.68161" lon="6.1957">
        <ele>940.8</ele>
        <time>2024-01-12T11:17:10.984Z</time>
      </trkpt>
      <trkpt lat="43.68158" lon="6.19571">
        <ele>940.8</ele>
        <time>2024-01-12T11:17:16.109Z</time>
      </trkpt>
      <trkpt lat="43.68155" lon="6.19571">
        <ele>940.7</ele>
        <time>2024-01-12T11:17:20.614Z</time>
      </trkpt>
      <trkpt lat="43.68153" lon="6.19571">
        <ele>940.6</ele>
        <time>2024-01-12T11:17:23.520Z</time>
      </trkpt>
      <trkpt lat="43.6815" lon="6.19572">
        <ele>940.6</ele>
        <time>2024-01-12T11:17:28.645Z</time>
      </trkpt>
      <trkpt lat="43.68148" lon="6.19575">
        <ele>940.9</ele>
        <time>2024-01-12T11:17:35.487Z</time>
      </trkpt>
      <trkpt lat="43.68146" lon="6.19577">
        <ele>941.1</ele>
        <time>2024-01-12T11:17:40.816Z</time>
      </trkpt>
      <trkpt lat="43.68144" lon="6.19578">
        <ele>941.2</ele>
        <time>2024-01-12T11:17:44.916Z</time>
      </trkpt>
      <trkpt lat="43.68139" lon="6.1958">
        <ele>941.5</ele>
        <time>2024-01-12T11:17:55.306Z</time>
      </trkpt>
      <trkpt lat="43.68131" lon="6.19582">
        <ele>941.8</ele>
        <time>2024-01-12T11:18:10.471Z</time>
      </trkpt>
      <trkpt lat="43.68126" lon="6.19582">
        <ele>941.8</ele>
        <time>2024-01-12T11:18:18.775Z</time>
      </trkpt>
      <trkpt lat="43.68123" lon="6.19582">
        <ele>941.8</ele>
        <time>2024-01-12T11:18:23.757Z</time>
      </trkpt>
      <trkpt lat="43.68121" lon="6.19582">
        <ele>941.7</ele>
        <time>2024-01-12T11:18:26.663Z</time>
      </trkpt>
      <trkpt lat="43.68118" lon="6.19583">
        <ele>941.9</ele>
        <time>2024-01-12T11:18:32.972Z</time>
      </trkpt>
      <trkpt lat="43.68116" lon="6.19584">
        <ele>941.9</ele>
        <time>2024-01-12T11:18:36.504Z</time>
      </trkpt>
      <trkpt lat="43.68113" lon="6.19584">
        <ele>941.9</ele>
        <time>2024-01-12T11:18:41.486Z</time>
      </trkpt>
      <trkpt lat="43.68112" lon="6.19586">
        <ele>941.7</ele>
        <time>2024-01-12T11:18:44.041Z</time>
      </trkpt>
      <trkpt lat="43.68111" lon="6.19589">
        <ele>941.4</ele>
        <time>2024-01-12T11:18:47.512Z</time>
      </trkpt>
      <trkpt lat="43.68107" lon="6.19591">
        <ele>941.3</ele>
        <time>2024-01-12T11:18:54.090Z</time>
      </trkpt>
      <trkpt lat="43.68102" lon="6.19594">
        <ele>941.3</ele>
        <time>2024-01-12T11:19:03.142Z</time>
      </trkpt>
      <trkpt lat="43.68099" lon="6.19595">
        <ele>941.4</ele>
        <time>2024-01-12T11:19:08.816Z</time>
      </trkpt>
      <trkpt lat="43.68096" lon="6.19596">
        <ele>941.6</ele>
        <time>2024-01-12T11:19:15.124Z</time>
      </trkpt>
      <trkpt lat="43.68094" lon="6.19598">
        <ele>941.8</ele>
        <time>2024-01-12T11:19:20.453Z</time>
      </trkpt>
      <trkpt lat="43.68089" lon="6.19603">
        <ele>942.5</ele>
        <time>2024-01-12T11:19:35.366Z</time>
      </trkpt>
      <trkpt lat="43.68087" lon="6.19604">
        <ele>942.8</ele>
        <time>2024-01-12T11:19:41.044Z</time>
      </trkpt>
      <trkpt lat="43.68084" lon="6.19604">
        <ele>943.1</ele>
        <time>2024-01-12T11:19:47.959Z</time>
      </trkpt>
      <trkpt lat="43.68081" lon="6.19604">
        <ele>943.4</ele>
        <time>2024-01-12T11:19:54.875Z</time>
      </trkpt>
      <trkpt lat="43.68079" lon="6.19605">
        <ele>943.6</ele>
        <time>2024-01-12T11:19:59.677Z</time>
      </trkpt>
      <trkpt lat="43.68076" lon="6.19607">
        <ele>944.2</ele>
        <time>2024-01-12T11:20:09.973Z</time>
      </trkpt>
      <trkpt lat="43.6807" lon="6.19612">
        <ele>945.3</ele>
        <time>2024-01-12T11:20:29.814Z</time>
      </trkpt>
      <trkpt lat="43.68068" lon="6.19613">
        <ele>945.4</ele>
        <time>2024-01-12T11:20:33.914Z</time>
      </trkpt>
      <trkpt lat="43.68065" lon="6.19613">
        <ele>945.8</ele>
        <time>2024-01-12T11:20:41.701Z</time>
      </trkpt>
      <trkpt lat="43.68062" lon="6.19614">
        <ele>946</ele>
        <time>2024-01-12T11:20:48.009Z</time>
      </trkpt>
      <trkpt lat="43.68059" lon="6.19614">
        <ele>946.4</ele>
        <time>2024-01-12T11:20:55.796Z</time>
      </trkpt>
      <trkpt lat="43.68056" lon="6.19615">
        <ele>946.7</ele>
        <time>2024-01-12T11:21:02.841Z</time>
      </trkpt>
      <trkpt lat="43.68054" lon="6.19617">
        <ele>946.7</ele>
        <time>2024-01-12T11:21:06.940Z</time>
      </trkpt>
      <trkpt lat="43.68052" lon="6.1962">
        <ele>946.6</ele>
        <time>2024-01-12T11:21:11.364Z</time>
      </trkpt>
      <trkpt lat="43.68049" lon="6.19622">
        <ele>946.9</ele>
        <time>2024-01-12T11:21:18.782Z</time>
      </trkpt>
      <trkpt lat="43.68047" lon="6.19624">
        <ele>947.1</ele>
        <time>2024-01-12T11:21:24.111Z</time>
      </trkpt>
      <trkpt lat="43.68045" lon="6.19626">
        <ele>947.4</ele>
        <time>2024-01-12T11:21:30.251Z</time>
      </trkpt>
      <trkpt lat="43.68041" lon="6.19632">
        <ele>948.3</ele>
        <time>2024-01-12T11:21:46.687Z</time>
      </trkpt>
      <trkpt lat="43.68039" lon="6.19634">
        <ele>948.8</ele>
        <time>2024-01-12T11:21:55.011Z</time>
      </trkpt>
      <trkpt lat="43.68036" lon="6.19636">
        <ele>949.6</ele>
        <time>2024-01-12T11:22:08.065Z</time>
      </trkpt>
      <trkpt lat="43.68034" lon="6.19637">
        <ele>950.2</ele>
        <time>2024-01-12T11:22:17.971Z</time>
      </trkpt>
      <trkpt lat="43.68032" lon="6.19638">
        <ele>950.8</ele>
        <time>2024-01-12T11:22:27.876Z</time>
      </trkpt>
      <trkpt lat="43.68029" lon="6.19638">
        <ele>951.5</ele>
        <time>2024-01-12T11:22:39.313Z</time>
      </trkpt>
      <trkpt lat="43.68027" lon="6.19637">
        <ele>951.7</ele>
        <time>2024-01-12T11:22:44.115Z</time>
      </trkpt>
      <trkpt lat="43.68024" lon="6.19638">
        <ele>952.1</ele>
        <time>2024-01-12T11:22:52.017Z</time>
      </trkpt>
      <trkpt lat="43.68021" lon="6.19639">
        <ele>952.5</ele>
        <time>2024-01-12T11:22:59.920Z</time>
      </trkpt>
      <trkpt lat="43.68019" lon="6.1964">
        <ele>952.4</ele>
        <time>2024-01-12T11:23:03.010Z</time>
      </trkpt>
      <trkpt lat="43.68016" lon="6.1964">
        <ele>952.7</ele>
        <time>2024-01-12T11:23:09.926Z</time>
      </trkpt>
      <trkpt lat="43.68013" lon="6.19641">
        <ele>952.7</ele>
        <time>2024-01-12T11:23:15.051Z</time>
      </trkpt>
      <trkpt lat="43.68008" lon="6.19642">
        <ele>952.9</ele>
        <time>2024-01-12T11:23:24.557Z</time>
      </trkpt>
      <trkpt lat="43.68003" lon="6.19646">
        <ele>952.7</ele>
        <time>2024-01-12T11:23:33.200Z</time>
      </trkpt>
      <trkpt lat="43.67999" lon="6.19649">
        <ele>952.6</ele>
        <time>2024-01-12T11:23:40.269Z</time>
      </trkpt>
      <trkpt lat="43.67997" lon="6.1965">
        <ele>952.5</ele>
        <time>2024-01-12T11:23:43.360Z</time>
      </trkpt>
      <trkpt lat="43.67994" lon="6.19651">
        <ele>952.4</ele>
        <time>2024-01-12T11:23:48.007Z</time>
      </trkpt>
      <trkpt lat="43.67992" lon="6.1965">
        <ele>952.6</ele>
        <time>2024-01-12T11:23:52.809Z</time>
      </trkpt>
      <trkpt lat="43.67991" lon="6.19651">
        <ele>952.5</ele>
        <time>2024-01-12T11:23:54.602Z</time>
      </trkpt>
      <trkpt lat="43.67988" lon="6.19651">
        <ele>952.6</ele>
        <time>2024-01-12T11:24:00.135Z</time>
      </trkpt>
      <trkpt lat="43.67986" lon="6.19652">
        <ele>952.6</ele>
        <time>2024-01-12T11:24:03.667Z</time>
      </trkpt>
      <trkpt lat="43.67983" lon="6.19652">
        <ele>952.7</ele>
        <time>2024-01-12T11:24:09.199Z</time>
      </trkpt>
      <trkpt lat="43.67981" lon="6.19651">
        <ele>952.9</ele>
        <time>2024-01-12T11:24:14.001Z</time>
      </trkpt>
      <trkpt lat="43.67976" lon="6.19651">
        <ele>953</ele>
        <time>2024-01-12T11:24:22.839Z</time>
      </trkpt>
      <trkpt lat="43.67973" lon="6.1965">
        <ele>953.2</ele>
        <time>2024-01-12T11:24:29.147Z</time>
      </trkpt>
      <trkpt lat="43.67971" lon="6.1965">
        <ele>953.2</ele>
        <time>2024-01-12T11:24:32.469Z</time>
      </trkpt>
      <trkpt lat="43.67968" lon="6.19651">
        <ele>953</ele>
        <time>2024-01-12T11:24:36.953Z</time>
      </trkpt>
      <trkpt lat="43.67966" lon="6.19651">
        <ele>953</ele>
        <time>2024-01-12T11:24:40.274Z</time>
      </trkpt>
      <trkpt lat="43.67963" lon="6.19652">
        <ele>952.9</ele>
        <time>2024-01-12T11:24:44.922Z</time>
      </trkpt>
      <trkpt lat="43.6796" lon="6.19652">
        <ele>952.8</ele>
        <time>2024-01-12T11:24:49.427Z</time>
      </trkpt>
      <trkpt lat="43.67958" lon="6.19653">
        <ele>952.7</ele>
        <time>2024-01-12T11:24:52.518Z</time>
      </trkpt>
      <trkpt lat="43.67956" lon="6.19656">
        <ele>952.7</ele>
        <time>2024-01-12T11:24:57.418Z</time>
      </trkpt>
      <trkpt lat="43.67956" lon="6.19659">
        <ele>952.7</ele>
        <time>2024-01-12T11:25:01.021Z</time>
      </trkpt>
      <trkpt lat="43.67953" lon="6.19664">
        <ele>952.7</ele>
        <time>2024-01-12T11:25:08.824Z</time>
      </trkpt>
      <trkpt lat="43.6795" lon="6.1967">
        <ele>952.1</ele>
        <time>2024-01-12T11:25:16.490Z</time>
      </trkpt>
      <trkpt lat="43.67948" lon="6.19672">
        <ele>951.8</ele>
        <time>2024-01-12T11:25:20.077Z</time>
      </trkpt>
      <trkpt lat="43.67946" lon="6.19674">
        <ele>951.5</ele>
        <time>2024-01-12T11:25:23.663Z</time>
      </trkpt>
      <trkpt lat="43.67944" lon="6.19676">
        <ele>951.3</ele>
        <time>2024-01-12T11:25:27.250Z</time>
      </trkpt>
      <trkpt lat="43.67942" lon="6.19679">
        <ele>950.5</ele>
        <time>2024-01-12T11:25:31.538Z</time>
      </trkpt>
      <trkpt lat="43.67939" lon="6.1968">
        <ele>950</ele>
        <time>2024-01-12T11:25:36.022Z</time>
      </trkpt>
      <trkpt lat="43.67937" lon="6.19681">
        <ele>949.7</ele>
        <time>2024-01-12T11:25:39.113Z</time>
      </trkpt>
      <trkpt lat="43.67935" lon="6.19682">
        <ele>949.4</ele>
        <time>2024-01-12T11:25:42.203Z</time>
      </trkpt>
      <trkpt lat="43.67933" lon="6.19684">
        <ele>949.1</ele>
        <time>2024-01-12T11:25:45.790Z</time>
      </trkpt>
      <trkpt lat="43.67932" lon="6.19686">
        <ele>948.9</ele>
        <time>2024-01-12T11:25:48.345Z</time>
      </trkpt>
      <trkpt lat="43.6793" lon="6.19689">
        <ele>948.7</ele>
        <time>2024-01-12T11:25:52.633Z</time>
      </trkpt>
      <trkpt lat="43.67929" lon="6.19692">
        <ele>948.6</ele>
        <time>2024-01-12T11:25:56.132Z</time>
      </trkpt>
      <trkpt lat="43.67926" lon="6.19694">
        <ele>948.7</ele>
        <time>2024-01-12T11:26:02.209Z</time>
      </trkpt>
      <trkpt lat="43.67924" lon="6.19695">
        <ele>948.6</ele>
        <time>2024-01-12T11:26:05.300Z</time>
      </trkpt>
      <trkpt lat="43.67922" lon="6.19697">
        <ele>948.4</ele>
        <time>2024-01-12T11:26:08.886Z</time>
      </trkpt>
      <trkpt lat="43.6792" lon="6.19699">
        <ele>948.3</ele>
        <time>2024-01-12T11:26:12.516Z</time>
      </trkpt>
      <trkpt lat="43.67918" lon="6.19702">
        <ele>948.1</ele>
        <time>2024-01-12T11:26:16.804Z</time>
      </trkpt>
      <trkpt lat="43.67916" lon="6.19704">
        <ele>947.8</ele>
        <time>2024-01-12T11:26:20.391Z</time>
      </trkpt>
      <trkpt lat="43.67915" lon="6.19707">
        <ele>947.3</ele>
        <time>2024-01-12T11:26:23.862Z</time>
      </trkpt>
      <trkpt lat="43.67913" lon="6.19709">
        <ele>946.7</ele>
        <time>2024-01-12T11:26:27.449Z</time>
      </trkpt>
      <trkpt lat="43.67911" lon="6.19711">
        <ele>946.3</ele>
        <time>2024-01-12T11:26:31.035Z</time>
      </trkpt>
      <trkpt lat="43.6791" lon="6.19713">
        <ele>946</ele>
        <time>2024-01-12T11:26:33.591Z</time>
      </trkpt>
      <trkpt lat="43.67908" lon="6.19715">
        <ele>945.7</ele>
        <time>2024-01-12T11:26:37.177Z</time>
      </trkpt>
      <trkpt lat="43.67906" lon="6.19717">
        <ele>945.5</ele>
        <time>2024-01-12T11:26:40.764Z</time>
      </trkpt>
      <trkpt lat="43.67904" lon="6.19719">
        <ele>945.4</ele>
        <time>2024-01-12T11:26:44.394Z</time>
      </trkpt>
      <trkpt lat="43.67902" lon="6.19721">
        <ele>945.4</ele>
        <time>2024-01-12T11:26:48.493Z</time>
      </trkpt>
      <trkpt lat="43.679" lon="6.19723">
        <ele>945.3</ele>
        <time>2024-01-12T11:26:52.122Z</time>
      </trkpt>
      <trkpt lat="43.67898" lon="6.19725">
        <ele>945.2</ele>
        <time>2024-01-12T11:26:55.752Z</time>
      </trkpt>
      <trkpt lat="43.67896" lon="6.19728">
        <ele>945</ele>
        <time>2024-01-12T11:27:00.040Z</time>
      </trkpt>
      <trkpt lat="43.67895" lon="6.19731">
        <ele>945</ele>
        <time>2024-01-12T11:27:04.007Z</time>
      </trkpt>
      <trkpt lat="43.67893" lon="6.19734">
        <ele>945.1</ele>
        <time>2024-01-12T11:27:09.459Z</time>
      </trkpt>
      <trkpt lat="43.67892" lon="6.19738">
        <ele>945.2</ele>
        <time>2024-01-12T11:27:15.091Z</time>
      </trkpt>
      <trkpt lat="43.67891" lon="6.1974">
        <ele>945.3</ele>
        <time>2024-01-12T11:27:18.592Z</time>
      </trkpt>
      <trkpt lat="43.67889" lon="6.19741">
        <ele>945.7</ele>
        <time>2024-01-12T11:27:25.371Z</time>
      </trkpt>
      <trkpt lat="43.67886" lon="6.19748">
        <ele>945.4</ele>
        <time>2024-01-12T11:27:33.922Z</time>
      </trkpt>
      <trkpt lat="43.67883" lon="6.19749">
        <ele>944.9</ele>
        <time>2024-01-12T11:27:38.407Z</time>
      </trkpt>
      <trkpt lat="43.67881" lon="6.19751">
        <ele>944.5</ele>
        <time>2024-01-12T11:27:41.993Z</time>
      </trkpt>
      <trkpt lat="43.67879" lon="6.19754">
        <ele>944</ele>
        <time>2024-01-12T11:27:46.281Z</time>
      </trkpt>
      <trkpt lat="43.67879" lon="6.19757">
        <ele>943.8</ele>
        <time>2024-01-12T11:27:49.434Z</time>
      </trkpt>
      <trkpt lat="43.67877" lon="6.19761">
        <ele>943.5</ele>
        <time>2024-01-12T11:27:54.544Z</time>
      </trkpt>
      <trkpt lat="43.67876" lon="6.19763">
        <ele>943.5</ele>
        <time>2024-01-12T11:27:57.465Z</time>
      </trkpt>
      <trkpt lat="43.67875" lon="6.19766">
        <ele>943.5</ele>
        <time>2024-01-12T11:28:01.432Z</time>
      </trkpt>
      <trkpt lat="43.67872" lon="6.19769">
        <ele>943.8</ele>
        <time>2024-01-12T11:28:09.426Z</time>
      </trkpt>
      <trkpt lat="43.67871" lon="6.19772">
        <ele>944.1</ele>
        <time>2024-01-12T11:28:15.456Z</time>
      </trkpt>
      <trkpt lat="43.67869" lon="6.19775">
        <ele>944.8</ele>
        <time>2024-01-12T11:28:26.883Z</time>
      </trkpt>
      <trkpt lat="43.67867" lon="6.19778">
        <ele>945.5</ele>
        <time>2024-01-12T11:28:38.310Z</time>
      </trkpt>
      <trkpt lat="43.67866" lon="6.19781">
        <ele>945.2</ele>
        <time>2024-01-12T11:28:41.781Z</time>
      </trkpt>
      <trkpt lat="43.67864" lon="6.19784">
        <ele>945.3</ele>
        <time>2024-01-12T11:28:47.233Z</time>
      </trkpt>
      <trkpt lat="43.67863" lon="6.19787">
        <ele>945.1</ele>
        <time>2024-01-12T11:28:50.704Z</time>
      </trkpt>
      <trkpt lat="43.67862" lon="6.1979">
        <ele>945</ele>
        <time>2024-01-12T11:28:54.204Z</time>
      </trkpt>
      <trkpt lat="43.6786" lon="6.19794">
        <ele>944.8</ele>
        <time>2024-01-12T11:28:59.314Z</time>
      </trkpt>
      <trkpt lat="43.67858" lon="6.19796">
        <ele>944.9</ele>
        <time>2024-01-12T11:29:03.973Z</time>
      </trkpt>
      <trkpt lat="43.67857" lon="6.19798">
        <ele>944.9</ele>
        <time>2024-01-12T11:29:06.893Z</time>
      </trkpt>
      <trkpt lat="43.67854" lon="6.19799">
        <ele>945.4</ele>
        <time>2024-01-12T11:29:15.799Z</time>
      </trkpt>
      <trkpt lat="43.67852" lon="6.198">
        <ele>945.8</ele>
        <time>2024-01-12T11:29:22.577Z</time>
      </trkpt>
      <trkpt lat="43.67851" lon="6.19802">
        <ele>946</ele>
        <time>2024-01-12T11:29:26.831Z</time>
      </trkpt>
      <trkpt lat="43.6785" lon="6.19803">
        <ele>946.2</ele>
        <time>2024-01-12T11:29:30.393Z</time>
      </trkpt>
      <trkpt lat="43.67849" lon="6.19803">
        <ele>946.5</ele>
        <time>2024-01-12T11:29:35.412Z</time>
      </trkpt>
      <trkpt lat="43.67846" lon="6.19804">
        <ele>947.3</ele>
        <time>2024-01-12T11:29:48.486Z</time>
      </trkpt>
      <trkpt lat="43.67844" lon="6.19804">
        <ele>947.8</ele>
        <time>2024-01-12T11:29:56.644Z</time>
      </trkpt>
      <trkpt lat="43.67842" lon="6.19805">
        <ele>948.4</ele>
        <time>2024-01-12T11:30:06.550Z</time>
      </trkpt>
      <trkpt lat="43.6784" lon="6.19806">
        <ele>949</ele>
        <time>2024-01-12T11:30:16.456Z</time>
      </trkpt>
      <trkpt lat="43.67837" lon="6.19808">
        <ele>949.6</ele>
        <time>2024-01-12T11:30:26.752Z</time>
      </trkpt>
      <trkpt lat="43.67835" lon="6.19808">
        <ele>950.2</ele>
        <time>2024-01-12T11:30:36.788Z</time>
      </trkpt>
      <trkpt lat="43.67832" lon="6.19806">
        <ele>951.1</ele>
        <time>2024-01-12T11:30:51.553Z</time>
      </trkpt>
      <trkpt lat="43.6783" lon="6.19808">
        <ele>951</ele>
        <time>2024-01-12T11:30:55.183Z</time>
      </trkpt>
      <trkpt lat="43.67828" lon="6.1981">
        <ele>951.1</ele>
        <time>2024-01-12T11:30:59.841Z</time>
      </trkpt>
      <trkpt lat="43.67827" lon="6.19814">
        <ele>951</ele>
        <time>2024-01-12T11:31:04.447Z</time>
      </trkpt>
      <trkpt lat="43.67825" lon="6.19817">
        <ele>951.2</ele>
        <time>2024-01-12T11:31:10.540Z</time>
      </trkpt>
      <trkpt lat="43.67823" lon="6.19819">
        <ele>951.6</ele>
        <time>2024-01-12T11:31:17.664Z</time>
      </trkpt>
      <trkpt lat="43.6782" lon="6.1982">
        <ele>952.1</ele>
        <time>2024-01-12T11:31:26.570Z</time>
      </trkpt>
      <trkpt lat="43.67817" lon="6.19823">
        <ele>952.9</ele>
        <time>2024-01-12T11:31:39.740Z</time>
      </trkpt>
      <trkpt lat="43.67814" lon="6.19821">
        <ele>953.4</ele>
        <time>2024-01-12T11:31:48.934Z</time>
      </trkpt>
      <trkpt lat="43.67812" lon="6.19821">
        <ele>953.9</ele>
        <time>2024-01-12T11:31:57.093Z</time>
      </trkpt>
      <trkpt lat="43.67809" lon="6.19822">
        <ele>954.6</ele>
        <time>2024-01-12T11:32:08.553Z</time>
      </trkpt>
      <trkpt lat="43.67808" lon="6.19823">
        <ele>954.9</ele>
        <time>2024-01-12T11:32:13.447Z</time>
      </trkpt>
      <trkpt lat="43.67807" lon="6.19826">
        <ele>955.6</ele>
        <time>2024-01-12T11:32:25.090Z</time>
      </trkpt>
      <trkpt lat="43.67806" lon="6.19828">
        <ele>956.1</ele>
        <time>2024-01-12T11:32:33.357Z</time>
      </trkpt>
      <trkpt lat="43.67804" lon="6.1983">
        <ele>956.8</ele>
        <time>2024-01-12T11:32:44.924Z</time>
      </trkpt>
      <trkpt lat="43.67802" lon="6.19833">
        <ele>957.6</ele>
        <time>2024-01-12T11:32:58.054Z</time>
      </trkpt>
      <trkpt lat="43.67801" lon="6.19836">
        <ele>957.1</ele>
        <time>2024-01-12T11:33:01.525Z</time>
      </trkpt>
      <trkpt lat="43.678" lon="6.19838">
        <ele>956.7</ele>
        <time>2024-01-12T11:33:04.080Z</time>
      </trkpt>
      <trkpt lat="43.67798" lon="6.19839">
        <ele>956.9</ele>
        <time>2024-01-12T11:33:08.882Z</time>
      </trkpt>
      <trkpt lat="43.67796" lon="6.19839">
        <ele>957.4</ele>
        <time>2024-01-12T11:33:17.041Z</time>
      </trkpt>
      <trkpt lat="43.67793" lon="6.19842">
        <ele>957.4</ele>
        <time>2024-01-12T11:33:23.189Z</time>
      </trkpt>
      <trkpt lat="43.67791" lon="6.19846">
        <ele>957.2</ele>
        <time>2024-01-12T11:33:28.300Z</time>
      </trkpt>
      <trkpt lat="43.67789" lon="6.19848">
        <ele>957.4</ele>
        <time>2024-01-12T11:33:33.629Z</time>
      </trkpt>
      <trkpt lat="43.67786" lon="6.19851">
        <ele>957.9</ele>
        <time>2024-01-12T11:33:43.299Z</time>
      </trkpt>
      <trkpt lat="43.67784" lon="6.19854">
        <ele>958.2</ele>
        <time>2024-01-12T11:33:50.141Z</time>
      </trkpt>
      <trkpt lat="43.67782" lon="6.19856">
        <ele>958.7</ele>
        <time>2024-01-12T11:33:58.465Z</time>
      </trkpt>
      <trkpt lat="43.67781" lon="6.19858">
        <ele>958.9</ele>
        <time>2024-01-12T11:34:02.719Z</time>
      </trkpt>
      <trkpt lat="43.67777" lon="6.19862">
        <ele>959.8</ele>
        <time>2024-01-12T11:34:18.108Z</time>
      </trkpt>
      <trkpt lat="43.67775" lon="6.19864">
        <ele>959.4</ele>
        <time>2024-01-12T11:34:21.694Z</time>
      </trkpt>
      <trkpt lat="43.67773" lon="6.19866">
        <ele>959.1</ele>
        <time>2024-01-12T11:34:25.281Z</time>
      </trkpt>
      <trkpt lat="43.67772" lon="6.19868">
        <ele>958.8</ele>
        <time>2024-01-12T11:34:27.836Z</time>
      </trkpt>
      <trkpt lat="43.67767" lon="6.19869">
        <ele>959.3</ele>
        <time>2024-01-12T11:34:39.440Z</time>
      </trkpt>
      <trkpt lat="43.67764" lon="6.19869">
        <ele>959.8</ele>
        <time>2024-01-12T11:34:48.251Z</time>
      </trkpt>
      <trkpt lat="43.6776" lon="6.19871">
        <ele>960.3</ele>
        <time>2024-01-12T11:34:58.682Z</time>
      </trkpt>
      <trkpt lat="43.67758" lon="6.19873">
        <ele>960.6</ele>
        <time>2024-01-12T11:35:04.821Z</time>
      </trkpt>
      <trkpt lat="43.67755" lon="6.19874">
        <ele>961.3</ele>
        <time>2024-01-12T11:35:16.281Z</time>
      </trkpt>
      <trkpt lat="43.67754" lon="6.19876">
        <ele>961.6</ele>
        <time>2024-01-12T11:35:21.523Z</time>
      </trkpt>
      <trkpt lat="43.67752" lon="6.19879">
        <ele>962.3</ele>
        <time>2024-01-12T11:35:32.950Z</time>
      </trkpt>
      <trkpt lat="43.67751" lon="6.19882">
        <ele>962.9</ele>
        <time>2024-01-12T11:35:42.741Z</time>
      </trkpt>
      <trkpt lat="43.67748" lon="6.19887">
        <ele>963.7</ele>
        <time>2024-01-12T11:35:56.729Z</time>
      </trkpt>
      <trkpt lat="43.67746" lon="6.1989">
        <ele>963.7</ele>
        <time>2024-01-12T11:36:01.630Z</time>
      </trkpt>
      <trkpt lat="43.67744" lon="6.19893">
        <ele>963.3</ele>
        <time>2024-01-12T11:36:05.918Z</time>
      </trkpt>
      <trkpt lat="43.67742" lon="6.19895">
        <ele>963.2</ele>
        <time>2024-01-12T11:36:09.547Z</time>
      </trkpt>
      <trkpt lat="43.6774" lon="6.19897">
        <ele>963.3</ele>
        <time>2024-01-12T11:36:14.206Z</time>
      </trkpt>
      <trkpt lat="43.67738" lon="6.199">
        <ele>963.4</ele>
        <time>2024-01-12T11:36:19.657Z</time>
      </trkpt>
      <trkpt lat="43.67736" lon="6.19901">
        <ele>963.7</ele>
        <time>2024-01-12T11:36:25.336Z</time>
      </trkpt>
      <trkpt lat="43.67733" lon="6.19902">
        <ele>964.3</ele>
        <time>2024-01-12T11:36:35.417Z</time>
      </trkpt>
      <trkpt lat="43.67731" lon="6.19904">
        <ele>964.9</ele>
        <time>2024-01-12T11:36:45.205Z</time>
      </trkpt>
      <trkpt lat="43.67729" lon="6.19906">
        <ele>965.6</ele>
        <time>2024-01-12T11:36:56.772Z</time>
      </trkpt>
      <trkpt lat="43.67727" lon="6.19908">
        <ele>966.4</ele>
        <time>2024-01-12T11:37:10.470Z</time>
      </trkpt>
      <trkpt lat="43.67726" lon="6.19911">
        <ele>967.3</ele>
        <time>2024-01-12T11:37:26.895Z</time>
      </trkpt>
      <trkpt lat="43.67724" lon="6.19914">
        <ele>968.6</ele>
        <time>2024-01-12T11:37:52.349Z</time>
      </trkpt>
      <trkpt lat="43.67723" lon="6.19917">
        <ele>969.6</ele>
        <time>2024-01-12T11:38:11.534Z</time>
      </trkpt>
      <trkpt lat="43.67721" lon="6.19921">
        <ele>969.3</ele>
        <time>2024-01-12T11:38:16.644Z</time>
      </trkpt>
      <trkpt lat="43.6772" lon="6.19924">
        <ele>969</ele>
        <time>2024-01-12T11:38:20.116Z</time>
      </trkpt>
      <trkpt lat="43.67719" lon="6.19928">
        <ele>968.6</ele>
        <time>2024-01-12T11:38:24.564Z</time>
      </trkpt>
      <trkpt lat="43.67718" lon="6.19931">
        <ele>968.4</ele>
        <time>2024-01-12T11:38:28.035Z</time>
      </trkpt>
      <trkpt lat="43.67717" lon="6.19934">
        <ele>968.4</ele>
        <time>2024-01-12T11:38:32.003Z</time>
      </trkpt>
      <trkpt lat="43.67715" lon="6.19936">
        <ele>968.9</ele>
        <time>2024-01-12T11:38:40.327Z</time>
      </trkpt>
      <trkpt lat="43.67713" lon="6.19939">
        <ele>969.5</ele>
        <time>2024-01-12T11:38:50.308Z</time>
      </trkpt>
      <trkpt lat="43.67711" lon="6.19943">
        <ele>970.2</ele>
        <time>2024-01-12T11:39:02.006Z</time>
      </trkpt>
      <trkpt lat="43.67708" lon="6.19945">
        <ele>971.6</ele>
        <time>2024-01-12T11:39:28.915Z</time>
      </trkpt>
      <trkpt lat="43.67706" lon="6.19946">
        <ele>972.4</ele>
        <time>2024-01-12T11:39:43.505Z</time>
      </trkpt>
      <trkpt lat="43.67704" lon="6.19948">
        <ele>973.1</ele>
        <time>2024-01-12T11:39:55.072Z</time>
      </trkpt>
      <trkpt lat="43.67702" lon="6.1995">
        <ele>973.9</ele>
        <time>2024-01-12T11:40:08.770Z</time>
      </trkpt>
      <trkpt lat="43.677" lon="6.19952">
        <ele>974.7</ele>
        <time>2024-01-12T11:40:22.467Z</time>
      </trkpt>
      <trkpt lat="43.67698" lon="6.19951">
        <ele>975.8</ele>
        <time>2024-01-12T11:40:41.010Z</time>
      </trkpt>
      <trkpt lat="43.67696" lon="6.1995">
        <ele>976.8</ele>
        <time>2024-01-12T11:40:59.552Z</time>
      </trkpt>
      <trkpt lat="43.67694" lon="6.1995">
        <ele>977.6</ele>
        <time>2024-01-12T11:41:14.581Z</time>
      </trkpt>
      <trkpt lat="43.67693" lon="6.19952">
        <ele>977.4</ele>
        <time>2024-01-12T11:41:17.137Z</time>
      </trkpt>
      <trkpt lat="43.67691" lon="6.19954">
        <ele>977.3</ele>
        <time>2024-01-12T11:41:20.766Z</time>
      </trkpt>
      <trkpt lat="43.6769" lon="6.19957">
        <ele>977</ele>
        <time>2024-01-12T11:41:24.238Z</time>
      </trkpt>
      <trkpt lat="43.67689" lon="6.19959">
        <ele>976.8</ele>
        <time>2024-01-12T11:41:26.793Z</time>
      </trkpt>
      <trkpt lat="43.67687" lon="6.19961">
        <ele>976.6</ele>
        <time>2024-01-12T11:41:30.380Z</time>
      </trkpt>
      <trkpt lat="43.67686" lon="6.19963">
        <ele>976.5</ele>
        <time>2024-01-12T11:41:32.935Z</time>
      </trkpt>
      <trkpt lat="43.67685" lon="6.19966">
        <ele>976.2</ele>
        <time>2024-01-12T11:41:36.407Z</time>
      </trkpt>
      <trkpt lat="43.67684" lon="6.19966">
        <ele>976.2</ele>
        <time>2024-01-12T11:41:38.068Z</time>
      </trkpt>
      <trkpt lat="43.67683" lon="6.19969">
        <ele>975.9</ele>
        <time>2024-01-12T11:41:41.539Z</time>
        <extensions>
          <visugpx:TrkExtension xmlns:visugpx="https://www.visugpx.com/editgpx/">
            <visugpx:node>7</visugpx:node>
            </visugpx:TrkExtension>
        </extensions>
      </trkpt>
      <trkpt lat="43.67682" lon="6.19962">
        <ele>976.5</ele>
        <time>2024-01-12T11:41:54.137Z</time>
        <extensions>
          <visugpx:TrkExtension xmlns:visugpx="https://www.visugpx.com/editgpx/">
            <visugpx:node>4</visugpx:node>
            </visugpx:TrkExtension>
        </extensions>
      </trkpt>
      <trkpt lat="43.67677" lon="6.19965">
        <ele>976.1</ele>
        <time>2024-01-12T11:42:02.057Z</time>
      </trkpt>
      <trkpt lat="43.67673" lon="6.19966">
        <ele>975.8</ele>
        <time>2024-01-12T11:42:08.680Z</time>
      </trkpt>
      <trkpt lat="43.67668" lon="6.19967">
        <ele>975.6</ele>
        <time>2024-01-12T11:42:15.317Z</time>
      </trkpt>
      <trkpt lat="43.67663" lon="6.19965">
        <ele>974.2</ele>
        <time>2024-01-12T11:42:22.880Z</time>
      </trkpt>
      <trkpt lat="43.67658" lon="6.19963">
        <ele>972.3</ele>
        <time>2024-01-12T11:42:30.444Z</time>
      </trkpt>
      <trkpt lat="43.67656" lon="6.19957">
        <ele>972</ele>
        <time>2024-01-12T11:42:37.387Z</time>
      </trkpt>
      <trkpt lat="43.67654" lon="6.19951">
        <ele>971.8</ele>
        <time>2024-01-12T11:42:44.386Z</time>
      </trkpt>
      <trkpt lat="43.67651" lon="6.19946">
        <ele>971.1</ele>
        <time>2024-01-12T11:42:51.626Z</time>
      </trkpt>
      <trkpt lat="43.67648" lon="6.1994">
        <ele>969.1</ele>
        <time>2024-01-12T11:42:58.866Z</time>
      </trkpt>
      <trkpt lat="43.67646" lon="6.19934">
        <ele>967.4</ele>
        <time>2024-01-12T11:43:06.290Z</time>
      </trkpt>
      <trkpt lat="43.67644" lon="6.19927">
        <ele>965.9</ele>
        <time>2024-01-12T11:43:13.713Z</time>
      </trkpt>
      <trkpt lat="43.67641" lon="6.19922">
        <ele>964.7</ele>
        <time>2024-01-12T11:43:20.953Z</time>
      </trkpt>
      <trkpt lat="43.67638" lon="6.19916">
        <ele>963.4</ele>
        <time>2024-01-12T11:43:28.193Z</time>
      </trkpt>
      <trkpt lat="43.67634" lon="6.19912">
        <ele>960.3</ele>
        <time>2024-01-12T11:43:35.367Z</time>
      </trkpt>
      <trkpt lat="43.6763" lon="6.19908">
        <ele>957.6</ele>
        <time>2024-01-12T11:43:42.540Z</time>
      </trkpt>
      <trkpt lat="43.67622" lon="6.19904">
        <ele>954.2</ele>
        <time>2024-01-12T11:43:54.902Z</time>
      </trkpt>
      <trkpt lat="43.67614" lon="6.19899">
        <ele>951.4</ele>
        <time>2024-01-12T11:44:07.659Z</time>
      </trkpt>
      <trkpt lat="43.67606" lon="6.19894">
        <ele>948.5</ele>
        <time>2024-01-12T11:44:20.417Z</time>
      </trkpt>
      <trkpt lat="43.676" lon="6.19889">
        <ele>946.4</ele>
        <time>2024-01-12T11:44:30.597Z</time>
      </trkpt>
      <trkpt lat="43.67595" lon="6.19887">
        <ele>944.3</ele>
        <time>2024-01-12T11:44:38.160Z</time>
      </trkpt>
      <trkpt lat="43.67591" lon="6.1989">
        <ele>943.4</ele>
        <time>2024-01-12T11:44:44.773Z</time>
      </trkpt>
      <trkpt lat="43.67587" lon="6.19893">
        <ele>941.7</ele>
        <time>2024-01-12T11:44:51.386Z</time>
      </trkpt>
      <trkpt lat="43.67582" lon="6.19886">
        <ele>940</ele>
        <time>2024-01-12T11:45:01.726Z</time>
      </trkpt>
      <trkpt lat="43.67579" lon="6.19883">
        <ele>938.4</ele>
        <time>2024-01-12T11:45:07.106Z</time>
      </trkpt>
      <trkpt lat="43.67571" lon="6.19882">
        <ele>935.5</ele>
        <time>2024-01-12T11:45:18.778Z</time>
      </trkpt>
      <trkpt lat="43.67567" lon="6.1988">
        <ele>934.1</ele>
        <time>2024-01-12T11:45:25.647Z</time>
      </trkpt>
      <trkpt lat="43.67562" lon="6.19878">
        <ele>932.8</ele>
        <time>2024-01-12T11:45:32.515Z</time>
      </trkpt>
      <trkpt lat="43.67559" lon="6.19872">
        <ele>932.8</ele>
        <time>2024-01-12T11:45:41.277Z</time>
      </trkpt>
      <trkpt lat="43.67556" lon="6.19866">
        <ele>933.2</ele>
        <time>2024-01-12T11:45:52.468Z</time>
      </trkpt>
      <trkpt lat="43.67553" lon="6.19861">
        <ele>933</ele>
        <time>2024-01-12T11:45:59.885Z</time>
      </trkpt>
      <trkpt lat="43.67549" lon="6.19856">
        <ele>930.5</ele>
        <time>2024-01-12T11:46:07.198Z</time>
      </trkpt>
      <trkpt lat="43.67542" lon="6.19855">
        <ele>928.5</ele>
        <time>2024-01-12T11:46:17.424Z</time>
      </trkpt>
      <trkpt lat="43.67535" lon="6.1985">
        <ele>926.3</ele>
        <time>2024-01-12T11:46:28.873Z</time>
      </trkpt>
      <trkpt lat="43.67529" lon="6.19842">
        <ele>925.1</ele>
        <time>2024-01-12T11:46:40.986Z</time>
      </trkpt>
      <trkpt lat="43.67527" lon="6.19836">
        <ele>924.4</ele>
        <time>2024-01-12T11:46:48.263Z</time>
      </trkpt>
      <trkpt lat="43.67524" lon="6.1983">
        <ele>922.4</ele>
        <time>2024-01-12T11:46:55.541Z</time>
      </trkpt>
      <trkpt lat="43.6752" lon="6.19819">
        <ele>918.4</ele>
        <time>2024-01-12T11:47:08.481Z</time>
      </trkpt>
      <trkpt lat="43.67517" lon="6.19815">
        <ele>916.5</ele>
        <time>2024-01-12T11:47:15.426Z</time>
      </trkpt>
      <trkpt lat="43.67513" lon="6.1981">
        <ele>914.9</ele>
        <time>2024-01-12T11:47:22.371Z</time>
      </trkpt>
      <trkpt lat="43.67509" lon="6.19805">
        <ele>913.5</ele>
        <time>2024-01-12T11:47:30.207Z</time>
      </trkpt>
      <trkpt lat="43.67505" lon="6.198">
        <ele>911.5</ele>
        <time>2024-01-12T11:47:38.043Z</time>
      </trkpt>
      <trkpt lat="43.67501" lon="6.19798">
        <ele>910.5</ele>
        <time>2024-01-12T11:47:44.224Z</time>
      </trkpt>
      <trkpt lat="43.67494" lon="6.19797">
        <ele>906.7</ele>
        <time>2024-01-12T11:47:54.450Z</time>
      </trkpt>
      <trkpt lat="43.67491" lon="6.19793">
        <ele>904.3</ele>
        <time>2024-01-12T11:48:00.506Z</time>
      </trkpt>
      <trkpt lat="43.67486" lon="6.19785">
        <ele>900.7</ele>
        <time>2024-01-12T11:48:11.618Z</time>
      </trkpt>
      <trkpt lat="43.67481" lon="6.19784">
        <ele>898.2</ele>
        <time>2024-01-12T11:48:18.960Z</time>
      </trkpt>
      <trkpt lat="43.67484" lon="6.19778">
        <ele>899.1</ele>
        <time>2024-01-12T11:48:34.685Z</time>
      </trkpt>
      <trkpt lat="43.67481" lon="6.19773">
        <ele>897.2</ele>
        <time>2024-01-12T11:48:42.385Z</time>
      </trkpt>
      <trkpt lat="43.67477" lon="6.19767">
        <ele>895.9</ele>
        <time>2024-01-12T11:48:50.084Z</time>
      </trkpt>
      <trkpt lat="43.67477" lon="6.19766">
        <ele>895.9</ele>
        <time>2024-01-12T11:48:51.285Z</time>
      </trkpt>
      <trkpt lat="43.67475" lon="6.1976">
        <ele>895.6</ele>
        <time>2024-01-12T11:48:58.229Z</time>
      </trkpt>
      <trkpt lat="43.67473" lon="6.19754">
        <ele>895.7</ele>
        <time>2024-01-12T11:49:06.699Z</time>
      </trkpt>
      <trkpt lat="43.6747" lon="6.19746">
        <ele>893.6</ele>
        <time>2024-01-12T11:49:16.170Z</time>
      </trkpt>
      <trkpt lat="43.67465" lon="6.1975">
        <ele>893.1</ele>
        <time>2024-01-12T11:49:24.565Z</time>
      </trkpt>
      <trkpt lat="43.67461" lon="6.19748">
        <ele>891.1</ele>
        <time>2024-01-12T11:49:30.746Z</time>
      </trkpt>
      <trkpt lat="43.67459" lon="6.19742">
        <ele>889.2</ele>
        <time>2024-01-12T11:49:37.689Z</time>
      </trkpt>
      <trkpt lat="43.67457" lon="6.19736">
        <ele>887.8</ele>
        <time>2024-01-12T11:49:44.633Z</time>
      </trkpt>
      <trkpt lat="43.67453" lon="6.19735">
        <ele>887.1</ele>
        <time>2024-01-12T11:49:50.539Z</time>
      </trkpt>
      <trkpt lat="43.67452" lon="6.19734">
        <ele>887</ele>
        <time>2024-01-12T11:49:52.333Z</time>
      </trkpt>
      <trkpt lat="43.67451" lon="6.19734">
        <ele>886.8</ele>
        <time>2024-01-12T11:49:53.786Z</time>
      </trkpt>
      <trkpt lat="43.67448" lon="6.19735">
        <ele>886.5</ele>
        <time>2024-01-12T11:49:58.270Z</time>
        <extensions>
          <visugpx:TrkExtension xmlns:visugpx="https://www.visugpx.com/editgpx/">
            <visugpx:node>3</visugpx:node>
            </visugpx:TrkExtension>
        </extensions>
      </trkpt>
      <trkpt lat="43.67448" lon="6.19724">
        <ele>886.6</ele>
        <time>2024-01-12T11:50:11.673Z</time>
      </trkpt>
      <trkpt lat="43.67447" lon="6.19714">
        <ele>886.9</ele>
        <time>2024-01-12T11:50:26.221Z</time>
      </trkpt>
      <trkpt lat="43.67447" lon="6.19703">
        <ele>887.2</ele>
        <time>2024-01-12T11:50:40.769Z</time>
      </trkpt>
      <trkpt lat="43.67446" lon="6.19692">
        <ele>887.5</ele>
        <time>2024-01-12T11:50:55.317Z</time>
      </trkpt>
      <trkpt lat="43.67441" lon="6.19691">
        <ele>886.4</ele>
        <time>2024-01-12T11:51:02.780Z</time>
      </trkpt>
      <trkpt lat="43.67436" lon="6.1969">
        <ele>884.2</ele>
        <time>2024-01-12T11:51:10.244Z</time>
      </trkpt>
      <trkpt lat="43.67432" lon="6.19695">
        <ele>882.2</ele>
        <time>2024-01-12T11:51:18.134Z</time>
      </trkpt>
      <trkpt lat="43.67429" lon="6.19701">
        <ele>879.2</ele>
        <time>2024-01-12T11:51:26.023Z</time>
      </trkpt>
      <trkpt lat="43.67425" lon="6.19706">
        <ele>875.9</ele>
        <time>2024-01-12T11:51:33.913Z</time>
      </trkpt>
      <trkpt lat="43.67422" lon="6.19712">
        <ele>872</ele>
        <time>2024-01-12T11:51:41.802Z</time>
      </trkpt>
      <trkpt lat="43.67427" lon="6.19707">
        <ele>876.8</ele>
        <time>2024-01-12T11:52:38.635Z</time>
      </trkpt>
      <trkpt lat="43.67432" lon="6.19701">
        <ele>880.9</ele>
        <time>2024-01-12T11:53:35.468Z</time>
      </trkpt>
      <trkpt lat="43.67437" lon="6.19696">
        <ele>884.5</ele>
        <time>2024-01-12T11:54:32.301Z</time>
      </trkpt>
      <trkpt lat="43.67443" lon="6.19691">
        <ele>887</ele>
        <time>2024-01-12T11:55:18.322Z</time>
      </trkpt>
      <trkpt lat="43.67448" lon="6.19701">
        <ele>887</ele>
        <time>2024-01-12T11:55:33.156Z</time>
      </trkpt>
      <trkpt lat="43.67449" lon="6.19708">
        <ele>886.6</ele>
        <time>2024-01-12T11:55:41.365Z</time>
      </trkpt>
      <trkpt lat="43.67451" lon="6.19716">
        <ele>886.3</ele>
        <time>2024-01-12T11:55:49.574Z</time>
      </trkpt>
      <trkpt lat="43.67449" lon="6.19725">
        <ele>886.5</ele>
        <time>2024-01-12T11:56:02.399Z</time>
      </trkpt>
      <trkpt lat="43.67448" lon="6.19735">
        <ele>886.5</ele>
        <time>2024-01-12T11:56:14.135Z</time>
        <extensions>
          <visugpx:TrkExtension xmlns:visugpx="https://www.visugpx.com/editgpx/">
            <visugpx:node>2</visugpx:node>
            </visugpx:TrkExtension>
        </extensions>
      </trkpt>
      <trkpt lat="43.67451" lon="6.19734">
        <ele>886.8</ele>
        <time>2024-01-12T11:56:21.180Z</time>
      </trkpt>
      <trkpt lat="43.67452" lon="6.19734">
        <ele>887</ele>
        <time>2024-01-12T11:56:24.519Z</time>
      </trkpt>
      <trkpt lat="43.67454" lon="6.19737">
        <ele>887.5</ele>
        <time>2024-01-12T11:56:33.276Z</time>
      </trkpt>
      <trkpt lat="43.6745" lon="6.19739">
        <ele>886.9</ele>
        <time>2024-01-12T11:56:39.457Z</time>
      </trkpt>
      <trkpt lat="43.67454" lon="6.19741">
        <ele>887.9</ele>
        <time>2024-01-12T11:56:55.788Z</time>
      </trkpt>
      <trkpt lat="43.67453" lon="6.19744">
        <ele>887.9</ele>
        <time>2024-01-12T11:56:59.756Z</time>
      </trkpt>
      <trkpt lat="43.67455" lon="6.19746">
        <ele>888.7</ele>
        <time>2024-01-12T11:57:13.453Z</time>
      </trkpt>
      <trkpt lat="43.67458" lon="6.19735">
        <ele>887.8</ele>
        <time>2024-01-12T11:57:25.809Z</time>
      </trkpt>
      <trkpt lat="43.67453" lon="6.19735">
        <ele>887.1</ele>
        <time>2024-01-12T11:57:33.074Z</time>
      </trkpt>
      <trkpt lat="43.67457" lon="6.19736">
        <ele>887.8</ele>
        <time>2024-01-12T11:57:45.265Z</time>
      </trkpt>
      <trkpt lat="43.67459" lon="6.19742">
        <ele>889.2</ele>
        <time>2024-01-12T11:58:08.552Z</time>
      </trkpt>
      <trkpt lat="43.67461" lon="6.19748">
        <ele>891.1</ele>
        <time>2024-01-12T11:58:44.144Z</time>
      </trkpt>
      <trkpt lat="43.67465" lon="6.1975">
        <ele>893.1</ele>
        <time>2024-01-12T11:59:21.230Z</time>
      </trkpt>
      <trkpt lat="43.6747" lon="6.19746">
        <ele>893.6</ele>
        <time>2024-01-12T11:59:33.941Z</time>
      </trkpt>
      <trkpt lat="43.67473" lon="6.19754">
        <ele>895.7</ele>
        <time>2024-01-12T12:00:09.823Z</time>
      </trkpt>
      <trkpt lat="43.67475" lon="6.1976">
        <ele>895.6</ele>
        <time>2024-01-12T12:00:17.270Z</time>
      </trkpt>
      <trkpt lat="43.67477" lon="6.19766">
        <ele>895.9</ele>
        <time>2024-01-12T12:00:26.972Z</time>
      </trkpt>
      <trkpt lat="43.67477" lon="6.19767">
        <ele>895.9</ele>
        <time>2024-01-12T12:00:28.173Z</time>
      </trkpt>
      <trkpt lat="43.67481" lon="6.19773">
        <ele>897.2</ele>
        <time>2024-01-12T12:00:49.381Z</time>
      </trkpt>
      <trkpt lat="43.67484" lon="6.19778">
        <ele>899.1</ele>
        <time>2024-01-12T12:01:23.267Z</time>
      </trkpt>
      <trkpt lat="43.67481" lon="6.19784">
        <ele>898.2</ele>
        <time>2024-01-12T12:01:30.934Z</time>
      </trkpt>
      <trkpt lat="43.67486" lon="6.19785">
        <ele>900.7</ele>
        <time>2024-01-12T12:02:14.981Z</time>
      </trkpt>
      <trkpt lat="43.67491" lon="6.19793">
        <ele>904.3</ele>
        <time>2024-01-12T12:03:21.655Z</time>
      </trkpt>
      <trkpt lat="43.67494" lon="6.19797">
        <ele>906.7</ele>
        <time>2024-01-12T12:03:57.992Z</time>
      </trkpt>
      <trkpt lat="43.67501" lon="6.19798">
        <ele>910.5</ele>
        <time>2024-01-12T12:04:59.349Z</time>
      </trkpt>
      <trkpt lat="43.67505" lon="6.198">
        <ele>911.5</ele>
        <time>2024-01-12T12:05:15.679Z</time>
      </trkpt>
      <trkpt lat="43.67509" lon="6.19805">
        <ele>913.5</ele>
        <time>2024-01-12T12:05:51.911Z</time>
      </trkpt>
      <trkpt lat="43.67513" lon="6.1981">
        <ele>914.9</ele>
        <time>2024-01-12T12:06:14.793Z</time>
      </trkpt>
      <trkpt lat="43.67517" lon="6.19815">
        <ele>916.5</ele>
        <time>2024-01-12T12:06:42.516Z</time>
      </trkpt>
      <trkpt lat="43.6752" lon="6.19819">
        <ele>918.4</ele>
        <time>2024-01-12T12:07:18.105Z</time>
      </trkpt>
      <trkpt lat="43.67524" lon="6.1983">
        <ele>922.4</ele>
        <time>2024-01-12T12:08:35.744Z</time>
      </trkpt>
      <trkpt lat="43.67527" lon="6.19836">
        <ele>924.4</ele>
        <time>2024-01-12T12:09:13.287Z</time>
      </trkpt>
      <trkpt lat="43.67529" lon="6.19842">
        <ele>925.1</ele>
        <time>2024-01-12T12:09:26.595Z</time>
      </trkpt>
      <trkpt lat="43.67535" lon="6.1985">
        <ele>926.3</ele>
        <time>2024-01-12T12:09:49.088Z</time>
      </trkpt>
      <trkpt lat="43.67542" lon="6.19855">
        <ele>928.5</ele>
        <time>2024-01-12T12:10:25.346Z</time>
      </trkpt>
      <trkpt lat="43.67549" lon="6.19856">
        <ele>930.5</ele>
        <time>2024-01-12T12:10:58.408Z</time>
      </trkpt>
      <trkpt lat="43.67553" lon="6.19861">
        <ele>933</ele>
        <time>2024-01-12T12:11:42.286Z</time>
      </trkpt>
      <trkpt lat="43.67556" lon="6.19866">
        <ele>933.2</ele>
        <time>2024-01-12T12:11:51.761Z</time>
      </trkpt>
      <trkpt lat="43.67559" lon="6.19872">
        <ele>932.8</ele>
        <time>2024-01-12T12:11:59.427Z</time>
      </trkpt>
      <trkpt lat="43.67562" lon="6.19878">
        <ele>932.8</ele>
        <time>2024-01-12T12:12:08.188Z</time>
      </trkpt>
      <trkpt lat="43.67567" lon="6.1988">
        <ele>934.1</ele>
        <time>2024-01-12T12:12:29.565Z</time>
      </trkpt>
      <trkpt lat="43.67571" lon="6.19882">
        <ele>935.5</ele>
        <time>2024-01-12T12:12:52.909Z</time>
      </trkpt>
      <trkpt lat="43.67579" lon="6.19883">
        <ele>938.4</ele>
        <time>2024-01-12T12:13:44.790Z</time>
      </trkpt>
      <trkpt lat="43.67582" lon="6.19886">
        <ele>940</ele>
        <time>2024-01-12T12:14:15.897Z</time>
      </trkpt>
      <trkpt lat="43.67587" lon="6.19893">
        <ele>941.7</ele>
        <time>2024-01-12T12:14:43.641Z</time>
      </trkpt>
      <trkpt lat="43.67591" lon="6.1989">
        <ele>943.4</ele>
        <time>2024-01-12T12:15:14.543Z</time>
      </trkpt>
      <trkpt lat="43.67595" lon="6.19887">
        <ele>944.3</ele>
        <time>2024-01-12T12:15:29.604Z</time>
      </trkpt>
      <trkpt lat="43.676" lon="6.19889">
        <ele>946.4</ele>
        <time>2024-01-12T12:16:09.218Z</time>
      </trkpt>
      <trkpt lat="43.67606" lon="6.19894">
        <ele>948.5</ele>
        <time>2024-01-12T12:16:44.338Z</time>
      </trkpt>
      <trkpt lat="43.67614" lon="6.19899">
        <ele>951.4</ele>
        <time>2024-01-12T12:17:34.331Z</time>
      </trkpt>
      <trkpt lat="43.67622" lon="6.19904">
        <ele>954.2</ele>
        <time>2024-01-12T12:18:22.011Z</time>
      </trkpt>
      <trkpt lat="43.6763" lon="6.19908">
        <ele>957.6</ele>
        <time>2024-01-12T12:19:25.859Z</time>
      </trkpt>
      <trkpt lat="43.67634" lon="6.19912">
        <ele>960.3</ele>
        <time>2024-01-12T12:20:08.899Z</time>
      </trkpt>
      <trkpt lat="43.67638" lon="6.19916">
        <ele>963.4</ele>
        <time>2024-01-12T12:20:51.940Z</time>
      </trkpt>
      <trkpt lat="43.67641" lon="6.19922">
        <ele>964.7</ele>
        <time>2024-01-12T12:21:13.196Z</time>
      </trkpt>
      <trkpt lat="43.67644" lon="6.19927">
        <ele>965.9</ele>
        <time>2024-01-12T12:21:32.776Z</time>
      </trkpt>
      <trkpt lat="43.67646" lon="6.19934">
        <ele>967.4</ele>
        <time>2024-01-12T12:21:57.737Z</time>
      </trkpt>
      <trkpt lat="43.67648" lon="6.1994">
        <ele>969.1</ele>
        <time>2024-01-12T12:22:27.125Z</time>
      </trkpt>
      <trkpt lat="43.67651" lon="6.19946">
        <ele>971.1</ele>
        <time>2024-01-12T12:23:04.761Z</time>
      </trkpt>
      <trkpt lat="43.67654" lon="6.19951">
        <ele>971.8</ele>
        <time>2024-01-12T12:23:18.036Z</time>
      </trkpt>
      <trkpt lat="43.67656" lon="6.19957">
        <ele>972</ele>
        <time>2024-01-12T12:23:27.093Z</time>
      </trkpt>
      <trkpt lat="43.67658" lon="6.19963">
        <ele>972.3</ele>
        <time>2024-01-12T12:23:36.795Z</time>
      </trkpt>
      <trkpt lat="43.67663" lon="6.19965">
        <ele>974.2</ele>
        <time>2024-01-12T12:24:10.959Z</time>
      </trkpt>
      <trkpt lat="43.67668" lon="6.19967">
        <ele>975.6</ele>
        <time>2024-01-12T12:24:33.915Z</time>
      </trkpt>
      <trkpt lat="43.67675" lon="6.19963">
        <ele>976.2</ele>
        <time>2024-01-12T12:24:50.169Z</time>
      </trkpt>
      <trkpt lat="43.67677" lon="6.1996">
        <ele>976.5</ele>
        <time>2024-01-12T12:24:57.011Z</time>
        <extensions>
          <visugpx:TrkExtension xmlns:visugpx="https://www.visugpx.com/editgpx/">
            <visugpx:node>1</visugpx:node>
            </visugpx:TrkExtension>
        </extensions>
      </trkpt>
      <trkpt lat="43.67681" lon="6.19957">
        <ele>976.9</ele>
        <time>2024-01-12T12:25:07.070Z</time>
        <extensions>
          <visugpx:TrkExtension xmlns:visugpx="https://www.visugpx.com/editgpx/">
            <visugpx:node>5</visugpx:node>
            </visugpx:TrkExtension>
        </extensions>
      </trkpt>
      <trkpt lat="43.67685" lon="6.19954">
        <ele>977.2</ele>
        <time>2024-01-12T12:25:16.407Z</time>
      </trkpt>
      <trkpt lat="43.67687" lon="6.19954">
        <ele>977.2</ele>
        <time>2024-01-12T12:25:19.729Z</time>
        <extensions>
          <visugpx:TrkExtension xmlns:visugpx="https://www.visugpx.com/editgpx/">
            <visugpx:node>6</visugpx:node>
            </visugpx:TrkExtension>
        </extensions>
      </trkpt>
      <trkpt lat="43.67691" lon="6.19954">
        <ele>977.3</ele>
        <time>2024-01-12T12:25:26.912Z</time>
      </trkpt>
      <trkpt lat="43.67693" lon="6.19952">
        <ele>977.4</ele>
        <time>2024-01-12T12:25:31.570Z</time>
      </trkpt>
      <trkpt lat="43.67694" lon="6.1995">
        <ele>977.6</ele>
        <time>2024-01-12T12:25:35.824Z</time>
      </trkpt>
      <trkpt lat="43.67696" lon="6.1995">
        <ele>976.8</ele>
        <time>2024-01-12T12:25:38.731Z</time>
      </trkpt>
      <trkpt lat="43.67698" lon="6.19951">
        <ele>975.8</ele>
        <time>2024-01-12T12:25:41.821Z</time>
      </trkpt>
      <trkpt lat="43.677" lon="6.19952">
        <ele>974.7</ele>
        <time>2024-01-12T12:25:44.912Z</time>
      </trkpt>
      <trkpt lat="43.67702" lon="6.1995">
        <ele>973.9</ele>
        <time>2024-01-12T12:25:48.498Z</time>
      </trkpt>
      <trkpt lat="43.67704" lon="6.19948">
        <ele>973.1</ele>
        <time>2024-01-12T12:25:52.085Z</time>
      </trkpt>
      <trkpt lat="43.67706" lon="6.19946">
        <ele>972.4</ele>
        <time>2024-01-12T12:25:55.672Z</time>
      </trkpt>
      <trkpt lat="43.67708" lon="6.19945">
        <ele>971.6</ele>
        <time>2024-01-12T12:25:58.762Z</time>
      </trkpt>
      <trkpt lat="43.67711" lon="6.19943">
        <ele>970.2</ele>
        <time>2024-01-12T12:26:03.602Z</time>
      </trkpt>
      <trkpt lat="43.67713" lon="6.19939">
        <ele>969.5</ele>
        <time>2024-01-12T12:26:08.712Z</time>
      </trkpt>
      <trkpt lat="43.67715" lon="6.19936">
        <ele>968.9</ele>
        <time>2024-01-12T12:26:13.000Z</time>
      </trkpt>
      <trkpt lat="43.67717" lon="6.19934">
        <ele>968.4</ele>
        <time>2024-01-12T12:26:16.587Z</time>
      </trkpt>
      <trkpt lat="43.67718" lon="6.19931">
        <ele>968.4</ele>
        <time>2024-01-12T12:26:20.555Z</time>
      </trkpt>
      <trkpt lat="43.67719" lon="6.19928">
        <ele>968.6</ele>
        <time>2024-01-12T12:26:25.761Z</time>
      </trkpt>
      <trkpt lat="43.6772" lon="6.19924">
        <ele>969</ele>
        <time>2024-01-12T12:26:33.629Z</time>
      </trkpt>
      <trkpt lat="43.67721" lon="6.19921">
        <ele>969.3</ele>
        <time>2024-01-12T12:26:39.659Z</time>
      </trkpt>
      <trkpt lat="43.67723" lon="6.19917">
        <ele>969.6</ele>
        <time>2024-01-12T12:26:47.364Z</time>
      </trkpt>
      <trkpt lat="43.67724" lon="6.19914">
        <ele>968.6</ele>
        <time>2024-01-12T12:26:50.836Z</time>
      </trkpt>
      <trkpt lat="43.67726" lon="6.19911">
        <ele>967.3</ele>
        <time>2024-01-12T12:26:55.124Z</time>
      </trkpt>
      <trkpt lat="43.67727" lon="6.19908">
        <ele>966.4</ele>
        <time>2024-01-12T12:26:58.596Z</time>
      </trkpt>
      <trkpt lat="43.67729" lon="6.19906">
        <ele>965.6</ele>
        <time>2024-01-12T12:27:02.182Z</time>
      </trkpt>
      <trkpt lat="43.67731" lon="6.19904">
        <ele>964.9</ele>
        <time>2024-01-12T12:27:05.769Z</time>
      </trkpt>
      <trkpt lat="43.67733" lon="6.19902">
        <ele>964.3</ele>
        <time>2024-01-12T12:27:09.356Z</time>
      </trkpt>
      <trkpt lat="43.67736" lon="6.19901">
        <ele>963.7</ele>
        <time>2024-01-12T12:27:13.840Z</time>
      </trkpt>
      <trkpt lat="43.67738" lon="6.199">
        <ele>963.4</ele>
        <time>2024-01-12T12:27:16.931Z</time>
      </trkpt>
      <trkpt lat="43.6774" lon="6.19897">
        <ele>963.3</ele>
        <time>2024-01-12T12:27:21.355Z</time>
      </trkpt>
      <trkpt lat="43.67742" lon="6.19895">
        <ele>963.2</ele>
        <time>2024-01-12T12:27:24.985Z</time>
      </trkpt>
      <trkpt lat="43.67744" lon="6.19893">
        <ele>963.3</ele>
        <time>2024-01-12T12:27:29.643Z</time>
      </trkpt>
      <trkpt lat="43.67746" lon="6.1989">
        <ele>963.7</ele>
        <time>2024-01-12T12:27:37.365Z</time>
      </trkpt>
      <trkpt lat="43.67748" lon="6.19887">
        <ele>963.7</ele>
        <time>2024-01-12T12:27:42.265Z</time>
      </trkpt>
      <trkpt lat="43.67751" lon="6.19882">
        <ele>962.9</ele>
        <time>2024-01-12T12:27:49.093Z</time>
      </trkpt>
      <trkpt lat="43.67752" lon="6.19879">
        <ele>962.3</ele>
        <time>2024-01-12T12:27:52.564Z</time>
      </trkpt>
      <trkpt lat="43.67754" lon="6.19876">
        <ele>961.6</ele>
        <time>2024-01-12T12:27:56.852Z</time>
      </trkpt>
      <trkpt lat="43.67755" lon="6.19874">
        <ele>961.3</ele>
        <time>2024-01-12T12:27:59.408Z</time>
      </trkpt>
      <trkpt lat="43.67758" lon="6.19873">
        <ele>960.6</ele>
        <time>2024-01-12T12:28:03.892Z</time>
      </trkpt>
      <trkpt lat="43.6776" lon="6.19871">
        <ele>960.3</ele>
        <time>2024-01-12T12:28:07.479Z</time>
      </trkpt>
      <trkpt lat="43.67764" lon="6.19869">
        <ele>959.8</ele>
        <time>2024-01-12T12:28:13.659Z</time>
      </trkpt>
      <trkpt lat="43.67767" lon="6.19869">
        <ele>959.3</ele>
        <time>2024-01-12T12:28:18.019Z</time>
      </trkpt>
      <trkpt lat="43.67772" lon="6.19868">
        <ele>958.8</ele>
        <time>2024-01-12T12:28:25.360Z</time>
      </trkpt>
      <trkpt lat="43.67773" lon="6.19866">
        <ele>959.1</ele>
        <time>2024-01-12T12:28:30.602Z</time>
      </trkpt>
      <trkpt lat="43.67775" lon="6.19864">
        <ele>959.4</ele>
        <time>2024-01-12T12:28:36.742Z</time>
      </trkpt>
      <trkpt lat="43.67777" lon="6.19862">
        <ele>959.8</ele>
        <time>2024-01-12T12:28:43.866Z</time>
      </trkpt>
      <trkpt lat="43.67781" lon="6.19858">
        <ele>958.9</ele>
        <time>2024-01-12T12:28:51.039Z</time>
      </trkpt>
      <trkpt lat="43.67782" lon="6.19856">
        <ele>958.7</ele>
        <time>2024-01-12T12:28:53.594Z</time>
      </trkpt>
      <trkpt lat="43.67784" lon="6.19854">
        <ele>958.2</ele>
        <time>2024-01-12T12:28:57.181Z</time>
      </trkpt>
      <trkpt lat="43.67786" lon="6.19851">
        <ele>957.9</ele>
        <time>2024-01-12T12:29:01.469Z</time>
      </trkpt>
      <trkpt lat="43.67789" lon="6.19848">
        <ele>957.4</ele>
        <time>2024-01-12T12:29:06.849Z</time>
      </trkpt>
      <trkpt lat="43.67791" lon="6.19846">
        <ele>957.2</ele>
        <time>2024-01-12T12:29:10.436Z</time>
      </trkpt>
      <trkpt lat="43.67793" lon="6.19842">
        <ele>957.4</ele>
        <time>2024-01-12T12:29:17.438Z</time>
      </trkpt>
      <trkpt lat="43.67796" lon="6.19839">
        <ele>957.4</ele>
        <time>2024-01-12T12:29:23.587Z</time>
      </trkpt>
      <trkpt lat="43.67798" lon="6.19839">
        <ele>956.9</ele>
        <time>2024-01-12T12:29:26.493Z</time>
      </trkpt>
      <trkpt lat="43.678" lon="6.19838">
        <ele>956.7</ele>
        <time>2024-01-12T12:29:29.584Z</time>
      </trkpt>
      <trkpt lat="43.67801" lon="6.19836">
        <ele>957.1</ele>
        <time>2024-01-12T12:29:36.130Z</time>
      </trkpt>
      <trkpt lat="43.67802" lon="6.19833">
        <ele>957.6</ele>
        <time>2024-01-12T12:29:44.403Z</time>
      </trkpt>
      <trkpt lat="43.67804" lon="6.1983">
        <ele>956.8</ele>
        <time>2024-01-12T12:29:48.691Z</time>
      </trkpt>
      <trkpt lat="43.67806" lon="6.19828">
        <ele>956.1</ele>
        <time>2024-01-12T12:29:52.278Z</time>
      </trkpt>
      <trkpt lat="43.67807" lon="6.19826">
        <ele>955.6</ele>
        <time>2024-01-12T12:29:54.833Z</time>
      </trkpt>
      <trkpt lat="43.67808" lon="6.19823">
        <ele>954.9</ele>
        <time>2024-01-12T12:29:58.305Z</time>
      </trkpt>
      <trkpt lat="43.67809" lon="6.19822">
        <ele>954.6</ele>
        <time>2024-01-12T12:30:00.098Z</time>
      </trkpt>
      <trkpt lat="43.67812" lon="6.19821">
        <ele>953.9</ele>
        <time>2024-01-12T12:30:04.583Z</time>
      </trkpt>
      <trkpt lat="43.67814" lon="6.19821">
        <ele>953.4</ele>
        <time>2024-01-12T12:30:07.489Z</time>
      </trkpt>
      <trkpt lat="43.67817" lon="6.19823">
        <ele>952.9</ele>
        <time>2024-01-12T12:30:12.328Z</time>
      </trkpt>
      <trkpt lat="43.6782" lon="6.1982">
        <ele>952.1</ele>
        <time>2024-01-12T12:30:17.708Z</time>
      </trkpt>
      <trkpt lat="43.67823" lon="6.19819">
        <ele>951.6</ele>
        <time>2024-01-12T12:30:22.193Z</time>
      </trkpt>
      <trkpt lat="43.67825" lon="6.19817">
        <ele>951.2</ele>
        <time>2024-01-12T12:30:25.779Z</time>
      </trkpt>
      <trkpt lat="43.67827" lon="6.19814">
        <ele>951</ele>
        <time>2024-01-12T12:30:30.067Z</time>
      </trkpt>
      <trkpt lat="43.67828" lon="6.1981">
        <ele>951.1</ele>
        <time>2024-01-12T12:30:35.700Z</time>
      </trkpt>
      <trkpt lat="43.6783" lon="6.19808">
        <ele>951</ele>
        <time>2024-01-12T12:30:39.330Z</time>
      </trkpt>
      <trkpt lat="43.67832" lon="6.19806">
        <ele>951.1</ele>
        <time>2024-01-12T12:30:43.988Z</time>
      </trkpt>
      <trkpt lat="43.67835" lon="6.19808">
        <ele>950.2</ele>
        <time>2024-01-12T12:30:48.828Z</time>
      </trkpt>
      <trkpt lat="43.67837" lon="6.19808">
        <ele>949.6</ele>
        <time>2024-01-12T12:30:51.734Z</time>
      </trkpt>
      <trkpt lat="43.6784" lon="6.19806">
        <ele>949</ele>
        <time>2024-01-12T12:30:56.574Z</time>
      </trkpt>
      <trkpt lat="43.67842" lon="6.19805">
        <ele>948.4</ele>
        <time>2024-01-12T12:30:59.664Z</time>
      </trkpt>
      <trkpt lat="43.67844" lon="6.19804">
        <ele>947.8</ele>
        <time>2024-01-12T12:31:02.754Z</time>
      </trkpt>
      <trkpt lat="43.67846" lon="6.19804">
        <ele>947.3</ele>
        <time>2024-01-12T12:31:05.661Z</time>
      </trkpt>
      <trkpt lat="43.67849" lon="6.19803">
        <ele>946.5</ele>
        <time>2024-01-12T12:31:10.145Z</time>
      </trkpt>
      <trkpt lat="43.6785" lon="6.19803">
        <ele>946.2</ele>
        <time>2024-01-12T12:31:11.598Z</time>
      </trkpt>
      <trkpt lat="43.67851" lon="6.19802">
        <ele>946</ele>
        <time>2024-01-12T12:31:13.391Z</time>
      </trkpt>
      <trkpt lat="43.67852" lon="6.198">
        <ele>945.8</ele>
        <time>2024-01-12T12:31:15.947Z</time>
      </trkpt>
      <trkpt lat="43.67854" lon="6.19799">
        <ele>945.4</ele>
        <time>2024-01-12T12:31:19.037Z</time>
      </trkpt>
      <trkpt lat="43.67857" lon="6.19798">
        <ele>944.9</ele>
        <time>2024-01-12T12:31:23.521Z</time>
      </trkpt>
      <trkpt lat="43.67858" lon="6.19796">
        <ele>944.9</ele>
        <time>2024-01-12T12:31:26.442Z</time>
      </trkpt>
      <trkpt lat="43.6786" lon="6.19794">
        <ele>944.8</ele>
        <time>2024-01-12T12:31:30.071Z</time>
      </trkpt>
      <trkpt lat="43.67862" lon="6.1979">
        <ele>945</ele>
        <time>2024-01-12T12:31:37.074Z</time>
      </trkpt>
      <trkpt lat="43.67863" lon="6.19787">
        <ele>945.1</ele>
        <time>2024-01-12T12:31:41.602Z</time>
      </trkpt>
      <trkpt lat="43.67864" lon="6.19784">
        <ele>945.3</ele>
        <time>2024-01-12T12:31:46.808Z</time>
      </trkpt>
      <trkpt lat="43.67866" lon="6.19781">
        <ele>945.2</ele>
        <time>2024-01-12T12:31:51.233Z</time>
      </trkpt>
      <trkpt lat="43.67867" lon="6.19778">
        <ele>945.5</ele>
        <time>2024-01-12T12:31:57.262Z</time>
      </trkpt>
      <trkpt lat="43.67869" lon="6.19775">
        <ele>944.8</ele>
        <time>2024-01-12T12:32:01.550Z</time>
      </trkpt>
      <trkpt lat="43.67871" lon="6.19772">
        <ele>944.1</ele>
        <time>2024-01-12T12:32:05.838Z</time>
      </trkpt>
      <trkpt lat="43.67872" lon="6.19769">
        <ele>943.8</ele>
        <time>2024-01-12T12:32:09.310Z</time>
      </trkpt>
      <trkpt lat="43.67875" lon="6.19766">
        <ele>943.5</ele>
        <time>2024-01-12T12:32:14.690Z</time>
      </trkpt>
      <trkpt lat="43.67876" lon="6.19763">
        <ele>943.5</ele>
        <time>2024-01-12T12:32:18.657Z</time>
      </trkpt>
      <trkpt lat="43.67877" lon="6.19761">
        <ele>943.5</ele>
        <time>2024-01-12T12:32:21.577Z</time>
      </trkpt>
      <trkpt lat="43.67879" lon="6.19757">
        <ele>943.8</ele>
        <time>2024-01-12T12:32:29.283Z</time>
      </trkpt>
      <trkpt lat="43.67879" lon="6.19754">
        <ele>944</ele>
        <time>2024-01-12T12:32:34.150Z</time>
      </trkpt>
      <trkpt lat="43.67881" lon="6.19751">
        <ele>944.5</ele>
        <time>2024-01-12T12:32:42.908Z</time>
      </trkpt>
      <trkpt lat="43.67883" lon="6.19749">
        <ele>944.9</ele>
        <time>2024-01-12T12:32:50.032Z</time>
      </trkpt>
      <trkpt lat="43.67886" lon="6.19748">
        <ele>945.4</ele>
        <time>2024-01-12T12:32:58.938Z</time>
      </trkpt>
      <trkpt lat="43.67889" lon="6.19741">
        <ele>945.7</ele>
        <time>2024-01-12T12:33:10.429Z</time>
      </trkpt>
      <trkpt lat="43.67891" lon="6.1974">
        <ele>945.3</ele>
        <time>2024-01-12T12:33:13.520Z</time>
      </trkpt>
      <trkpt lat="43.67892" lon="6.19738">
        <ele>945.2</ele>
        <time>2024-01-12T12:33:16.075Z</time>
      </trkpt>
      <trkpt lat="43.67893" lon="6.19734">
        <ele>945.1</ele>
        <time>2024-01-12T12:33:20.681Z</time>
      </trkpt>
      <trkpt lat="43.67895" lon="6.19731">
        <ele>945</ele>
        <time>2024-01-12T12:33:25.106Z</time>
      </trkpt>
      <trkpt lat="43.67896" lon="6.19728">
        <ele>945</ele>
        <time>2024-01-12T12:33:29.073Z</time>
      </trkpt>
      <trkpt lat="43.67898" lon="6.19725">
        <ele>945.2</ele>
        <time>2024-01-12T12:33:35.166Z</time>
      </trkpt>
      <trkpt lat="43.679" lon="6.19723">
        <ele>945.3</ele>
        <time>2024-01-12T12:33:39.824Z</time>
      </trkpt>
      <trkpt lat="43.67902" lon="6.19721">
        <ele>945.4</ele>
        <time>2024-01-12T12:33:44.482Z</time>
      </trkpt>
      <trkpt lat="43.67904" lon="6.19719">
        <ele>945.4</ele>
        <time>2024-01-12T12:33:48.581Z</time>
      </trkpt>
      <trkpt lat="43.67906" lon="6.19717">
        <ele>945.5</ele>
        <time>2024-01-12T12:33:53.240Z</time>
      </trkpt>
      <trkpt lat="43.67908" lon="6.19715">
        <ele>945.7</ele>
        <time>2024-01-12T12:33:58.569Z</time>
      </trkpt>
      <trkpt lat="43.6791" lon="6.19713">
        <ele>946</ele>
        <time>2024-01-12T12:34:04.709Z</time>
      </trkpt>
      <trkpt lat="43.67911" lon="6.19711">
        <ele>946.3</ele>
        <time>2024-01-12T12:34:09.951Z</time>
      </trkpt>
      <trkpt lat="43.67913" lon="6.19709">
        <ele>946.7</ele>
        <time>2024-01-12T12:34:17.075Z</time>
      </trkpt>
      <trkpt lat="43.67915" lon="6.19707">
        <ele>947.3</ele>
        <time>2024-01-12T12:34:26.863Z</time>
      </trkpt>
      <trkpt lat="43.67916" lon="6.19704">
        <ele>947.8</ele>
        <time>2024-01-12T12:34:35.136Z</time>
      </trkpt>
      <trkpt lat="43.67918" lon="6.19702">
        <ele>948.1</ele>
        <time>2024-01-12T12:34:41.276Z</time>
      </trkpt>
      <trkpt lat="43.6792" lon="6.19699">
        <ele>948.3</ele>
        <time>2024-01-12T12:34:47.369Z</time>
      </trkpt>
      <trkpt lat="43.67922" lon="6.19697">
        <ele>948.4</ele>
        <time>2024-01-12T12:34:52.027Z</time>
      </trkpt>
      <trkpt lat="43.67924" lon="6.19695">
        <ele>948.6</ele>
        <time>2024-01-12T12:34:57.356Z</time>
      </trkpt>
      <trkpt lat="43.67926" lon="6.19694">
        <ele>948.7</ele>
        <time>2024-01-12T12:35:01.456Z</time>
      </trkpt>
      <trkpt lat="43.67929" lon="6.19692">
        <ele>948.6</ele>
        <time>2024-01-12T12:35:06.507Z</time>
      </trkpt>
      <trkpt lat="43.6793" lon="6.19689">
        <ele>948.7</ele>
        <time>2024-01-12T12:35:11.036Z</time>
      </trkpt>
      <trkpt lat="43.67932" lon="6.19686">
        <ele>948.9</ele>
        <time>2024-01-12T12:35:17.128Z</time>
      </trkpt>
      <trkpt lat="43.67933" lon="6.19684">
        <ele>949.1</ele>
        <time>2024-01-12T12:35:21.382Z</time>
      </trkpt>
      <trkpt lat="43.67935" lon="6.19682">
        <ele>949.4</ele>
        <time>2024-01-12T12:35:27.522Z</time>
      </trkpt>
      <trkpt lat="43.67937" lon="6.19681">
        <ele>949.7</ele>
        <time>2024-01-12T12:35:33.200Z</time>
      </trkpt>
      <trkpt lat="43.67939" lon="6.1968">
        <ele>950</ele>
        <time>2024-01-12T12:35:38.878Z</time>
      </trkpt>
      <trkpt lat="43.67942" lon="6.19679">
        <ele>950.5</ele>
        <time>2024-01-12T12:35:47.784Z</time>
      </trkpt>
      <trkpt lat="43.67944" lon="6.19676">
        <ele>951.3</ele>
        <time>2024-01-12T12:36:00.914Z</time>
      </trkpt>
      <trkpt lat="43.67946" lon="6.19674">
        <ele>951.5</ele>
        <time>2024-01-12T12:36:06.243Z</time>
      </trkpt>
      <trkpt lat="43.67948" lon="6.19672">
        <ele>951.8</ele>
        <time>2024-01-12T12:36:12.383Z</time>
      </trkpt>
      <trkpt lat="43.6795" lon="6.1967">
        <ele>952.1</ele>
        <time>2024-01-12T12:36:18.523Z</time>
      </trkpt>
      <trkpt lat="43.67953" lon="6.19664">
        <ele>952.7</ele>
        <time>2024-01-12T12:36:31.285Z</time>
      </trkpt>
      <trkpt lat="43.67956" lon="6.19659">
        <ele>952.7</ele>
        <time>2024-01-12T12:36:39.088Z</time>
      </trkpt>
      <trkpt lat="43.67956" lon="6.19656">
        <ele>952.7</ele>
        <time>2024-01-12T12:36:42.691Z</time>
      </trkpt>
      <trkpt lat="43.67958" lon="6.19653">
        <ele>952.7</ele>
        <time>2024-01-12T12:36:47.592Z</time>
      </trkpt>
      <trkpt lat="43.6796" lon="6.19652">
        <ele>952.8</ele>
        <time>2024-01-12T12:36:51.692Z</time>
      </trkpt>
      <trkpt lat="43.67963" lon="6.19652">
        <ele>952.9</ele>
        <time>2024-01-12T12:36:57.224Z</time>
      </trkpt>
      <trkpt lat="43.67966" lon="6.19651">
        <ele>953</ele>
        <time>2024-01-12T12:37:02.898Z</time>
      </trkpt>
      <trkpt lat="43.67968" lon="6.19651">
        <ele>953</ele>
        <time>2024-01-12T12:37:06.219Z</time>
      </trkpt>
      <trkpt lat="43.67971" lon="6.1965">
        <ele>953.2</ele>
        <time>2024-01-12T12:37:12.528Z</time>
      </trkpt>
      <trkpt lat="43.67973" lon="6.1965">
        <ele>953.2</ele>
        <time>2024-01-12T12:37:15.849Z</time>
      </trkpt>
      <trkpt lat="43.67976" lon="6.19651">
        <ele>953</ele>
        <time>2024-01-12T12:37:20.334Z</time>
      </trkpt>
      <trkpt lat="43.67981" lon="6.19651">
        <ele>952.9</ele>
        <time>2024-01-12T12:37:28.147Z</time>
      </trkpt>
      <trkpt lat="43.67983" lon="6.19652">
        <ele>952.7</ele>
        <time>2024-01-12T12:37:31.238Z</time>
      </trkpt>
      <trkpt lat="43.67986" lon="6.19652">
        <ele>952.6</ele>
        <time>2024-01-12T12:37:35.743Z</time>
      </trkpt>
      <trkpt lat="43.67988" lon="6.19651">
        <ele>952.6</ele>
        <time>2024-01-12T12:37:39.275Z</time>
      </trkpt>
      <trkpt lat="43.67991" lon="6.19651">
        <ele>952.5</ele>
        <time>2024-01-12T12:37:43.781Z</time>
      </trkpt>
      <trkpt lat="43.67992" lon="6.1965">
        <ele>952.6</ele>
        <time>2024-01-12T12:37:46.446Z</time>
      </trkpt>
      <trkpt lat="43.67994" lon="6.19651">
        <ele>952.4</ele>
        <time>2024-01-12T12:37:49.536Z</time>
      </trkpt>
      <trkpt lat="43.67997" lon="6.1965">
        <ele>952.5</ele>
        <time>2024-01-12T12:37:55.210Z</time>
      </trkpt>
      <trkpt lat="43.67999" lon="6.19649">
        <ele>952.6</ele>
        <time>2024-01-12T12:37:59.310Z</time>
      </trkpt>
      <trkpt lat="43.68003" lon="6.19646">
        <ele>952.7</ele>
        <time>2024-01-12T12:38:07.403Z</time>
      </trkpt>
      <trkpt lat="43.68008" lon="6.19642">
        <ele>952.9</ele>
        <time>2024-01-12T12:38:18.100Z</time>
      </trkpt>
      <trkpt lat="43.68013" lon="6.19641">
        <ele>952.7</ele>
        <time>2024-01-12T12:38:25.550Z</time>
      </trkpt>
      <trkpt lat="43.68016" lon="6.1964">
        <ele>952.7</ele>
        <time>2024-01-12T12:38:30.675Z</time>
      </trkpt>
      <trkpt lat="43.68019" lon="6.1964">
        <ele>952.4</ele>
        <time>2024-01-12T12:38:35.034Z</time>
      </trkpt>
      <trkpt lat="43.68021" lon="6.19639">
        <ele>952.5</ele>
        <time>2024-01-12T12:38:39.134Z</time>
      </trkpt>
      <trkpt lat="43.68024" lon="6.19638">
        <ele>952.1</ele>
        <time>2024-01-12T12:38:43.618Z</time>
      </trkpt>
      <trkpt lat="43.68027" lon="6.19637">
        <ele>951.7</ele>
        <time>2024-01-12T12:38:48.102Z</time>
      </trkpt>
      <trkpt lat="43.68029" lon="6.19638">
        <ele>951.5</ele>
        <time>2024-01-12T12:38:51.193Z</time>
      </trkpt>
      <trkpt lat="43.68032" lon="6.19638">
        <ele>950.8</ele>
        <time>2024-01-12T12:38:55.552Z</time>
      </trkpt>
      <trkpt lat="43.68034" lon="6.19637">
        <ele>950.2</ele>
        <time>2024-01-12T12:38:58.642Z</time>
      </trkpt>
      <trkpt lat="43.68036" lon="6.19636">
        <ele>949.6</ele>
        <time>2024-01-12T12:39:01.733Z</time>
      </trkpt>
      <trkpt lat="43.68039" lon="6.19634">
        <ele>948.8</ele>
        <time>2024-01-12T12:39:06.572Z</time>
      </trkpt>
      <trkpt lat="43.68041" lon="6.19632">
        <ele>948.3</ele>
        <time>2024-01-12T12:39:10.159Z</time>
      </trkpt>
      <trkpt lat="43.68045" lon="6.19626">
        <ele>947.4</ele>
        <time>2024-01-12T12:39:18.735Z</time>
      </trkpt>
      <trkpt lat="43.68047" lon="6.19624">
        <ele>947.1</ele>
        <time>2024-01-12T12:39:22.321Z</time>
      </trkpt>
      <trkpt lat="43.68049" lon="6.19622">
        <ele>946.9</ele>
        <time>2024-01-12T12:39:25.908Z</time>
      </trkpt>
      <trkpt lat="43.68052" lon="6.1962">
        <ele>946.6</ele>
        <time>2024-01-12T12:39:30.748Z</time>
      </trkpt>
      <trkpt lat="43.68054" lon="6.19617">
        <ele>946.7</ele>
        <time>2024-01-12T12:39:36.199Z</time>
      </trkpt>
      <trkpt lat="43.68056" lon="6.19615">
        <ele>946.7</ele>
        <time>2024-01-12T12:39:40.298Z</time>
      </trkpt>
      <trkpt lat="43.68059" lon="6.19614">
        <ele>946.4</ele>
        <time>2024-01-12T12:39:44.782Z</time>
      </trkpt>
      <trkpt lat="43.68062" lon="6.19614">
        <ele>946</ele>
        <time>2024-01-12T12:39:49.142Z</time>
      </trkpt>
      <trkpt lat="43.68065" lon="6.19613">
        <ele>945.8</ele>
        <time>2024-01-12T12:39:53.626Z</time>
      </trkpt>
      <trkpt lat="43.68068" lon="6.19613">
        <ele>945.4</ele>
        <time>2024-01-12T12:39:57.985Z</time>
      </trkpt>
      <trkpt lat="43.6807" lon="6.19612">
        <ele>945.3</ele>
        <time>2024-01-12T12:40:01.076Z</time>
      </trkpt>
      <trkpt lat="43.68076" lon="6.19607">
        <ele>944.2</ele>
        <time>2024-01-12T12:40:11.255Z</time>
      </trkpt>
      <trkpt lat="43.68079" lon="6.19605">
        <ele>943.6</ele>
        <time>2024-01-12T12:40:16.095Z</time>
      </trkpt>
      <trkpt lat="43.68081" lon="6.19604">
        <ele>943.4</ele>
        <time>2024-01-12T12:40:19.185Z</time>
      </trkpt>
      <trkpt lat="43.68084" lon="6.19604">
        <ele>943.1</ele>
        <time>2024-01-12T12:40:23.545Z</time>
      </trkpt>
      <trkpt lat="43.68087" lon="6.19604">
        <ele>942.8</ele>
        <time>2024-01-12T12:40:27.904Z</time>
      </trkpt>
      <trkpt lat="43.68089" lon="6.19603">
        <ele>942.5</ele>
        <time>2024-01-12T12:40:30.995Z</time>
      </trkpt>
      <trkpt lat="43.68094" lon="6.19598">
        <ele>941.8</ele>
        <time>2024-01-12T12:40:39.961Z</time>
      </trkpt>
      <trkpt lat="43.68096" lon="6.19596">
        <ele>941.6</ele>
        <time>2024-01-12T12:40:43.548Z</time>
      </trkpt>
      <trkpt lat="43.68099" lon="6.19595">
        <ele>941.4</ele>
        <time>2024-01-12T12:40:48.032Z</time>
      </trkpt>
      <trkpt lat="43.68102" lon="6.19594">
        <ele>941.3</ele>
        <time>2024-01-12T12:40:52.679Z</time>
      </trkpt>
      <trkpt lat="43.68107" lon="6.19591">
        <ele>941.3</ele>
        <time>2024-01-12T12:41:01.731Z</time>
      </trkpt>
      <trkpt lat="43.68111" lon="6.19589">
        <ele>941.4</ele>
        <time>2024-01-12T12:41:09.333Z</time>
      </trkpt>
      <trkpt lat="43.68112" lon="6.19586">
        <ele>941.7</ele>
        <time>2024-01-12T12:41:15.362Z</time>
      </trkpt>
      <trkpt lat="43.68113" lon="6.19584">
        <ele>941.9</ele>
        <time>2024-01-12T12:41:19.617Z</time>
      </trkpt>
      <trkpt lat="43.68116" lon="6.19584">
        <ele>941.9</ele>
        <time>2024-01-12T12:41:24.599Z</time>
      </trkpt>
      <trkpt lat="43.68118" lon="6.19583">
        <ele>941.9</ele>
        <time>2024-01-12T12:41:28.131Z</time>
      </trkpt>
      <trkpt lat="43.68121" lon="6.19582">
        <ele>941.7</ele>
        <time>2024-01-12T12:41:32.615Z</time>
      </trkpt>
      <trkpt lat="43.68123" lon="6.19582">
        <ele>941.8</ele>
        <time>2024-01-12T12:41:36.508Z</time>
      </trkpt>
      <trkpt lat="43.68126" lon="6.19582">
        <ele>941.8</ele>
        <time>2024-01-12T12:41:41.490Z</time>
      </trkpt>
      <trkpt lat="43.68131" lon="6.19582">
        <ele>941.8</ele>
        <time>2024-01-12T12:41:49.794Z</time>
      </trkpt>
      <trkpt lat="43.68139" lon="6.1958">
        <ele>941.5</ele>
        <time>2024-01-12T12:42:01.876Z</time>
      </trkpt>
      <trkpt lat="43.68144" lon="6.19578">
        <ele>941.2</ele>
        <time>2024-01-12T12:42:09.439Z</time>
      </trkpt>
      <trkpt lat="43.68146" lon="6.19577">
        <ele>941.1</ele>
        <time>2024-01-12T12:42:12.530Z</time>
      </trkpt>
      <trkpt lat="43.68148" lon="6.19575">
        <ele>940.9</ele>
        <time>2024-01-12T12:42:16.116Z</time>
      </trkpt>
      <trkpt lat="43.6815" lon="6.19572">
        <ele>940.6</ele>
        <time>2024-01-12T12:42:20.404Z</time>
      </trkpt>
      <trkpt lat="43.68153" lon="6.19571">
        <ele>940.6</ele>
        <time>2024-01-12T12:42:25.529Z</time>
      </trkpt>
      <trkpt lat="43.68155" lon="6.19571">
        <ele>940.7</ele>
        <time>2024-01-12T12:42:29.422Z</time>
      </trkpt>
      <trkpt lat="43.68158" lon="6.19571">
        <ele>940.8</ele>
        <time>2024-01-12T12:42:34.955Z</time>
      </trkpt>
      <trkpt lat="43.68161" lon="6.1957">
        <ele>940.8</ele>
        <time>2024-01-12T12:42:40.080Z</time>
      </trkpt>
      <trkpt lat="43.68164" lon="6.19571">
        <ele>940.9</ele>
        <time>2024-01-12T12:42:45.754Z</time>
      </trkpt>
      <trkpt lat="43.68166" lon="6.19572">
        <ele>941</ele>
        <time>2024-01-12T12:42:49.853Z</time>
      </trkpt>
      <trkpt lat="43.68169" lon="6.19572">
        <ele>941.2</ele>
        <time>2024-01-12T12:42:56.024Z</time>
      </trkpt>
      <trkpt lat="43.68172" lon="6.19572">
        <ele>941.4</ele>
        <time>2024-01-12T12:43:02.195Z</time>
      </trkpt>
      <trkpt lat="43.68175" lon="6.19572">
        <ele>941.6</ele>
        <time>2024-01-12T12:43:08.366Z</time>
      </trkpt>
      <trkpt lat="43.68178" lon="6.19571">
        <ele>941.9</ele>
        <time>2024-01-12T12:43:15.411Z</time>
      </trkpt>
      <trkpt lat="43.68181" lon="6.19571">
        <ele>942.1</ele>
        <time>2024-01-12T12:43:21.582Z</time>
      </trkpt>
      <trkpt lat="43.68183" lon="6.19569">
        <ele>942.5</ele>
        <time>2024-01-12T12:43:28.706Z</time>
      </trkpt>
      <trkpt lat="43.68186" lon="6.19568">
        <ele>942.9</ele>
        <time>2024-01-12T12:43:36.609Z</time>
      </trkpt>
      <trkpt lat="43.68189" lon="6.19567">
        <ele>943.4</ele>
        <time>2024-01-12T12:43:45.514Z</time>
      </trkpt>
      <trkpt lat="43.6819" lon="6.19566">
        <ele>943.6</ele>
        <time>2024-01-12T12:43:49.076Z</time>
      </trkpt>
      <trkpt lat="43.68193" lon="6.19566">
        <ele>944</ele>
        <time>2024-01-12T12:43:56.863Z</time>
      </trkpt>
      <trkpt lat="43.68196" lon="6.19565">
        <ele>944.4</ele>
        <time>2024-01-12T12:44:04.766Z</time>
      </trkpt>
      <trkpt lat="43.68198" lon="6.19563">
        <ele>944.9</ele>
        <time>2024-01-12T12:44:13.090Z</time>
      </trkpt>
      <trkpt lat="43.682" lon="6.19562">
        <ele>945.3</ele>
        <time>2024-01-12T12:44:19.869Z</time>
      </trkpt>
      <trkpt lat="43.68202" lon="6.1956">
        <ele>945.8</ele>
        <time>2024-01-12T12:44:28.193Z</time>
      </trkpt>
      <trkpt lat="43.68205" lon="6.19559">
        <ele>946.3</ele>
        <time>2024-01-12T12:44:37.098Z</time>
      </trkpt>
      <trkpt lat="43.68207" lon="6.19557">
        <ele>947</ele>
        <time>2024-01-12T12:44:48.666Z</time>
      </trkpt>
      <trkpt lat="43.68209" lon="6.19555">
        <ele>947.5</ele>
        <time>2024-01-12T12:44:56.990Z</time>
      </trkpt>
      <trkpt lat="43.68211" lon="6.19554">
        <ele>947.5</ele>
        <time>2024-01-12T12:45:00.522Z</time>
      </trkpt>
      <trkpt lat="43.68214" lon="6.19552">
        <ele>947.6</ele>
        <time>2024-01-12T12:45:06.599Z</time>
      </trkpt>
      <trkpt lat="43.68217" lon="6.19551">
        <ele>947.8</ele>
        <time>2024-01-12T12:45:12.907Z</time>
      </trkpt>
      <trkpt lat="43.68219" lon="6.1955">
        <ele>948</ele>
        <time>2024-01-12T12:45:17.709Z</time>
      </trkpt>
      <trkpt lat="43.68221" lon="6.19548">
        <ele>948</ele>
        <time>2024-01-12T12:45:21.808Z</time>
      </trkpt>
      <trkpt lat="43.68224" lon="6.19547">
        <ele>948.3</ele>
        <time>2024-01-12T12:45:28.853Z</time>
      </trkpt>
      <trkpt lat="43.68226" lon="6.19545">
        <ele>948.3</ele>
        <time>2024-01-12T12:45:32.952Z</time>
      </trkpt>
      <trkpt lat="43.68228" lon="6.19543">
        <ele>948.4</ele>
        <time>2024-01-12T12:45:37.610Z</time>
      </trkpt>
      <trkpt lat="43.68231" lon="6.19541">
        <ele>948.5</ele>
        <time>2024-01-12T12:45:43.687Z</time>
      </trkpt>
      <trkpt lat="43.68233" lon="6.1954">
        <ele>948.7</ele>
        <time>2024-01-12T12:45:48.489Z</time>
      </trkpt>
      <trkpt lat="43.68236" lon="6.19538">
        <ele>948.9</ele>
        <time>2024-01-12T12:45:55.191Z</time>
      </trkpt>
      <trkpt lat="43.68239" lon="6.19537">
        <ele>949.2</ele>
        <time>2024-01-12T12:46:02.236Z</time>
      </trkpt>
      <trkpt lat="43.6824" lon="6.19536">
        <ele>949.3</ele>
        <time>2024-01-12T12:46:04.900Z</time>
      </trkpt>
      <trkpt lat="43.68241" lon="6.19535">
        <ele>949.3</ele>
        <time>2024-01-12T12:46:06.950Z</time>
      </trkpt>
      <trkpt lat="43.68243" lon="6.19534">
        <ele>949.5</ele>
        <time>2024-01-12T12:46:11.752Z</time>
      </trkpt>
      <trkpt lat="43.68245" lon="6.19532">
        <ele>949.6</ele>
        <time>2024-01-12T12:46:16.410Z</time>
      </trkpt>
      <trkpt lat="43.68247" lon="6.1953">
        <ele>949.7</ele>
        <time>2024-01-12T12:46:21.068Z</time>
      </trkpt>
      <trkpt lat="43.6825" lon="6.19529">
        <ele>950.1</ele>
        <time>2024-01-12T12:46:28.971Z</time>
      </trkpt>
      <trkpt lat="43.68252" lon="6.19527">
        <ele>949.9</ele>
        <time>2024-01-12T12:46:32.558Z</time>
      </trkpt>
      <trkpt lat="43.68255" lon="6.19526">
        <ele>949.7</ele>
        <time>2024-01-12T12:46:37.042Z</time>
      </trkpt>
      <trkpt lat="43.68257" lon="6.19525">
        <ele>949.6</ele>
        <time>2024-01-12T12:46:40.132Z</time>
      </trkpt>
      <trkpt lat="43.6826" lon="6.19523">
        <ele>949.3</ele>
        <time>2024-01-12T12:46:44.972Z</time>
      </trkpt>
      <trkpt lat="43.68262" lon="6.19521">
        <ele>949.1</ele>
        <time>2024-01-12T12:46:48.558Z</time>
      </trkpt>
      <trkpt lat="43.68264" lon="6.19519">
        <ele>948.9</ele>
        <time>2024-01-12T12:46:52.145Z</time>
      </trkpt>
      <trkpt lat="43.68267" lon="6.19516">
        <ele>948.7</ele>
        <time>2024-01-12T12:46:57.525Z</time>
      </trkpt>
      <trkpt lat="43.68269" lon="6.19513">
        <ele>948.4</ele>
        <time>2024-01-12T12:47:01.813Z</time>
      </trkpt>
      <trkpt lat="43.68273" lon="6.19509">
        <ele>948.3</ele>
        <time>2024-01-12T12:47:09.521Z</time>
      </trkpt>
      <trkpt lat="43.68278" lon="6.19509">
        <ele>948.6</ele>
        <time>2024-01-12T12:47:19.580Z</time>
      </trkpt>
      <trkpt lat="43.6828" lon="6.19509">
        <ele>948.4</ele>
        <time>2024-01-12T12:47:22.486Z</time>
      </trkpt>
      <trkpt lat="43.68281" lon="6.19507">
        <ele>948.2</ele>
        <time>2024-01-12T12:47:25.041Z</time>
      </trkpt>
      <trkpt lat="43.68282" lon="6.19505">
        <ele>948</ele>
        <time>2024-01-12T12:47:27.597Z</time>
      </trkpt>
      <trkpt lat="43.68283" lon="6.19502">
        <ele>947.7</ele>
        <time>2024-01-12T12:47:31.068Z</time>
      </trkpt>
      <trkpt lat="43.68283" lon="6.19498">
        <ele>947.5</ele>
        <time>2024-01-12T12:47:35.271Z</time>
      </trkpt>
      <trkpt lat="43.68284" lon="6.19495">
        <ele>947.3</ele>
        <time>2024-01-12T12:47:38.743Z</time>
      </trkpt>
      <trkpt lat="43.68285" lon="6.19493">
        <ele>947.1</ele>
        <time>2024-01-12T12:47:41.298Z</time>
      </trkpt>
      <trkpt lat="43.68286" lon="6.1949">
        <ele>946.9</ele>
        <time>2024-01-12T12:47:44.769Z</time>
      </trkpt>
      <trkpt lat="43.68287" lon="6.19487">
        <ele>946.7</ele>
        <time>2024-01-12T12:47:48.241Z</time>
      </trkpt>
      <trkpt lat="43.68287" lon="6.19484">
        <ele>946.6</ele>
        <time>2024-01-12T12:47:51.393Z</time>
      </trkpt>
      <trkpt lat="43.68288" lon="6.1948">
        <ele>946.4</ele>
        <time>2024-01-12T12:47:55.841Z</time>
      </trkpt>
      <trkpt lat="43.6829" lon="6.19478">
        <ele>946.2</ele>
        <time>2024-01-12T12:47:59.427Z</time>
      </trkpt>
      <trkpt lat="43.68292" lon="6.19477">
        <ele>946.2</ele>
        <time>2024-01-12T12:48:02.959Z</time>
      </trkpt>
      <trkpt lat="43.68295" lon="6.19477">
        <ele>946.1</ele>
        <time>2024-01-12T12:48:07.465Z</time>
      </trkpt>
      <trkpt lat="43.68298" lon="6.19476">
        <ele>946.1</ele>
        <time>2024-01-12T12:48:12.590Z</time>
      </trkpt>
      <trkpt lat="43.68301" lon="6.19475">
        <ele>946</ele>
        <time>2024-01-12T12:48:17.237Z</time>
      </trkpt>
      <trkpt lat="43.68303" lon="6.19472">
        <ele>946</ele>
        <time>2024-01-12T12:48:22.138Z</time>
      </trkpt>
      <trkpt lat="43.68304" lon="6.19469">
        <ele>945.8</ele>
        <time>2024-01-12T12:48:25.609Z</time>
      </trkpt>
      <trkpt lat="43.68306" lon="6.19464">
        <ele>945.4</ele>
        <time>2024-01-12T12:48:31.613Z</time>
      </trkpt>
      <trkpt lat="43.68307" lon="6.19461">
        <ele>945</ele>
        <time>2024-01-12T12:48:35.085Z</time>
      </trkpt>
      <trkpt lat="43.68308" lon="6.19457">
        <ele>944.6</ele>
        <time>2024-01-12T12:48:39.532Z</time>
      </trkpt>
      <trkpt lat="43.6831" lon="6.19454">
        <ele>944.3</ele>
        <time>2024-01-12T12:48:43.820Z</time>
      </trkpt>
      <trkpt lat="43.68311" lon="6.1945">
        <ele>943.9</ele>
        <time>2024-01-12T12:48:48.268Z</time>
      </trkpt>
      <trkpt lat="43.68311" lon="6.19446">
        <ele>943.7</ele>
        <time>2024-01-12T12:48:52.471Z</time>
      </trkpt>
      <trkpt lat="43.68314" lon="6.19442">
        <ele>943.2</ele>
        <time>2024-01-12T12:48:58.527Z</time>
      </trkpt>
      <trkpt lat="43.68316" lon="6.1944">
        <ele>943</ele>
        <time>2024-01-12T12:49:02.113Z</time>
      </trkpt>
      <trkpt lat="43.68318" lon="6.19438">
        <ele>942.7</ele>
        <time>2024-01-12T12:49:05.700Z</time>
      </trkpt>
      <trkpt lat="43.6832" lon="6.19435">
        <ele>942.5</ele>
        <time>2024-01-12T12:49:09.988Z</time>
      </trkpt>
      <trkpt lat="43.68322" lon="6.19432">
        <ele>942.2</ele>
        <time>2024-01-12T12:49:14.275Z</time>
      </trkpt>
      <trkpt lat="43.68324" lon="6.1943">
        <ele>942</ele>
        <time>2024-01-12T12:49:17.862Z</time>
      </trkpt>
      <trkpt lat="43.68327" lon="6.19427">
        <ele>941.7</ele>
        <time>2024-01-12T12:49:23.242Z</time>
      </trkpt>
      <trkpt lat="43.68329" lon="6.19425">
        <ele>941.5</ele>
        <time>2024-01-12T12:49:26.828Z</time>
      </trkpt>
      <trkpt lat="43.68332" lon="6.19423">
        <ele>941.3</ele>
        <time>2024-01-12T12:49:31.668Z</time>
      </trkpt>
      <trkpt lat="43.68332" lon="6.19419">
        <ele>941.1</ele>
        <time>2024-01-12T12:49:35.871Z</time>
      </trkpt>
      <trkpt lat="43.68335" lon="6.19417">
        <ele>940.8</ele>
        <time>2024-01-12T12:49:40.711Z</time>
      </trkpt>
      <trkpt lat="43.68337" lon="6.19415">
        <ele>940.5</ele>
        <time>2024-01-12T12:49:44.298Z</time>
      </trkpt>
      <trkpt lat="43.68339" lon="6.19413">
        <ele>940.2</ele>
        <time>2024-01-12T12:49:47.884Z</time>
      </trkpt>
      <trkpt lat="43.68341" lon="6.19411">
        <ele>939.9</ele>
        <time>2024-01-12T12:49:51.471Z</time>
      </trkpt>
      <trkpt lat="43.68343" lon="6.1941">
        <ele>939.6</ele>
        <time>2024-01-12T12:49:54.561Z</time>
      </trkpt>
      <trkpt lat="43.68346" lon="6.19408">
        <ele>939.3</ele>
        <time>2024-01-12T12:49:59.401Z</time>
      </trkpt>
      <trkpt lat="43.68348" lon="6.19406">
        <ele>939.1</ele>
        <time>2024-01-12T12:50:02.987Z</time>
      </trkpt>
      <trkpt lat="43.68351" lon="6.19404">
        <ele>938.8</ele>
        <time>2024-01-12T12:50:07.827Z</time>
      </trkpt>
      <trkpt lat="43.68353" lon="6.19401">
        <ele>938.5</ele>
        <time>2024-01-12T12:50:12.115Z</time>
      </trkpt>
      <trkpt lat="43.68355" lon="6.19399">
        <ele>938.4</ele>
        <time>2024-01-12T12:50:15.744Z</time>
      </trkpt>
      <trkpt lat="43.68357" lon="6.19397">
        <ele>938.2</ele>
        <time>2024-01-12T12:50:19.331Z</time>
      </trkpt>
      <trkpt lat="43.68359" lon="6.19394">
        <ele>938.1</ele>
        <time>2024-01-12T12:50:23.755Z</time>
      </trkpt>
      <trkpt lat="43.68361" lon="6.19391">
        <ele>938</ele>
        <time>2024-01-12T12:50:28.179Z</time>
      </trkpt>
      <trkpt lat="43.68363" lon="6.19388">
        <ele>937.7</ele>
        <time>2024-01-12T12:50:32.467Z</time>
      </trkpt>
      <trkpt lat="43.68366" lon="6.19387">
        <ele>937.3</ele>
        <time>2024-01-12T12:50:36.951Z</time>
      </trkpt>
      <trkpt lat="43.68368" lon="6.19385">
        <ele>937</ele>
        <time>2024-01-12T12:50:40.538Z</time>
      </trkpt>
      <trkpt lat="43.68371" lon="6.19384">
        <ele>936.6</ele>
        <time>2024-01-12T12:50:45.022Z</time>
      </trkpt>
      <trkpt lat="43.68374" lon="6.19383">
        <ele>936.3</ele>
        <time>2024-01-12T12:50:49.506Z</time>
      </trkpt>
      <trkpt lat="43.68377" lon="6.19382">
        <ele>935.9</ele>
        <time>2024-01-12T12:50:53.991Z</time>
      </trkpt>
      <trkpt lat="43.6838" lon="6.19381">
        <ele>935.6</ele>
        <time>2024-01-12T12:50:58.475Z</time>
      </trkpt>
      <trkpt lat="43.68383" lon="6.19377">
        <ele>935.1</ele>
        <time>2024-01-12T12:51:04.531Z</time>
      </trkpt>
      <trkpt lat="43.68384" lon="6.19376">
        <ele>935</ele>
        <time>2024-01-12T12:51:06.324Z</time>
      </trkpt>
      <trkpt lat="43.68385" lon="6.19374">
        <ele>934.8</ele>
        <time>2024-01-12T12:51:08.879Z</time>
      </trkpt>
      <trkpt lat="43.68387" lon="6.19373">
        <ele>934.6</ele>
        <time>2024-01-12T12:51:11.969Z</time>
      </trkpt>
      <trkpt lat="43.6839" lon="6.1937">
        <ele>934.2</ele>
        <time>2024-01-12T12:51:17.349Z</time>
      </trkpt>
      <trkpt lat="43.68392" lon="6.19367">
        <ele>933.8</ele>
        <time>2024-01-12T12:51:21.637Z</time>
      </trkpt>
      <trkpt lat="43.68395" lon="6.19365">
        <ele>933.4</ele>
        <time>2024-01-12T12:51:26.477Z</time>
      </trkpt>
      <trkpt lat="43.68397" lon="6.19365">
        <ele>933.2</ele>
        <time>2024-01-12T12:51:29.383Z</time>
      </trkpt>
      <trkpt lat="43.684" lon="6.19363">
        <ele>932.8</ele>
        <time>2024-01-12T12:51:34.222Z</time>
      </trkpt>
      <trkpt lat="43.68402" lon="6.19362">
        <ele>932.6</ele>
        <time>2024-01-12T12:51:37.313Z</time>
      </trkpt>
      <trkpt lat="43.68405" lon="6.19361">
        <ele>932.3</ele>
        <time>2024-01-12T12:51:41.797Z</time>
      </trkpt>
      <trkpt lat="43.68408" lon="6.19362">
        <ele>931.9</ele>
        <time>2024-01-12T12:51:46.281Z</time>
      </trkpt>
      <trkpt lat="43.68411" lon="6.19363">
        <ele>931.6</ele>
        <time>2024-01-12T12:51:50.766Z</time>
      </trkpt>
      <trkpt lat="43.68413" lon="6.19362">
        <ele>931.4</ele>
        <time>2024-01-12T12:51:53.856Z</time>
      </trkpt>
      <trkpt lat="43.68416" lon="6.19361">
        <ele>931.1</ele>
        <time>2024-01-12T12:51:58.340Z</time>
      </trkpt>
      <trkpt lat="43.68418" lon="6.19359">
        <ele>930.8</ele>
        <time>2024-01-12T12:52:01.927Z</time>
      </trkpt>
      <trkpt lat="43.6842" lon="6.19356">
        <ele>930.5</ele>
        <time>2024-01-12T12:52:06.214Z</time>
      </trkpt>
      <trkpt lat="43.68422" lon="6.19353">
        <ele>930.3</ele>
        <time>2024-01-12T12:52:10.502Z</time>
      </trkpt>
      <trkpt lat="43.68424" lon="6.1935">
        <ele>930</ele>
        <time>2024-01-12T12:52:14.790Z</time>
      </trkpt>
      <trkpt lat="43.68426" lon="6.19348">
        <ele>929.8</ele>
        <time>2024-01-12T12:52:18.376Z</time>
      </trkpt>
      <trkpt lat="43.68428" lon="6.19345">
        <ele>929.6</ele>
        <time>2024-01-12T12:52:22.664Z</time>
      </trkpt>
      <trkpt lat="43.6843" lon="6.19342">
        <ele>929.4</ele>
        <time>2024-01-12T12:52:26.952Z</time>
      </trkpt>
      <trkpt lat="43.68432" lon="6.19339">
        <ele>929.2</ele>
        <time>2024-01-12T12:52:31.240Z</time>
      </trkpt>
      <trkpt lat="43.68434" lon="6.19337">
        <ele>929</ele>
        <time>2024-01-12T12:52:34.826Z</time>
      </trkpt>
      <trkpt lat="43.68436" lon="6.19334">
        <ele>928.9</ele>
        <time>2024-01-12T12:52:39.251Z</time>
      </trkpt>
      <trkpt lat="43.68438" lon="6.19332">
        <ele>928.7</ele>
        <time>2024-01-12T12:52:42.837Z</time>
      </trkpt>
      <trkpt lat="43.68441" lon="6.1933">
        <ele>928.5</ele>
        <time>2024-01-12T12:52:47.677Z</time>
      </trkpt>
      <trkpt lat="43.68444" lon="6.19329">
        <ele>928.2</ele>
        <time>2024-01-12T12:52:52.161Z</time>
      </trkpt>
      <trkpt lat="43.68447" lon="6.19328">
        <ele>927.8</ele>
        <time>2024-01-12T12:52:56.645Z</time>
      </trkpt>
      <trkpt lat="43.68449" lon="6.19327">
        <ele>927.6</ele>
        <time>2024-01-12T12:52:59.736Z</time>
      </trkpt>
      <trkpt lat="43.68452" lon="6.19326">
        <ele>927.2</ele>
        <time>2024-01-12T12:53:04.220Z</time>
      </trkpt>
      <trkpt lat="43.68455" lon="6.19324">
        <ele>926.9</ele>
        <time>2024-01-12T12:53:09.059Z</time>
      </trkpt>
      <trkpt lat="43.68457" lon="6.19322">
        <ele>926.8</ele>
        <time>2024-01-12T12:53:12.689Z</time>
      </trkpt>
      <trkpt lat="43.6846" lon="6.19321">
        <ele>926.5</ele>
        <time>2024-01-12T12:53:17.173Z</time>
      </trkpt>
      <trkpt lat="43.68462" lon="6.1932">
        <ele>926.3</ele>
        <time>2024-01-12T12:53:20.263Z</time>
      </trkpt>
      <trkpt lat="43.68464" lon="6.19319">
        <ele>926.1</ele>
        <time>2024-01-12T12:53:23.354Z</time>
      </trkpt>
      <trkpt lat="43.68466" lon="6.19317">
        <ele>925.9</ele>
        <time>2024-01-12T12:53:26.940Z</time>
      </trkpt>
      <trkpt lat="43.68468" lon="6.19318">
        <ele>925.6</ele>
        <time>2024-01-12T12:53:30.031Z</time>
      </trkpt>
      <trkpt lat="43.6847" lon="6.19318">
        <ele>925.4</ele>
        <time>2024-01-12T12:53:32.937Z</time>
      </trkpt>
      <trkpt lat="43.68472" lon="6.19318">
        <ele>925.1</ele>
        <time>2024-01-12T12:53:35.843Z</time>
      </trkpt>
      <trkpt lat="43.68474" lon="6.19317">
        <ele>925</ele>
        <time>2024-01-12T12:53:38.934Z</time>
      </trkpt>
      <trkpt lat="43.68477" lon="6.19316">
        <ele>924.7</ele>
        <time>2024-01-12T12:53:43.418Z</time>
      </trkpt>
      <trkpt lat="43.68479" lon="6.19315">
        <ele>924.5</ele>
        <time>2024-01-12T12:53:46.508Z</time>
      </trkpt>
      <trkpt lat="43.68482" lon="6.19317">
        <ele>924</ele>
        <time>2024-01-12T12:53:51.348Z</time>
      </trkpt>
      <trkpt lat="43.68485" lon="6.19316">
        <ele>923.7</ele>
        <time>2024-01-12T12:53:55.832Z</time>
      </trkpt>
      <trkpt lat="43.68488" lon="6.19316">
        <ele>923.3</ele>
        <time>2024-01-12T12:54:00.191Z</time>
      </trkpt>
      <trkpt lat="43.68491" lon="6.19316">
        <ele>923</ele>
        <time>2024-01-12T12:54:04.551Z</time>
      </trkpt>
      <trkpt lat="43.68494" lon="6.19315">
        <ele>922.7</ele>
        <time>2024-01-12T12:54:09.035Z</time>
      </trkpt>
      <trkpt lat="43.68496" lon="6.19313">
        <ele>922.7</ele>
        <time>2024-01-12T12:54:13.134Z</time>
      </trkpt>
      <trkpt lat="43.68499" lon="6.19311">
        <ele>922.5</ele>
        <time>2024-01-12T12:54:17.973Z</time>
      </trkpt>
      <trkpt lat="43.68501" lon="6.19309">
        <ele>922.5</ele>
        <time>2024-01-12T12:54:22.072Z</time>
      </trkpt>
      <trkpt lat="43.68503" lon="6.19307">
        <ele>922.4</ele>
        <time>2024-01-12T12:54:25.702Z</time>
      </trkpt>
      <trkpt lat="43.68506" lon="6.19305">
        <ele>922.2</ele>
        <time>2024-01-12T12:54:30.541Z</time>
      </trkpt>
      <trkpt lat="43.68508" lon="6.19303">
        <ele>922.1</ele>
        <time>2024-01-12T12:54:34.171Z</time>
      </trkpt>
      <trkpt lat="43.68511" lon="6.19301">
        <ele>921.8</ele>
        <time>2024-01-12T12:54:39.010Z</time>
      </trkpt>
      <trkpt lat="43.68513" lon="6.193">
        <ele>921.6</ele>
        <time>2024-01-12T12:54:42.101Z</time>
      </trkpt>
      <trkpt lat="43.68516" lon="6.19298">
        <ele>921.4</ele>
        <time>2024-01-12T12:54:46.940Z</time>
      </trkpt>
      <trkpt lat="43.68516" lon="6.19296">
        <ele>921.6</ele>
        <time>2024-01-12T12:54:50.762Z</time>
      </trkpt>
      <trkpt lat="43.68519" lon="6.19293">
        <ele>921.5</ele>
        <time>2024-01-12T12:54:56.428Z</time>
      </trkpt>
      <trkpt lat="43.68521" lon="6.19292">
        <ele>921.3</ele>
        <time>2024-01-12T12:54:59.518Z</time>
      </trkpt>
      <trkpt lat="43.68524" lon="6.1929">
        <ele>921.1</ele>
        <time>2024-01-12T12:55:04.358Z</time>
      </trkpt>
      <trkpt lat="43.68527" lon="6.19288">
        <ele>921</ele>
        <time>2024-01-12T12:55:09.409Z</time>
      </trkpt>
      <trkpt lat="43.68529" lon="6.19287">
        <ele>920.9</ele>
        <time>2024-01-12T12:55:12.499Z</time>
      </trkpt>
      <trkpt lat="43.68531" lon="6.19284">
        <ele>921</ele>
        <time>2024-01-12T12:55:17.951Z</time>
      </trkpt>
      <trkpt lat="43.68533" lon="6.19282">
        <ele>921</ele>
        <time>2024-01-12T12:55:22.050Z</time>
      </trkpt>
      <trkpt lat="43.68534" lon="6.19281">
        <ele>921</ele>
        <time>2024-01-12T12:55:24.099Z</time>
      </trkpt>
      <trkpt lat="43.68536" lon="6.1928">
        <ele>920.9</ele>
        <time>2024-01-12T12:55:27.189Z</time>
      </trkpt>
      <trkpt lat="43.68538" lon="6.19278">
        <ele>920.9</ele>
        <time>2024-01-12T12:55:31.288Z</time>
      </trkpt>
      <trkpt lat="43.6854" lon="6.19276">
        <ele>920.8</ele>
        <time>2024-01-12T12:55:34.918Z</time>
      </trkpt>
      <trkpt lat="43.68542" lon="6.19273">
        <ele>920.8</ele>
        <time>2024-01-12T12:55:39.818Z</time>
      </trkpt>
      <trkpt lat="43.68544" lon="6.1927">
        <ele>920.8</ele>
        <time>2024-01-12T12:55:44.718Z</time>
      </trkpt>
      <trkpt lat="43.68546" lon="6.19268">
        <ele>920.7</ele>
        <time>2024-01-12T12:55:48.348Z</time>
      </trkpt>
      <trkpt lat="43.68549" lon="6.19265">
        <ele>920.6</ele>
        <time>2024-01-12T12:55:54.013Z</time>
      </trkpt>
      <trkpt lat="43.68551" lon="6.19262">
        <ele>920.6</ele>
        <time>2024-01-12T12:55:58.913Z</time>
      </trkpt>
      <trkpt lat="43.68552" lon="6.19259">
        <ele>920.7</ele>
        <time>2024-01-12T12:56:03.442Z</time>
      </trkpt>
      <trkpt lat="43.68554" lon="6.19255">
        <ele>920.8</ele>
        <time>2024-01-12T12:56:09.826Z</time>
      </trkpt>
      <trkpt lat="43.68555" lon="6.19252">
        <ele>920.9</ele>
        <time>2024-01-12T12:56:14.354Z</time>
      </trkpt>
      <trkpt lat="43.68556" lon="6.19248">
        <ele>921</ele>
        <time>2024-01-12T12:56:19.986Z</time>
      </trkpt>
      <trkpt lat="43.68558" lon="6.19245">
        <ele>920.9</ele>
        <time>2024-01-12T12:56:24.411Z</time>
      </trkpt>
      <trkpt lat="43.6856" lon="6.19243">
        <ele>920.8</ele>
        <time>2024-01-12T12:56:28.040Z</time>
      </trkpt>
      <trkpt lat="43.68562" lon="6.1924">
        <ele>920.7</ele>
        <time>2024-01-12T12:56:32.464Z</time>
      </trkpt>
      <trkpt lat="43.68564" lon="6.19238">
        <ele>920.7</ele>
        <time>2024-01-12T12:56:36.563Z</time>
      </trkpt>
      <trkpt lat="43.68566" lon="6.19236">
        <ele>920.6</ele>
        <time>2024-01-12T12:56:40.193Z</time>
      </trkpt>
      <trkpt lat="43.68568" lon="6.19234">
        <ele>920.5</ele>
        <time>2024-01-12T12:56:43.822Z</time>
      </trkpt>
      <trkpt lat="43.6857" lon="6.19232">
        <ele>920.4</ele>
        <time>2024-01-12T12:56:47.451Z</time>
      </trkpt>
      <trkpt lat="43.68571" lon="6.19229">
        <ele>920.5</ele>
        <time>2024-01-12T12:56:51.980Z</time>
      </trkpt>
      <trkpt lat="43.68573" lon="6.19227">
        <ele>920.5</ele>
        <time>2024-01-12T12:56:56.078Z</time>
      </trkpt>
      <trkpt lat="43.68575" lon="6.19224">
        <ele>920.5</ele>
        <time>2024-01-12T12:57:00.979Z</time>
      </trkpt>
      <trkpt lat="43.68578" lon="6.19223">
        <ele>920.3</ele>
        <time>2024-01-12T12:57:05.463Z</time>
      </trkpt>
      <trkpt lat="43.6858" lon="6.1922">
        <ele>920.2</ele>
        <time>2024-01-12T12:57:09.887Z</time>
      </trkpt>
      <trkpt lat="43.6858" lon="6.19216">
        <ele>920.2</ele>
        <time>2024-01-12T12:57:14.691Z</time>
      </trkpt>
      <trkpt lat="43.68582" lon="6.19214">
        <ele>920.1</ele>
        <time>2024-01-12T12:57:18.320Z</time>
      </trkpt>
      <trkpt lat="43.68585" lon="6.19213">
        <ele>919.8</ele>
        <time>2024-01-12T12:57:22.804Z</time>
      </trkpt>
      <trkpt lat="43.68587" lon="6.19213">
        <ele>919.6</ele>
        <time>2024-01-12T12:57:25.711Z</time>
      </trkpt>
      <trkpt lat="43.6859" lon="6.19214">
        <ele>919.4</ele>
        <time>2024-01-12T12:57:30.195Z</time>
      </trkpt>
      <trkpt lat="43.68592" lon="6.19215">
        <ele>919.1</ele>
        <time>2024-01-12T12:57:33.285Z</time>
      </trkpt>
      <trkpt lat="43.68594" lon="6.19214">
        <ele>919</ele>
        <time>2024-01-12T12:57:36.376Z</time>
      </trkpt>
      <trkpt lat="43.68597" lon="6.19211">
        <ele>918.7</ele>
        <time>2024-01-12T12:57:41.755Z</time>
      </trkpt>
      <trkpt lat="43.68598" lon="6.19209">
        <ele>918.7</ele>
        <time>2024-01-12T12:57:44.676Z</time>
      </trkpt>
      <trkpt lat="43.68599" lon="6.19207">
        <ele>918.6</ele>
        <time>2024-01-12T12:57:47.231Z</time>
      </trkpt>
      <trkpt lat="43.68601" lon="6.19204">
        <ele>918.5</ele>
        <time>2024-01-12T12:57:51.655Z</time>
      </trkpt>
      <trkpt lat="43.68603" lon="6.19202">
        <ele>918.4</ele>
        <time>2024-01-12T12:57:55.284Z</time>
      </trkpt>
      <trkpt lat="43.68604" lon="6.19199">
        <ele>918.4</ele>
        <time>2024-01-12T12:57:59.251Z</time>
      </trkpt>
      <trkpt lat="43.68606" lon="6.19196">
        <ele>918.3</ele>
        <time>2024-01-12T12:58:03.676Z</time>
      </trkpt>
      <trkpt lat="43.68608" lon="6.19193">
        <ele>918.2</ele>
        <time>2024-01-12T12:58:08.100Z</time>
      </trkpt>
      <trkpt lat="43.68609" lon="6.1919">
        <ele>918.2</ele>
        <time>2024-01-12T12:58:12.067Z</time>
      </trkpt>
      <trkpt lat="43.68609" lon="6.19186">
        <ele>918.2</ele>
        <time>2024-01-12T12:58:16.871Z</time>
      </trkpt>
      <trkpt lat="43.68609" lon="6.19183">
        <ele>918.2</ele>
        <time>2024-01-12T12:58:20.473Z</time>
      </trkpt>
      <trkpt lat="43.68611" lon="6.19182">
        <ele>918</ele>
        <time>2024-01-12T12:58:23.564Z</time>
      </trkpt>
      <trkpt lat="43.68613" lon="6.19181">
        <ele>917.8</ele>
        <time>2024-01-12T12:58:26.654Z</time>
      </trkpt>
      <trkpt lat="43.68614" lon="6.19176">
        <ele>917.8</ele>
        <time>2024-01-12T12:58:32.884Z</time>
      </trkpt>
      <trkpt lat="43.68616" lon="6.19174">
        <ele>917.6</ele>
        <time>2024-01-12T12:58:36.471Z</time>
      </trkpt>
      <trkpt lat="43.68618" lon="6.19171">
        <ele>917.5</ele>
        <time>2024-01-12T12:58:40.895Z</time>
      </trkpt>
      <trkpt lat="43.68619" lon="6.19167">
        <ele>917.4</ele>
        <time>2024-01-12T12:58:45.501Z</time>
      </trkpt>
      <trkpt lat="43.6862" lon="6.1916">
        <ele>917.1</ele>
        <time>2024-01-12T12:58:52.998Z</time>
      </trkpt>
      <trkpt lat="43.6862" lon="6.19156">
        <ele>917</ele>
        <time>2024-01-12T12:58:57.327Z</time>
      </trkpt>
      <trkpt lat="43.68619" lon="6.19153">
        <ele>916.9</ele>
        <time>2024-01-12T12:59:00.826Z</time>
      </trkpt>
      <trkpt lat="43.68619" lon="6.1915">
        <ele>916.8</ele>
        <time>2024-01-12T12:59:03.978Z</time>
      </trkpt>
      <trkpt lat="43.6862" lon="6.19146">
        <ele>916.6</ele>
        <time>2024-01-12T12:59:08.425Z</time>
      </trkpt>
      <trkpt lat="43.6862" lon="6.19143">
        <ele>916.5</ele>
        <time>2024-01-12T12:59:11.578Z</time>
      </trkpt>
      <trkpt lat="43.68619" lon="6.1914">
        <ele>916.5</ele>
        <time>2024-01-12T12:59:15.545Z</time>
      </trkpt>
      <trkpt lat="43.68618" lon="6.19135">
        <ele>916.5</ele>
        <time>2024-01-12T12:59:21.775Z</time>
      </trkpt>
      <trkpt lat="43.68618" lon="6.19132">
        <ele>916.5</ele>
        <time>2024-01-12T12:59:25.378Z</time>
      </trkpt>
      <trkpt lat="43.68618" lon="6.19129">
        <ele>916.5</ele>
        <time>2024-01-12T12:59:28.980Z</time>
      </trkpt>
      <trkpt lat="43.68618" lon="6.19127">
        <ele>916.5</ele>
        <time>2024-01-12T12:59:31.382Z</time>
      </trkpt>
      <trkpt lat="43.6862" lon="6.19124">
        <ele>916.4</ele>
        <time>2024-01-12T12:59:35.806Z</time>
      </trkpt>
      <trkpt lat="43.68622" lon="6.19122">
        <ele>916.2</ele>
        <time>2024-01-12T12:59:39.393Z</time>
      </trkpt>
      <trkpt lat="43.68624" lon="6.19119">
        <ele>916.1</ele>
        <time>2024-01-12T12:59:43.817Z</time>
      </trkpt>
      <trkpt lat="43.68626" lon="6.19116">
        <ele>915.9</ele>
        <time>2024-01-12T12:59:48.105Z</time>
      </trkpt>
      <trkpt lat="43.68628" lon="6.19113">
        <ele>915.8</ele>
        <time>2024-01-12T12:59:52.529Z</time>
      </trkpt>
      <trkpt lat="43.6863" lon="6.1911">
        <ele>915.6</ele>
        <time>2024-01-12T12:59:56.817Z</time>
      </trkpt>
      <trkpt lat="43.68632" lon="6.19107">
        <ele>915.5</ele>
        <time>2024-01-12T13:00:01.241Z</time>
      </trkpt>
      <trkpt lat="43.68633" lon="6.19105">
        <ele>915.4</ele>
        <time>2024-01-12T13:00:03.796Z</time>
      </trkpt>
      <trkpt lat="43.68635" lon="6.19102">
        <ele>915.2</ele>
        <time>2024-01-12T13:00:08.084Z</time>
      </trkpt>
      <trkpt lat="43.68638" lon="6.191">
        <ele>915.1</ele>
        <time>2024-01-12T13:00:13.135Z</time>
      </trkpt>
      <trkpt lat="43.68641" lon="6.19098">
        <ele>914.9</ele>
        <time>2024-01-12T13:00:17.974Z</time>
      </trkpt>
      <trkpt lat="43.68643" lon="6.19097">
        <ele>914.8</ele>
        <time>2024-01-12T13:00:21.065Z</time>
      </trkpt>
      <trkpt lat="43.68646" lon="6.19095">
        <ele>914.6</ele>
        <time>2024-01-12T13:00:25.904Z</time>
      </trkpt>
      <trkpt lat="43.68649" lon="6.19094">
        <ele>914.5</ele>
        <time>2024-01-12T13:00:30.552Z</time>
      </trkpt>
      <trkpt lat="43.68651" lon="6.19092">
        <ele>914.4</ele>
        <time>2024-01-12T13:00:34.181Z</time>
      </trkpt>
      <trkpt lat="43.68653" lon="6.19089">
        <ele>914.4</ele>
        <time>2024-01-12T13:00:39.081Z</time>
      </trkpt>
      <trkpt lat="43.68656" lon="6.19087">
        <ele>914.3</ele>
        <time>2024-01-12T13:00:44.132Z</time>
      </trkpt>
      <trkpt lat="43.68658" lon="6.19086">
        <ele>914.2</ele>
        <time>2024-01-12T13:00:47.223Z</time>
      </trkpt>
      <trkpt lat="43.6866" lon="6.19085">
        <ele>914.2</ele>
        <time>2024-01-12T13:00:50.755Z</time>
      </trkpt>
      <trkpt lat="43.68663" lon="6.19087">
        <ele>914</ele>
        <time>2024-01-12T13:00:55.594Z</time>
      </trkpt>
      <trkpt lat="43.68665" lon="6.19089">
        <ele>913.9</ele>
        <time>2024-01-12T13:00:59.224Z</time>
      </trkpt>
      <trkpt lat="43.68667" lon="6.19092">
        <ele>913.7</ele>
        <time>2024-01-12T13:01:03.511Z</time>
      </trkpt>
      <trkpt lat="43.68669" lon="6.19094">
        <ele>913.4</ele>
        <time>2024-01-12T13:01:07.098Z</time>
      </trkpt>
      <trkpt lat="43.68672" lon="6.19094">
        <ele>913.2</ele>
        <time>2024-01-12T13:01:11.457Z</time>
      </trkpt>
      <trkpt lat="43.68674" lon="6.19093">
        <ele>913</ele>
        <time>2024-01-12T13:01:14.547Z</time>
      </trkpt>
      <trkpt lat="43.68676" lon="6.19092">
        <ele>912.9</ele>
        <time>2024-01-12T13:01:17.638Z</time>
        <extensions>
          <visugpx:TrkExtension xmlns:visugpx="https://www.visugpx.com/editgpx/">
            <visugpx:node>5</visugpx:node>
            </visugpx:TrkExtension>
        </extensions>
      </trkpt>
      <trkpt lat="43.68677" lon="6.19091">
        <ele>912.9</ele>
        <time>2024-01-12T13:01:19.687Z</time>
      </trkpt>
      <trkpt lat="43.68679" lon="6.19088">
        <ele>912.9</ele>
        <time>2024-01-12T13:01:24.587Z</time>
      </trkpt>
      <trkpt lat="43.6868" lon="6.19087">
        <ele>912.8</ele>
        <time>2024-01-12T13:01:26.381Z</time>
      </trkpt>
      <trkpt lat="43.68686" lon="6.19083">
        <ele>912.6</ele>
        <time>2024-01-12T13:01:36.483Z</time>
      </trkpt>
      <trkpt lat="43.68691" lon="6.19079">
        <ele>912.5</ele>
        <time>2024-01-12T13:01:45.583Z</time>
      </trkpt>
      <trkpt lat="43.68696" lon="6.19076">
        <ele>912.5</ele>
        <time>2024-01-12T13:01:54.635Z</time>
      </trkpt>
      <trkpt lat="43.68701" lon="6.19073">
        <ele>912.5</ele>
        <time>2024-01-12T13:02:03.686Z</time>
      </trkpt>
      <trkpt lat="43.68705" lon="6.1907">
        <ele>912.6</ele>
        <time>2024-01-12T13:02:11.779Z</time>
      </trkpt>
      <trkpt lat="43.6871" lon="6.19067">
        <ele>912.6</ele>
        <time>2024-01-12T13:02:20.831Z</time>
      </trkpt>
      <trkpt lat="43.68717" lon="6.19062">
        <ele>912.7</ele>
        <time>2024-01-12T13:02:34.441Z</time>
      </trkpt>
      <trkpt lat="43.68723" lon="6.19057">
        <ele>912.9</ele>
        <time>2024-01-12T13:02:47.163Z</time>
      </trkpt>
      <trkpt lat="43.68726" lon="6.19052">
        <ele>913.3</ele>
        <time>2024-01-12T13:02:57.451Z</time>
        <extensions>
          <visugpx:TrkExtension xmlns:visugpx="https://www.visugpx.com/editgpx/">
            <visugpx:node>4</visugpx:node>
            </visugpx:TrkExtension>
        </extensions>
      </trkpt>
      <trkpt lat="43.68732" lon="6.19043">
        <ele>913.9</ele>
        <time>2024-01-12T13:03:15.727Z</time>
      </trkpt>
      <trkpt lat="43.68736" lon="6.19039">
        <ele>914.2</ele>
        <time>2024-01-12T13:03:25.048Z</time>
      </trkpt>
      <trkpt lat="43.68739" lon="6.19035">
        <ele>914.5</ele>
        <time>2024-01-12T13:03:34.370Z</time>
      </trkpt>
      <trkpt lat="43.68745" lon="6.19026">
        <ele>915.2</ele>
        <time>2024-01-12T13:03:53.356Z</time>
      </trkpt>
      <trkpt lat="43.68751" lon="6.19017">
        <ele>916.2</ele>
        <time>2024-01-12T13:04:14.713Z</time>
      </trkpt>
      <trkpt lat="43.68757" lon="6.19013">
        <ele>916.7</ele>
        <time>2024-01-12T13:04:28.807Z</time>
      </trkpt>
      <trkpt lat="43.68762" lon="6.19008">
        <ele>917.3</ele>
        <time>2024-01-12T13:04:42.894Z</time>
      </trkpt>
      <trkpt lat="43.68767" lon="6.19006">
        <ele>917.5</ele>
        <time>2024-01-12T13:04:52.652Z</time>
      </trkpt>
      <trkpt lat="43.68771" lon="6.19003">
        <ele>917.8</ele>
        <time>2024-01-12T13:05:01.989Z</time>
      </trkpt>
      <trkpt lat="43.68776" lon="6.18999">
        <ele>918.1</ele>
        <time>2024-01-12T13:05:13.304Z</time>
      </trkpt>
      <trkpt lat="43.68781" lon="6.18994">
        <ele>918.6</ele>
        <time>2024-01-12T13:05:26.627Z</time>
      </trkpt>
      <trkpt lat="43.68786" lon="6.18989">
        <ele>919.2</ele>
        <time>2024-01-12T13:05:40.715Z</time>
      </trkpt>
      <trkpt lat="43.68791" lon="6.18983">
        <ele>919.8</ele>
        <time>2024-01-12T13:05:55.487Z</time>
      </trkpt>
      <trkpt lat="43.68795" lon="6.18977">
        <ele>920.5</ele>
        <time>2024-01-12T13:06:10.014Z</time>
      </trkpt>
      <trkpt lat="43.68798" lon="6.18971">
        <ele>921.1</ele>
        <time>2024-01-12T13:06:22.775Z</time>
      </trkpt>
      <trkpt lat="43.68801" lon="6.18965">
        <ele>921.5</ele>
        <time>2024-01-12T13:06:33.966Z</time>
      </trkpt>
      <trkpt lat="43.68804" lon="6.18958">
        <ele>922</ele>
        <time>2024-01-12T13:06:46.843Z</time>
      </trkpt>
      <trkpt lat="43.68808" lon="6.18953">
        <ele>922.4</ele>
        <time>2024-01-12T13:06:58.218Z</time>
      </trkpt>
      <trkpt lat="43.68811" lon="6.18948">
        <ele>922.9</ele>
        <time>2024-01-12T13:07:09.294Z</time>
      </trkpt>
      <trkpt lat="43.68816" lon="6.18945">
        <ele>923.3</ele>
        <time>2024-01-12T13:07:20.761Z</time>
      </trkpt>
      <trkpt lat="43.68821" lon="6.18942">
        <ele>923.7</ele>
        <time>2024-01-12T13:07:32.229Z</time>
      </trkpt>
      <trkpt lat="43.68827" lon="6.18934">
        <ele>924.4</ele>
        <time>2024-01-12T13:07:50.408Z</time>
      </trkpt>
      <trkpt lat="43.68832" lon="6.18926">
        <ele>925.2</ele>
        <time>2024-01-12T13:08:08.321Z</time>
      </trkpt>
      <trkpt lat="43.68837" lon="6.18921">
        <ele>925.8</ele>
        <time>2024-01-12T13:08:22.408Z</time>
      </trkpt>
      <trkpt lat="43.68842" lon="6.18916">
        <ele>926.3</ele>
        <time>2024-01-12T13:08:35.731Z</time>
      </trkpt>
      <trkpt lat="43.68847" lon="6.18913">
        <ele>926.6</ele>
        <time>2024-01-12T13:08:46.518Z</time>
      </trkpt>
      <trkpt lat="43.68852" lon="6.18909">
        <ele>926.9</ele>
        <time>2024-01-12T13:08:57.833Z</time>
      </trkpt>
      <trkpt lat="43.68856" lon="6.18906">
        <ele>927.2</ele>
        <time>2024-01-12T13:09:07.170Z</time>
      </trkpt>
      <trkpt lat="43.6886" lon="6.18902">
        <ele>927.5</ele>
        <time>2024-01-12T13:09:17.127Z</time>
      </trkpt>
      <trkpt lat="43.68866" lon="6.18898">
        <ele>927.7</ele>
        <time>2024-01-12T13:09:29.281Z</time>
      </trkpt>
      <trkpt lat="43.68872" lon="6.18893">
        <ele>928.1</ele>
        <time>2024-01-12T13:09:43.239Z</time>
      </trkpt>
      <trkpt lat="43.68877" lon="6.18887">
        <ele>928.6</ele>
        <time>2024-01-12T13:09:57.269Z</time>
      </trkpt>
      <trkpt lat="43.68882" lon="6.18881">
        <ele>929</ele>
        <time>2024-01-12T13:10:10.605Z</time>
      </trkpt>
      <trkpt lat="43.68887" lon="6.18876">
        <ele>929.4</ele>
        <time>2024-01-12T13:10:23.220Z</time>
      </trkpt>
      <trkpt lat="43.68892" lon="6.18871">
        <ele>929.6</ele>
        <time>2024-01-12T13:10:34.565Z</time>
      </trkpt>
      <trkpt lat="43.68898" lon="6.18867">
        <ele>929.7</ele>
        <time>2024-01-12T13:10:46.155Z</time>
      </trkpt>
      <trkpt lat="43.68903" lon="6.18862">
        <ele>930</ele>
        <time>2024-01-12T13:10:58.112Z</time>
      </trkpt>
      <trkpt lat="43.68907" lon="6.18857">
        <ele>930.1</ele>
        <time>2024-01-12T13:11:07.598Z</time>
      </trkpt>
      <trkpt lat="43.6891" lon="6.18851">
        <ele>930.3</ele>
        <time>2024-01-12T13:11:17.470Z</time>
      </trkpt>
      <trkpt lat="43.68916" lon="6.18848">
        <ele>930.5</ele>
        <time>2024-01-12T13:11:29.161Z</time>
      </trkpt>
      <trkpt lat="43.68921" lon="6.18844">
        <ele>930.6</ele>
        <time>2024-01-12T13:11:39.285Z</time>
      </trkpt>
      <trkpt lat="43.68926" lon="6.18843">
        <ele>930.5</ele>
        <time>2024-01-12T13:11:47.185Z</time>
      </trkpt>
      <trkpt lat="43.6893" lon="6.18841">
        <ele>930.6</ele>
        <time>2024-01-12T13:11:54.787Z</time>
      </trkpt>
      <trkpt lat="43.68935" lon="6.1884">
        <ele>930.6</ele>
        <time>2024-01-12T13:12:03.177Z</time>
      </trkpt>
      <trkpt lat="43.6894" lon="6.18838">
        <ele>930.7</ele>
        <time>2024-01-12T13:12:12.354Z</time>
      </trkpt>
      <trkpt lat="43.68946" lon="6.18837">
        <ele>930.6</ele>
        <time>2024-01-12T13:12:21.897Z</time>
      </trkpt>
      <trkpt lat="43.68951" lon="6.18835">
        <ele>930.4</ele>
        <time>2024-01-12T13:12:29.598Z</time>
      </trkpt>
      <trkpt lat="43.68956" lon="6.18835">
        <ele>930</ele>
        <time>2024-01-12T13:12:36.864Z</time>
      </trkpt>
      <trkpt lat="43.6896" lon="6.18834">
        <ele>929.8</ele>
        <time>2024-01-12T13:12:42.770Z</time>
      </trkpt>
      <trkpt lat="43.68965" lon="6.18833">
        <ele>929.5</ele>
        <time>2024-01-12T13:12:50.112Z</time>
      </trkpt>
      <trkpt lat="43.68969" lon="6.18832">
        <ele>929.3</ele>
        <time>2024-01-12T13:12:56.018Z</time>
      </trkpt>
      <trkpt lat="43.68974" lon="6.18832">
        <ele>928.9</ele>
        <time>2024-01-12T13:13:03.284Z</time>
      </trkpt>
      <trkpt lat="43.68978" lon="6.18831">
        <ele>928.5</ele>
        <time>2024-01-12T13:13:09.191Z</time>
      </trkpt>
      <trkpt lat="43.68982" lon="6.18827">
        <ele>928.3</ele>
        <time>2024-01-12T13:13:16.449Z</time>
      </trkpt>
      <trkpt lat="43.68986" lon="6.18822">
        <ele>928.1</ele>
        <time>2024-01-12T13:13:24.458Z</time>
      </trkpt>
      <trkpt lat="43.6899" lon="6.18824">
        <ele>927.6</ele>
        <time>2024-01-12T13:13:30.639Z</time>
      </trkpt>
      <trkpt lat="43.68994" lon="6.1882">
        <ele>927.5</ele>
        <time>2024-01-12T13:13:38.346Z</time>
      </trkpt>
      <trkpt lat="43.68997" lon="6.18816">
        <ele>927.5</ele>
        <time>2024-01-12T13:13:45.267Z</time>
      </trkpt>
      <trkpt lat="43.69001" lon="6.18812">
        <ele>927.4</ele>
        <time>2024-01-12T13:13:52.975Z</time>
      </trkpt>
      <trkpt lat="43.69004" lon="6.18808">
        <ele>927.5</ele>
        <time>2024-01-12T13:14:00.434Z</time>
      </trkpt>
      <trkpt lat="43.69007" lon="6.18803">
        <ele>927.5</ele>
        <time>2024-01-12T13:14:08.237Z</time>
      </trkpt>
      <trkpt lat="43.6901" lon="6.18798">
        <ele>927.4</ele>
        <time>2024-01-12T13:14:15.550Z</time>
      </trkpt>
      <trkpt lat="43.69014" lon="6.18789">
        <ele>927.3</ele>
        <time>2024-01-12T13:14:27.739Z</time>
      </trkpt>
      <trkpt lat="43.69017" lon="6.18784">
        <ele>927.3</ele>
        <time>2024-01-12T13:14:35.541Z</time>
      </trkpt>
      <trkpt lat="43.6902" lon="6.18779">
        <ele>927.2</ele>
        <time>2024-01-12T13:14:42.854Z</time>
      </trkpt>
      <trkpt lat="43.69026" lon="6.18771">
        <ele>926.8</ele>
        <time>2024-01-12T13:14:54.965Z</time>
      </trkpt>
      <trkpt lat="43.6903" lon="6.18768">
        <ele>926.5</ele>
        <time>2024-01-12T13:15:01.578Z</time>
      </trkpt>
      <trkpt lat="43.69034" lon="6.18764">
        <ele>926.2</ele>
        <time>2024-01-12T13:15:08.750Z</time>
      </trkpt>
      <trkpt lat="43.6904" lon="6.18761">
        <ele>925.8</ele>
        <time>2024-01-12T13:15:18.021Z</time>
      </trkpt>
      <trkpt lat="43.69046" lon="6.18757">
        <ele>925.4</ele>
        <time>2024-01-12T13:15:27.700Z</time>
      </trkpt>
      <trkpt lat="43.69052" lon="6.18757">
        <ele>925.2</ele>
        <time>2024-01-12T13:15:36.712Z</time>
      </trkpt>
      <trkpt lat="43.69057" lon="6.18757">
        <ele>924.8</ele>
        <time>2024-01-12T13:15:43.977Z</time>
      </trkpt>
      <trkpt lat="43.69062" lon="6.18754">
        <ele>924.3</ele>
        <time>2024-01-12T13:15:51.897Z</time>
      </trkpt>
      <trkpt lat="43.69066" lon="6.18751">
        <ele>923.9</ele>
        <time>2024-01-12T13:15:58.510Z</time>
      </trkpt>
      <trkpt lat="43.69069" lon="6.18745">
        <ele>923.4</ele>
        <time>2024-01-12T13:16:06.174Z</time>
      </trkpt>
      <trkpt lat="43.69072" lon="6.18739">
        <ele>922.8</ele>
        <time>2024-01-12T13:16:13.839Z</time>
      </trkpt>
      <trkpt lat="43.69074" lon="6.18731">
        <ele>922.3</ele>
        <time>2024-01-12T13:16:22.733Z</time>
      </trkpt>
      <trkpt lat="43.69076" lon="6.18723">
        <ele>921.8</ele>
        <time>2024-01-12T13:16:31.627Z</time>
      </trkpt>
      <trkpt lat="43.69078" lon="6.18717">
        <ele>921.2</ele>
        <time>2024-01-12T13:16:38.569Z</time>
      </trkpt>
      <trkpt lat="43.6908" lon="6.1871">
        <ele>920.4</ele>
        <time>2024-01-12T13:16:46.478Z</time>
      </trkpt>
      <trkpt lat="43.69085" lon="6.18709">
        <ele>919.8</ele>
        <time>2024-01-12T13:16:53.819Z</time>
      </trkpt>
      <trkpt lat="43.6909" lon="6.18707">
        <ele>919.1</ele>
        <time>2024-01-12T13:17:01.382Z</time>
      </trkpt>
      <trkpt lat="43.69096" lon="6.18707">
        <ele>918.3</ele>
        <time>2024-01-12T13:17:10.101Z</time>
      </trkpt>
      <trkpt lat="43.69101" lon="6.18706">
        <ele>917.6</ele>
        <time>2024-01-12T13:17:17.442Z</time>
      </trkpt>
      <trkpt lat="43.69105" lon="6.18703">
        <ele>916.7</ele>
        <time>2024-01-12T13:17:24.054Z</time>
      </trkpt>
      <trkpt lat="43.69104" lon="6.18713">
        <ele>917.9</ele>
        <time>2024-01-12T13:17:45.309Z</time>
      </trkpt>
      <trkpt lat="43.69106" lon="6.18704">
        <ele>916.7</ele>
        <time>2024-01-12T13:17:55.202Z</time>
      </trkpt>
      <trkpt lat="43.69111" lon="6.18698">
        <ele>915.4</ele>
        <time>2024-01-12T13:18:04.821Z</time>
      </trkpt>
      <trkpt lat="43.69107" lon="6.18697">
        <ele>915.9</ele>
        <time>2024-01-12T13:18:14.986Z</time>
      </trkpt>
      <trkpt lat="43.69102" lon="6.18695">
        <ele>916.4</ele>
        <time>2024-01-12T13:18:26.820Z</time>
      </trkpt>
      <trkpt lat="43.69098" lon="6.18699">
        <ele>917.3</ele>
        <time>2024-01-12T13:18:42.208Z</time>
      </trkpt>
      <trkpt lat="43.69094" lon="6.18702">
        <ele>918.1</ele>
        <time>2024-01-12T13:18:56.044Z</time>
      </trkpt>
      <trkpt lat="43.6909" lon="6.18702">
        <ele>918.6</ele>
        <time>2024-01-12T13:19:06.118Z</time>
      </trkpt>
      <trkpt lat="43.69085" lon="6.18702">
        <ele>919.3</ele>
        <time>2024-01-12T13:19:19.416Z</time>
      </trkpt>
      <trkpt lat="43.6908" lon="6.18701">
        <ele>919.7</ele>
        <time>2024-01-12T13:19:30.255Z</time>
      </trkpt>
      <trkpt lat="43.69075" lon="6.187">
        <ele>920.1</ele>
        <time>2024-01-12T13:19:41.095Z</time>
      </trkpt>
      <trkpt lat="43.69072" lon="6.18696">
        <ele>920</ele>
        <time>2024-01-12T13:19:47.530Z</time>
      </trkpt>
      <trkpt lat="43.69068" lon="6.18692">
        <ele>919.9</ele>
        <time>2024-01-12T13:19:55.238Z</time>
      </trkpt>
      <trkpt lat="43.69065" lon="6.18687">
        <ele>919.7</ele>
        <time>2024-01-12T13:20:02.105Z</time>
      </trkpt>
      <trkpt lat="43.69062" lon="6.18681">
        <ele>919.5</ele>
        <time>2024-01-12T13:20:09.921Z</time>
      </trkpt>
      <trkpt lat="43.6906" lon="6.18675">
        <ele>919.2</ele>
        <time>2024-01-12T13:20:16.863Z</time>
      </trkpt>
      <trkpt lat="43.69058" lon="6.18668">
        <ele>918.8</ele>
        <time>2024-01-12T13:20:24.771Z</time>
      </trkpt>
      <trkpt lat="43.69055" lon="6.18663">
        <ele>918.5</ele>
        <time>2024-01-12T13:20:31.598Z</time>
      </trkpt>
      <trkpt lat="43.69051" lon="6.18657">
        <ele>917.6</ele>
        <time>2024-01-12T13:20:40.173Z</time>
      </trkpt>
      <trkpt lat="43.69049" lon="6.18651">
        <ele>916.7</ele>
        <time>2024-01-12T13:20:47.115Z</time>
      </trkpt>
      <trkpt lat="43.69047" lon="6.18645">
        <ele>915.9</ele>
        <time>2024-01-12T13:20:54.057Z</time>
      </trkpt>
      <trkpt lat="43.69046" lon="6.18639">
        <ele>915</ele>
        <time>2024-01-12T13:21:00.526Z</time>
      </trkpt>
      <trkpt lat="43.69044" lon="6.18632">
        <ele>913.8</ele>
        <time>2024-01-12T13:21:08.435Z</time>
      </trkpt>
      <trkpt lat="43.69042" lon="6.18625">
        <ele>912.5</ele>
        <time>2024-01-12T13:21:16.343Z</time>
      </trkpt>
      <trkpt lat="43.6904" lon="6.18617">
        <ele>911.1</ele>
        <time>2024-01-12T13:21:25.237Z</time>
      </trkpt>
      <trkpt lat="43.69037" lon="6.18612">
        <ele>910.2</ele>
        <time>2024-01-12T13:21:32.064Z</time>
      </trkpt>
      <trkpt lat="43.69034" lon="6.18606">
        <ele>909</ele>
        <time>2024-01-12T13:21:39.729Z</time>
      </trkpt>
      <trkpt lat="43.6903" lon="6.186">
        <ele>908</ele>
        <time>2024-01-12T13:21:48.304Z</time>
      </trkpt>
      <trkpt lat="43.69026" lon="6.18593">
        <ele>906.7</ele>
        <time>2024-01-12T13:21:57.679Z</time>
      </trkpt>
      <trkpt lat="43.69024" lon="6.18587">
        <ele>905.5</ele>
        <time>2024-01-12T13:22:04.621Z</time>
      </trkpt>
      <trkpt lat="43.69022" lon="6.18581">
        <ele>904.4</ele>
        <time>2024-01-12T13:22:11.563Z</time>
      </trkpt>
      <trkpt lat="43.69023" lon="6.18574">
        <ele>903.1</ele>
        <time>2024-01-12T13:22:19.060Z</time>
      </trkpt>
      <trkpt lat="43.69024" lon="6.18566">
        <ele>901.7</ele>
        <time>2024-01-12T13:22:27.591Z</time>
      </trkpt>
      <trkpt lat="43.69022" lon="6.18554">
        <ele>899.5</ele>
        <time>2024-01-12T13:22:40.530Z</time>
      </trkpt>
      <trkpt lat="43.69022" lon="6.18548">
        <ele>898.5</ele>
        <time>2024-01-12T13:22:46.834Z</time>
      </trkpt>
      <trkpt lat="43.69022" lon="6.18541">
        <ele>897.3</ele>
        <time>2024-01-12T13:22:54.190Z</time>
      </trkpt>
      <trkpt lat="43.69015" lon="6.18534">
        <ele>896</ele>
        <time>2024-01-12T13:23:06.742Z</time>
      </trkpt>
      <trkpt lat="43.6901" lon="6.18532">
        <ele>895.7</ele>
        <time>2024-01-12T13:23:14.305Z</time>
      </trkpt>
      <trkpt lat="43.69005" lon="6.1853">
        <ele>895.3</ele>
        <time>2024-01-12T13:23:21.869Z</time>
      </trkpt>
      <trkpt lat="43.69003" lon="6.18525">
        <ele>894.6</ele>
        <time>2024-01-12T13:23:27.873Z</time>
      </trkpt>
      <trkpt lat="43.69" lon="6.18519">
        <ele>893.7</ele>
        <time>2024-01-12T13:23:35.538Z</time>
      </trkpt>
      <trkpt lat="43.68998" lon="6.18513">
        <ele>892.5</ele>
        <time>2024-01-12T13:23:42.480Z</time>
      </trkpt>
      <trkpt lat="43.68996" lon="6.18506">
        <ele>891.1</ele>
        <time>2024-01-12T13:23:50.388Z</time>
      </trkpt>
      <trkpt lat="43.68994" lon="6.185">
        <ele>889.9</ele>
        <time>2024-01-12T13:23:57.330Z</time>
      </trkpt>
      <trkpt lat="43.68991" lon="6.18493">
        <ele>888.5</ele>
        <time>2024-01-12T13:24:05.880Z</time>
      </trkpt>
      <trkpt lat="43.68995" lon="6.18483">
        <ele>887.8</ele>
        <time>2024-01-12T13:24:17.888Z</time>
      </trkpt>
      <trkpt lat="43.68998" lon="6.18477">
        <ele>887.4</ele>
        <time>2024-01-12T13:24:25.553Z</time>
      </trkpt>
      <trkpt lat="43.68999" lon="6.18471">
        <ele>886.6</ele>
        <time>2024-01-12T13:24:32.194Z</time>
      </trkpt>
      <trkpt lat="43.69" lon="6.18469">
        <ele>886.6</ele>
        <time>2024-01-12T13:24:35.288Z</time>
      </trkpt>
      <trkpt lat="43.69" lon="6.18467">
        <ele>886.3</ele>
        <time>2024-01-12T13:24:37.306Z</time>
      </trkpt>
      <trkpt lat="43.69006" lon="6.18471">
        <ele>886.6</ele>
        <time>2024-01-12T13:24:49.478Z</time>
      </trkpt>
      <trkpt lat="43.69008" lon="6.18465">
        <ele>885.6</ele>
        <time>2024-01-12T13:24:56.941Z</time>
      </trkpt>
      <trkpt lat="43.69009" lon="6.18457">
        <ele>884.4</ele>
        <time>2024-01-12T13:25:05.491Z</time>
      </trkpt>
      <trkpt lat="43.69015" lon="6.18452">
        <ele>883.5</ele>
        <time>2024-01-12T13:25:15.187Z</time>
      </trkpt>
      <trkpt lat="43.6902" lon="6.18442">
        <ele>881.9</ele>
        <time>2024-01-12T13:25:27.962Z</time>
      </trkpt>
      <trkpt lat="43.69023" lon="6.18437">
        <ele>881.1</ele>
        <time>2024-01-12T13:25:34.789Z</time>
      </trkpt>
      <trkpt lat="43.69026" lon="6.18432">
        <ele>880.3</ele>
        <time>2024-01-12T13:25:41.616Z</time>
      </trkpt>
      <trkpt lat="43.69032" lon="6.18423">
        <ele>878.3</ele>
        <time>2024-01-12T13:25:54.478Z</time>
      </trkpt>
      <trkpt lat="43.69035" lon="6.18417">
        <ele>877</ele>
        <time>2024-01-12T13:26:02.143Z</time>
      </trkpt>
      <trkpt lat="43.69037" lon="6.18411">
        <ele>876.1</ele>
        <time>2024-01-12T13:26:09.085Z</time>
      </trkpt>
      <trkpt lat="43.6904" lon="6.18405">
        <ele>875.2</ele>
        <time>2024-01-12T13:26:16.750Z</time>
      </trkpt>
      <trkpt lat="43.69043" lon="6.18399">
        <ele>874.2</ele>
        <time>2024-01-12T13:26:24.415Z</time>
      </trkpt>
      <trkpt lat="43.69049" lon="6.1839">
        <ele>872.8</ele>
        <time>2024-01-12T13:26:37.277Z</time>
      </trkpt>
      <trkpt lat="43.69053" lon="6.18384">
        <ele>871.7</ele>
        <time>2024-01-12T13:26:45.852Z</time>
      </trkpt>
      <trkpt lat="43.69056" lon="6.18378">
        <ele>870.7</ele>
        <time>2024-01-12T13:26:53.517Z</time>
      </trkpt>
      <trkpt lat="43.6906" lon="6.18374">
        <ele>869.6</ele>
        <time>2024-01-12T13:27:00.690Z</time>
      </trkpt>
      <trkpt lat="43.69064" lon="6.18369">
        <ele>868.5</ele>
        <time>2024-01-12T13:27:08.525Z</time>
      </trkpt>
      <trkpt lat="43.69068" lon="6.18365">
        <ele>867.5</ele>
        <time>2024-01-12T13:27:15.697Z</time>
      </trkpt>
      <trkpt lat="43.69071" lon="6.1836">
        <ele>866.7</ele>
        <time>2024-01-12T13:27:22.524Z</time>
      </trkpt>
      <trkpt lat="43.69077" lon="6.18358">
        <ele>865.7</ele>
        <time>2024-01-12T13:27:31.493Z</time>
      </trkpt>
      <trkpt lat="43.69082" lon="6.18355">
        <ele>864.7</ele>
        <time>2024-01-12T13:27:39.413Z</time>
      </trkpt>
      <trkpt lat="43.69087" lon="6.18352">
        <ele>863.6</ele>
        <time>2024-01-12T13:27:47.332Z</time>
      </trkpt>
      <trkpt lat="43.69091" lon="6.18348">
        <ele>862.7</ele>
        <time>2024-01-12T13:27:54.505Z</time>
      </trkpt>
      <trkpt lat="43.69095" lon="6.18344">
        <ele>861.8</ele>
        <time>2024-01-12T13:28:01.678Z</time>
      </trkpt>
      <trkpt lat="43.69099" lon="6.18339">
        <ele>860.9</ele>
        <time>2024-01-12T13:28:09.513Z</time>
      </trkpt>
      <trkpt lat="43.69105" lon="6.18337">
        <ele>859.9</ele>
        <time>2024-01-12T13:28:18.481Z</time>
      </trkpt>
      <trkpt lat="43.6911" lon="6.18335">
        <ele>859.2</ele>
        <time>2024-01-12T13:28:26.045Z</time>
      </trkpt>
      <trkpt lat="43.69114" lon="6.18332">
        <ele>858.4</ele>
        <time>2024-01-12T13:28:32.657Z</time>
      </trkpt>
      <trkpt lat="43.69118" lon="6.18329">
        <ele>857.5</ele>
        <time>2024-01-12T13:28:39.269Z</time>
      </trkpt>
      <trkpt lat="43.69122" lon="6.18325">
        <ele>856.7</ele>
        <time>2024-01-12T13:28:46.442Z</time>
      </trkpt>
      <trkpt lat="43.69126" lon="6.18321">
        <ele>855.9</ele>
        <time>2024-01-12T13:28:53.615Z</time>
      </trkpt>
      <trkpt lat="43.6913" lon="6.18317">
        <ele>855.2</ele>
        <time>2024-01-12T13:29:00.788Z</time>
      </trkpt>
      <trkpt lat="43.69134" lon="6.18313">
        <ele>854.6</ele>
        <time>2024-01-12T13:29:07.961Z</time>
      </trkpt>
      <trkpt lat="43.69138" lon="6.18309">
        <ele>854.1</ele>
        <time>2024-01-12T13:29:15.133Z</time>
      </trkpt>
      <trkpt lat="43.69142" lon="6.18305">
        <ele>853.4</ele>
        <time>2024-01-12T13:29:22.306Z</time>
      </trkpt>
      <trkpt lat="43.69146" lon="6.183">
        <ele>852.6</ele>
        <time>2024-01-12T13:29:30.141Z</time>
      </trkpt>
      <trkpt lat="43.69149" lon="6.18295">
        <ele>852.1</ele>
        <time>2024-01-12T13:29:36.968Z</time>
      </trkpt>
      <trkpt lat="43.69153" lon="6.1829">
        <ele>851.5</ele>
        <time>2024-01-12T13:29:44.803Z</time>
      </trkpt>
      <trkpt lat="43.69157" lon="6.18285">
        <ele>851</ele>
        <time>2024-01-12T13:29:52.637Z</time>
      </trkpt>
      <trkpt lat="43.69162" lon="6.18281">
        <ele>850.4</ele>
        <time>2024-01-12T13:30:01.031Z</time>
      </trkpt>
      <trkpt lat="43.69167" lon="6.18277">
        <ele>849.9</ele>
        <time>2024-01-12T13:30:09.425Z</time>
      </trkpt>
      <trkpt lat="43.69171" lon="6.18271">
        <ele>849.1</ele>
        <time>2024-01-12T13:30:18.000Z</time>
      </trkpt>
      <trkpt lat="43.69175" lon="6.18265">
        <ele>848.5</ele>
        <time>2024-01-12T13:30:26.575Z</time>
      </trkpt>
      <trkpt lat="43.69179" lon="6.18261">
        <ele>848</ele>
        <time>2024-01-12T13:30:33.747Z</time>
      </trkpt>
      <trkpt lat="43.69182" lon="6.18257">
        <ele>847.7</ele>
        <time>2024-01-12T13:30:39.803Z</time>
      </trkpt>
      <trkpt lat="43.69189" lon="6.1825">
        <ele>847.4</ele>
        <time>2024-01-12T13:30:52.723Z</time>
      </trkpt>
      <trkpt lat="43.69194" lon="6.18248">
        <ele>847</ele>
        <time>2024-01-12T13:31:00.286Z</time>
      </trkpt>
      <trkpt lat="43.69198" lon="6.18246">
        <ele>846.2</ele>
        <time>2024-01-12T13:31:06.467Z</time>
      </trkpt>
      <trkpt lat="43.69202" lon="6.18241">
        <ele>845.4</ele>
        <time>2024-01-12T13:31:14.302Z</time>
      </trkpt>
      <trkpt lat="43.69206" lon="6.18236">
        <ele>844.8</ele>
        <time>2024-01-12T13:31:22.137Z</time>
      </trkpt>
      <trkpt lat="43.69208" lon="6.1823">
        <ele>844.8</ele>
        <time>2024-01-12T13:31:30.070Z</time>
      </trkpt>
      <trkpt lat="43.6921" lon="6.18223">
        <ele>844.8</ele>
        <time>2024-01-12T13:31:39.108Z</time>
      </trkpt>
      <trkpt lat="43.69214" lon="6.18213">
        <ele>844</ele>
        <time>2024-01-12T13:31:51.116Z</time>
      </trkpt>
      <trkpt lat="43.69218" lon="6.18209">
        <ele>843.6</ele>
        <time>2024-01-12T13:31:58.289Z</time>
      </trkpt>
      <trkpt lat="43.69222" lon="6.18205">
        <ele>843.4</ele>
        <time>2024-01-12T13:32:05.547Z</time>
      </trkpt>
      <trkpt lat="43.69226" lon="6.18201">
        <ele>842.8</ele>
        <time>2024-01-12T13:32:12.720Z</time>
      </trkpt>
      <trkpt lat="43.6923" lon="6.18196">
        <ele>842.4</ele>
        <time>2024-01-12T13:32:20.555Z</time>
      </trkpt>
      <trkpt lat="43.69232" lon="6.18189">
        <ele>841.8</ele>
        <time>2024-01-12T13:32:28.463Z</time>
      </trkpt>
      <trkpt lat="43.69234" lon="6.18182">
        <ele>841</ele>
        <time>2024-01-12T13:32:36.371Z</time>
      </trkpt>
      <trkpt lat="43.69238" lon="6.18176">
        <ele>840.2</ele>
        <time>2024-01-12T13:32:44.946Z</time>
      </trkpt>
      <trkpt lat="43.69241" lon="6.1817">
        <ele>839.6</ele>
        <time>2024-01-12T13:32:52.611Z</time>
      </trkpt>
      <trkpt lat="43.69245" lon="6.18164">
        <ele>838.9</ele>
        <time>2024-01-12T13:33:01.186Z</time>
      </trkpt>
      <trkpt lat="43.69248" lon="6.18158">
        <ele>838.1</ele>
        <time>2024-01-12T13:33:08.850Z</time>
      </trkpt>
      <trkpt lat="43.6925" lon="6.18152">
        <ele>837.4</ele>
        <time>2024-01-12T13:33:15.792Z</time>
      </trkpt>
      <trkpt lat="43.69252" lon="6.18145">
        <ele>836.6</ele>
        <time>2024-01-12T13:33:23.700Z</time>
      </trkpt>
      <trkpt lat="43.69255" lon="6.18139">
        <ele>835.8</ele>
        <time>2024-01-12T13:33:31.365Z</time>
      </trkpt>
      <trkpt lat="43.69258" lon="6.18132">
        <ele>835</ele>
        <time>2024-01-12T13:33:39.915Z</time>
      </trkpt>
      <trkpt lat="43.6926" lon="6.18125">
        <ele>834.1</ele>
        <time>2024-01-12T13:33:47.823Z</time>
      </trkpt>
      <trkpt lat="43.69261" lon="6.18118">
        <ele>833.3</ele>
        <time>2024-01-12T13:33:55.320Z</time>
      </trkpt>
      <trkpt lat="43.69264" lon="6.18112">
        <ele>832.6</ele>
        <time>2024-01-12T13:34:02.985Z</time>
      </trkpt>
      <trkpt lat="43.69267" lon="6.18105">
        <ele>831.9</ele>
        <time>2024-01-12T13:34:11.534Z</time>
      </trkpt>
      <trkpt lat="43.69271" lon="6.18101">
        <ele>831.4</ele>
        <time>2024-01-12T13:34:18.707Z</time>
      </trkpt>
      <trkpt lat="43.69274" lon="6.18096">
        <ele>831</ele>
        <time>2024-01-12T13:34:25.534Z</time>
      </trkpt>
      <trkpt lat="43.69277" lon="6.18091">
        <ele>830.6</ele>
        <time>2024-01-12T13:34:32.360Z</time>
      </trkpt>
      <trkpt lat="43.6928" lon="6.18085">
        <ele>830</ele>
        <time>2024-01-12T13:34:40.025Z</time>
      </trkpt>
      <trkpt lat="43.69284" lon="6.1808">
        <ele>829.4</ele>
        <time>2024-01-12T13:34:47.860Z</time>
      </trkpt>
      <trkpt lat="43.69288" lon="6.18074">
        <ele>828.6</ele>
        <time>2024-01-12T13:34:56.434Z</time>
      </trkpt>
      <trkpt lat="43.69291" lon="6.18068">
        <ele>827.9</ele>
        <time>2024-01-12T13:35:04.099Z</time>
      </trkpt>
      <trkpt lat="43.69294" lon="6.18062">
        <ele>827.1</ele>
        <time>2024-01-12T13:35:11.764Z</time>
      </trkpt>
      <trkpt lat="43.69297" lon="6.18056">
        <ele>826.4</ele>
        <time>2024-01-12T13:35:19.428Z</time>
      </trkpt>
      <trkpt lat="43.693" lon="6.1805">
        <ele>825.6</ele>
        <time>2024-01-12T13:35:27.093Z</time>
      </trkpt>
      <trkpt lat="43.69302" lon="6.18044">
        <ele>824.9</ele>
        <time>2024-01-12T13:35:34.035Z</time>
      </trkpt>
      <trkpt lat="43.69303" lon="6.18037">
        <ele>824.1</ele>
        <time>2024-01-12T13:35:41.532Z</time>
      </trkpt>
      <trkpt lat="43.69304" lon="6.1803">
        <ele>823.3</ele>
        <time>2024-01-12T13:35:49.029Z</time>
      </trkpt>
      <trkpt lat="43.69305" lon="6.18023">
        <ele>822.7</ele>
        <time>2024-01-12T13:35:56.525Z</time>
      </trkpt>
      <trkpt lat="43.69308" lon="6.18017">
        <ele>822.1</ele>
        <time>2024-01-12T13:36:04.190Z</time>
      </trkpt>
      <trkpt lat="43.69311" lon="6.1801">
        <ele>821.4</ele>
        <time>2024-01-12T13:36:12.740Z</time>
      </trkpt>
      <trkpt lat="43.69315" lon="6.18003">
        <ele>820.6</ele>
        <time>2024-01-12T13:36:22.114Z</time>
      </trkpt>
      <trkpt lat="43.69318" lon="6.17995">
        <ele>819.7</ele>
        <time>2024-01-12T13:36:31.583Z</time>
      </trkpt>
      <trkpt lat="43.69318" lon="6.17986">
        <ele>819.1</ele>
        <time>2024-01-12T13:36:41.039Z</time>
      </trkpt>
      <trkpt lat="43.69317" lon="6.17977">
        <ele>818.5</ele>
        <time>2024-01-12T13:36:50.606Z</time>
      </trkpt>
      <trkpt lat="43.69317" lon="6.17971">
        <ele>818.1</ele>
        <time>2024-01-12T13:36:56.910Z</time>
      </trkpt>
      <trkpt lat="43.69316" lon="6.17964">
        <ele>817.7</ele>
        <time>2024-01-12T13:37:04.407Z</time>
      </trkpt>
      <trkpt lat="43.6932" lon="6.1796">
        <ele>817.1</ele>
        <time>2024-01-12T13:37:11.580Z</time>
      </trkpt>
      <trkpt lat="43.69323" lon="6.17956">
        <ele>816.6</ele>
        <time>2024-01-12T13:37:17.635Z</time>
      </trkpt>
      <trkpt lat="43.69328" lon="6.17952">
        <ele>815.9</ele>
        <time>2024-01-12T13:37:26.029Z</time>
      </trkpt>
      <trkpt lat="43.69333" lon="6.17948">
        <ele>815.3</ele>
        <time>2024-01-12T13:37:34.422Z</time>
      </trkpt>
      <trkpt lat="43.69338" lon="6.17945">
        <ele>814.7</ele>
        <time>2024-01-12T13:37:42.342Z</time>
      </trkpt>
      <trkpt lat="43.69343" lon="6.17942">
        <ele>814.1</ele>
        <time>2024-01-12T13:37:50.262Z</time>
      </trkpt>
      <trkpt lat="43.69348" lon="6.17941">
        <ele>813.7</ele>
        <time>2024-01-12T13:37:57.603Z</time>
      </trkpt>
      <trkpt lat="43.69353" lon="6.1794">
        <ele>813.3</ele>
        <time>2024-01-12T13:38:04.945Z</time>
      </trkpt>
      <trkpt lat="43.69359" lon="6.17938">
        <ele>812.7</ele>
        <time>2024-01-12T13:38:13.913Z</time>
      </trkpt>
      <trkpt lat="43.69364" lon="6.17936">
        <ele>812</ele>
        <time>2024-01-12T13:38:21.476Z</time>
      </trkpt>
      <trkpt lat="43.69367" lon="6.17931">
        <ele>811.3</ele>
        <time>2024-01-12T13:38:28.303Z</time>
      </trkpt>
      <trkpt lat="43.6937" lon="6.17925">
        <ele>810.5</ele>
        <time>2024-01-12T13:38:35.967Z</time>
      </trkpt>
      <trkpt lat="43.69374" lon="6.1792">
        <ele>809.8</ele>
        <time>2024-01-12T13:38:43.802Z</time>
      </trkpt>
      <trkpt lat="43.69377" lon="6.17914">
        <ele>809.1</ele>
        <time>2024-01-12T13:38:51.467Z</time>
      </trkpt>
      <trkpt lat="43.69382" lon="6.17911">
        <ele>808.3</ele>
        <time>2024-01-12T13:38:59.387Z</time>
      </trkpt>
      <trkpt lat="43.69386" lon="6.17908">
        <ele>807.7</ele>
        <time>2024-01-12T13:39:05.999Z</time>
      </trkpt>
      <trkpt lat="43.69392" lon="6.17906">
        <ele>806.8</ele>
        <time>2024-01-12T13:39:14.967Z</time>
      </trkpt>
      <trkpt lat="43.69397" lon="6.17904">
        <ele>806</ele>
        <time>2024-01-12T13:39:22.530Z</time>
      </trkpt>
      <trkpt lat="43.69401" lon="6.179">
        <ele>805.4</ele>
        <time>2024-01-12T13:39:29.703Z</time>
      </trkpt>
      <trkpt lat="43.69405" lon="6.17895">
        <ele>804.9</ele>
        <time>2024-01-12T13:39:37.538Z</time>
      </trkpt>
      <trkpt lat="43.69409" lon="6.17891">
        <ele>804.5</ele>
        <time>2024-01-12T13:39:44.711Z</time>
      </trkpt>
      <trkpt lat="43.69413" lon="6.17886">
        <ele>804</ele>
        <time>2024-01-12T13:39:52.545Z</time>
      </trkpt>
      <trkpt lat="43.69418" lon="6.17883">
        <ele>803.4</ele>
        <time>2024-01-12T13:40:00.465Z</time>
      </trkpt>
      <trkpt lat="43.69423" lon="6.17879">
        <ele>802.5</ele>
        <time>2024-01-12T13:40:08.859Z</time>
      </trkpt>
      <trkpt lat="43.69428" lon="6.17875">
        <ele>801.8</ele>
        <time>2024-01-12T13:40:17.252Z</time>
      </trkpt>
      <trkpt lat="43.69432" lon="6.17871">
        <ele>801.2</ele>
        <time>2024-01-12T13:40:24.425Z</time>
      </trkpt>
      <trkpt lat="43.69436" lon="6.17866">
        <ele>800.7</ele>
        <time>2024-01-12T13:40:32.260Z</time>
      </trkpt>
      <trkpt lat="43.6944" lon="6.17861">
        <ele>800.3</ele>
        <time>2024-01-12T13:40:40.094Z</time>
      </trkpt>
      <trkpt lat="43.69444" lon="6.17855">
        <ele>799.8</ele>
        <time>2024-01-12T13:40:48.669Z</time>
      </trkpt>
      <trkpt lat="43.69447" lon="6.17849">
        <ele>799.2</ele>
        <time>2024-01-12T13:40:56.334Z</time>
      </trkpt>
      <trkpt lat="43.69451" lon="6.17844">
        <ele>798.6</ele>
        <time>2024-01-12T13:41:04.168Z</time>
      </trkpt>
      <trkpt lat="43.69455" lon="6.17839">
        <ele>798</ele>
        <time>2024-01-12T13:41:12.003Z</time>
      </trkpt>
      <trkpt lat="43.6946" lon="6.17835">
        <ele>797.3</ele>
        <time>2024-01-12T13:41:20.396Z</time>
      </trkpt>
      <trkpt lat="43.69465" lon="6.1783">
        <ele>796.7</ele>
        <time>2024-01-12T13:41:29.362Z</time>
      </trkpt>
      <trkpt lat="43.69469" lon="6.17825">
        <ele>796.3</ele>
        <time>2024-01-12T13:41:37.197Z</time>
      </trkpt>
      <trkpt lat="43.69472" lon="6.17819">
        <ele>796</ele>
        <time>2024-01-12T13:41:44.861Z</time>
      </trkpt>
      <trkpt lat="43.69473" lon="6.17811">
        <ele>795.9</ele>
        <time>2024-01-12T13:41:54.117Z</time>
      </trkpt>
      <trkpt lat="43.69474" lon="6.17803">
        <ele>795.7</ele>
        <time>2024-01-12T13:42:02.914Z</time>
      </trkpt>
      <trkpt lat="43.69479" lon="6.178">
        <ele>794.9</ele>
        <time>2024-01-12T13:42:10.834Z</time>
      </trkpt>
      <trkpt lat="43.69483" lon="6.17796">
        <ele>794.4</ele>
        <time>2024-01-12T13:42:18.006Z</time>
      </trkpt>
      <trkpt lat="43.69488" lon="6.17792">
        <ele>793.8</ele>
        <time>2024-01-12T13:42:26.400Z</time>
      </trkpt>
      <trkpt lat="43.69493" lon="6.17788">
        <ele>793.3</ele>
        <time>2024-01-12T13:42:34.793Z</time>
      </trkpt>
      <trkpt lat="43.69499" lon="6.17779">
        <ele>793</ele>
        <time>2024-01-12T13:42:48.065Z</time>
      </trkpt>
      <trkpt lat="43.69502" lon="6.17774">
        <ele>792.7</ele>
        <time>2024-01-12T13:42:54.892Z</time>
      </trkpt>
      <trkpt lat="43.69504" lon="6.17768">
        <ele>792.4</ele>
        <time>2024-01-12T13:43:01.833Z</time>
      </trkpt>
      <trkpt lat="43.69508" lon="6.17762">
        <ele>792.1</ele>
        <time>2024-01-12T13:43:10.408Z</time>
      </trkpt>
      <trkpt lat="43.69511" lon="6.17756">
        <ele>792</ele>
        <time>2024-01-12T13:43:18.676Z</time>
      </trkpt>
      <trkpt lat="43.69515" lon="6.17752">
        <ele>791.8</ele>
        <time>2024-01-12T13:43:25.934Z</time>
      </trkpt>
      <trkpt lat="43.69518" lon="6.17747">
        <ele>791.7</ele>
        <time>2024-01-12T13:43:33.248Z</time>
      </trkpt>
      <trkpt lat="43.69523" lon="6.17744">
        <ele>791.5</ele>
        <time>2024-01-12T13:43:41.352Z</time>
      </trkpt>
      <trkpt lat="43.69527" lon="6.17741">
        <ele>791.4</ele>
        <time>2024-01-12T13:43:48.421Z</time>
      </trkpt>
      <trkpt lat="43.69532" lon="6.17738">
        <ele>790.8</ele>
        <time>2024-01-12T13:43:56.341Z</time>
      </trkpt>
      <trkpt lat="43.69537" lon="6.17735">
        <ele>790.2</ele>
        <time>2024-01-12T13:44:04.261Z</time>
      </trkpt>
      <trkpt lat="43.69541" lon="6.17731">
        <ele>790</ele>
        <time>2024-01-12T13:44:11.519Z</time>
      </trkpt>
      <trkpt lat="43.69545" lon="6.17727">
        <ele>789.8</ele>
        <time>2024-01-12T13:44:18.778Z</time>
      </trkpt>
      <trkpt lat="43.69548" lon="6.17722">
        <ele>789.8</ele>
        <time>2024-01-12T13:44:26.579Z</time>
      </trkpt>
      <trkpt lat="43.69551" lon="6.17717">
        <ele>789.6</ele>
        <time>2024-01-12T13:44:33.446Z</time>
      </trkpt>
      <trkpt lat="43.69554" lon="6.17706">
        <ele>789.7</ele>
        <time>2024-01-12T13:44:48.087Z</time>
      </trkpt>
      <trkpt lat="43.69555" lon="6.177">
        <ele>789.8</ele>
        <time>2024-01-12T13:44:56.017Z</time>
      </trkpt>
      <trkpt lat="43.69555" lon="6.17693">
        <ele>789.9</ele>
        <time>2024-01-12T13:45:04.956Z</time>
      </trkpt>
      <trkpt lat="43.69556" lon="6.17686">
        <ele>789.7</ele>
        <time>2024-01-12T13:45:12.581Z</time>
      </trkpt>
      <trkpt lat="43.69556" lon="6.17678">
        <ele>789.4</ele>
        <time>2024-01-12T13:45:20.986Z</time>
      </trkpt>
      <trkpt lat="43.6956" lon="6.17667">
        <ele>788.9</ele>
        <time>2024-01-12T13:45:33.923Z</time>
      </trkpt>
      <trkpt lat="43.69562" lon="6.1766">
        <ele>788.3</ele>
        <time>2024-01-12T13:45:41.831Z</time>
      </trkpt>
      <trkpt lat="43.69563" lon="6.17653">
        <ele>787.9</ele>
        <time>2024-01-12T13:45:49.327Z</time>
      </trkpt>
      <trkpt lat="43.69565" lon="6.17646">
        <ele>787.4</ele>
        <time>2024-01-12T13:45:57.235Z</time>
      </trkpt>
      <trkpt lat="43.69566" lon="6.17639">
        <ele>787</ele>
        <time>2024-01-12T13:46:04.732Z</time>
      </trkpt>
      <trkpt lat="43.69569" lon="6.17634">
        <ele>786.6</ele>
        <time>2024-01-12T13:46:11.558Z</time>
      </trkpt>
      <trkpt lat="43.69571" lon="6.17628">
        <ele>786</ele>
        <time>2024-01-12T13:46:18.500Z</time>
      </trkpt>
      <trkpt lat="43.69573" lon="6.17622">
        <ele>785.6</ele>
        <time>2024-01-12T13:46:25.441Z</time>
      </trkpt>
      <trkpt lat="43.69574" lon="6.17616">
        <ele>785.1</ele>
        <time>2024-01-12T13:46:31.911Z</time>
      </trkpt>
      <trkpt lat="43.69574" lon="6.17609">
        <ele>784.5</ele>
        <time>2024-01-12T13:46:39.265Z</time>
      </trkpt>
      <trkpt lat="43.69574" lon="6.17602">
        <ele>783.9</ele>
        <time>2024-01-12T13:46:46.619Z</time>
      </trkpt>
      <trkpt lat="43.69574" lon="6.17595">
        <ele>783.3</ele>
        <time>2024-01-12T13:46:53.974Z</time>
      </trkpt>
      <trkpt lat="43.69573" lon="6.17588">
        <ele>782.7</ele>
        <time>2024-01-12T13:47:01.471Z</time>
      </trkpt>
      <trkpt lat="43.69574" lon="6.17581">
        <ele>782.1</ele>
        <time>2024-01-12T13:47:08.967Z</time>
      </trkpt>
      <trkpt lat="43.69574" lon="6.17574">
        <ele>781.4</ele>
        <time>2024-01-12T13:47:16.322Z</time>
      </trkpt>
      <trkpt lat="43.69574" lon="6.17567">
        <ele>780.8</ele>
        <time>2024-01-12T13:47:23.676Z</time>
      </trkpt>
      <trkpt lat="43.69574" lon="6.1756">
        <ele>780.1</ele>
        <time>2024-01-12T13:47:31.031Z</time>
      </trkpt>
      <trkpt lat="43.69575" lon="6.17553">
        <ele>779.5</ele>
        <time>2024-01-12T13:47:38.527Z</time>
      </trkpt>
      <trkpt lat="43.69576" lon="6.17545">
        <ele>778.9</ele>
        <time>2024-01-12T13:47:47.057Z</time>
      </trkpt>
      <trkpt lat="43.69577" lon="6.17537">
        <ele>778.3</ele>
        <time>2024-01-12T13:47:55.587Z</time>
      </trkpt>
      <trkpt lat="43.69577" lon="6.17529">
        <ele>777.6</ele>
        <time>2024-01-12T13:48:03.992Z</time>
      </trkpt>
      <trkpt lat="43.69576" lon="6.17517">
        <ele>776.7</ele>
        <time>2024-01-12T13:48:16.683Z</time>
      </trkpt>
      <trkpt lat="43.69573" lon="6.17518">
        <ele>776.6</ele>
        <time>2024-01-12T13:48:21.330Z</time>
      </trkpt>
      <trkpt lat="43.69568" lon="6.17517">
        <ele>776.1</ele>
        <time>2024-01-12T13:48:28.672Z</time>
      </trkpt>
      <trkpt lat="43.69565" lon="6.17512">
        <ele>775.5</ele>
        <time>2024-01-12T13:48:35.498Z</time>
      </trkpt>
      <trkpt lat="43.69562" lon="6.17507">
        <ele>775</ele>
        <time>2024-01-12T13:48:42.324Z</time>
      </trkpt>
      <trkpt lat="43.69558" lon="6.17502">
        <ele>774.3</ele>
        <time>2024-01-12T13:48:50.159Z</time>
      </trkpt>
      <trkpt lat="43.69554" lon="6.17496">
        <ele>773.4</ele>
        <time>2024-01-12T13:48:58.734Z</time>
      </trkpt>
      <trkpt lat="43.6955" lon="6.17486">
        <ele>772.1</ele>
        <time>2024-01-12T13:49:10.741Z</time>
      </trkpt>
      <trkpt lat="43.69551" lon="6.17478">
        <ele>771.7</ele>
        <time>2024-01-12T13:49:19.271Z</time>
      </trkpt>
      <trkpt lat="43.69551" lon="6.17469">
        <ele>771.1</ele>
        <time>2024-01-12T13:49:28.726Z</time>
      </trkpt>
      <trkpt lat="43.69553" lon="6.17461">
        <ele>770.9</ele>
        <time>2024-01-12T13:49:37.936Z</time>
      </trkpt>
      <trkpt lat="43.69554" lon="6.17453">
        <ele>770.4</ele>
        <time>2024-01-12T13:49:46.466Z</time>
      </trkpt>
      <trkpt lat="43.69555" lon="6.17447">
        <ele>770.1</ele>
        <time>2024-01-12T13:49:52.935Z</time>
      </trkpt>
      <trkpt lat="43.69555" lon="6.1744">
        <ele>769.5</ele>
        <time>2024-01-12T13:50:00.289Z</time>
      </trkpt>
      <trkpt lat="43.69555" lon="6.17434">
        <ele>768.8</ele>
        <time>2024-01-12T13:50:06.593Z</time>
      </trkpt>
      <trkpt lat="43.69554" lon="6.17427">
        <ele>768</ele>
        <time>2024-01-12T13:50:14.090Z</time>
      </trkpt>
      <trkpt lat="43.6955" lon="6.17424">
        <ele>767.3</ele>
        <time>2024-01-12T13:50:20.702Z</time>
      </trkpt>
      <trkpt lat="43.69546" lon="6.1742">
        <ele>766.6</ele>
        <time>2024-01-12T13:50:27.875Z</time>
      </trkpt>
      <trkpt lat="43.69542" lon="6.17417">
        <ele>766.1</ele>
        <time>2024-01-12T13:50:34.487Z</time>
      </trkpt>
      <trkpt lat="43.69537" lon="6.17414">
        <ele>765.4</ele>
        <time>2024-01-12T13:50:42.407Z</time>
      </trkpt>
      <trkpt lat="43.69533" lon="6.1741">
        <ele>764.7</ele>
        <time>2024-01-12T13:50:49.579Z</time>
      </trkpt>
      <trkpt lat="43.69529" lon="6.17406">
        <ele>763.9</ele>
        <time>2024-01-12T13:50:56.752Z</time>
      </trkpt>
      <trkpt lat="43.69527" lon="6.174">
        <ele>763.1</ele>
        <time>2024-01-12T13:51:03.693Z</time>
      </trkpt>
      <trkpt lat="43.69524" lon="6.17394">
        <ele>762</ele>
        <time>2024-01-12T13:51:11.358Z</time>
      </trkpt>
      <trkpt lat="43.69521" lon="6.17389">
        <ele>761</ele>
        <time>2024-01-12T13:51:18.184Z</time>
      </trkpt>
      <trkpt lat="43.69518" lon="6.17384">
        <ele>760.1</ele>
        <time>2024-01-12T13:51:25.011Z</time>
      </trkpt>
      <trkpt lat="43.69515" lon="6.17379">
        <ele>759.3</ele>
        <time>2024-01-12T13:51:31.837Z</time>
      </trkpt>
      <trkpt lat="43.69511" lon="6.17373">
        <ele>758.2</ele>
        <time>2024-01-12T13:51:40.412Z</time>
      </trkpt>
      <trkpt lat="43.69508" lon="6.17367">
        <ele>757.3</ele>
        <time>2024-01-12T13:51:48.076Z</time>
      </trkpt>
      <trkpt lat="43.69505" lon="6.17361">
        <ele>756.5</ele>
        <time>2024-01-12T13:51:55.741Z</time>
      </trkpt>
      <trkpt lat="43.69502" lon="6.17356">
        <ele>755.7</ele>
        <time>2024-01-12T13:52:02.567Z</time>
      </trkpt>
      <trkpt lat="43.69498" lon="6.17351">
        <ele>754.6</ele>
        <time>2024-01-12T13:52:10.402Z</time>
      </trkpt>
      <trkpt lat="43.69494" lon="6.17347">
        <ele>753.5</ele>
        <time>2024-01-12T13:52:17.574Z</time>
      </trkpt>
      <trkpt lat="43.6949" lon="6.17343">
        <ele>752.5</ele>
        <time>2024-01-12T13:52:24.747Z</time>
      </trkpt>
      <trkpt lat="43.69485" lon="6.17333">
        <ele>750.8</ele>
        <time>2024-01-12T13:52:37.521Z</time>
      </trkpt>
      <trkpt lat="43.69484" lon="6.17327">
        <ele>750.1</ele>
        <time>2024-01-12T13:52:43.990Z</time>
      </trkpt>
      <trkpt lat="43.69482" lon="6.17321">
        <ele>749.4</ele>
        <time>2024-01-12T13:52:50.932Z</time>
      </trkpt>
      <trkpt lat="43.69482" lon="6.17314">
        <ele>748.8</ele>
        <time>2024-01-12T13:52:58.287Z</time>
      </trkpt>
      <trkpt lat="43.69481" lon="6.17307">
        <ele>748.1</ele>
        <time>2024-01-12T13:53:05.783Z</time>
      </trkpt>
      <trkpt lat="43.6948" lon="6.173">
        <ele>747.2</ele>
        <time>2024-01-12T13:53:13.280Z</time>
      </trkpt>
      <trkpt lat="43.69478" lon="6.17292">
        <ele>746.2</ele>
        <time>2024-01-12T13:53:22.174Z</time>
      </trkpt>
      <trkpt lat="43.69479" lon="6.17285">
        <ele>745.5</ele>
        <time>2024-01-12T13:53:29.670Z</time>
      </trkpt>
      <trkpt lat="43.69479" lon="6.17278">
        <ele>744.8</ele>
        <time>2024-01-12T13:53:37.025Z</time>
      </trkpt>
      <trkpt lat="43.69481" lon="6.17271">
        <ele>744.1</ele>
        <time>2024-01-12T13:53:44.933Z</time>
      </trkpt>
      <trkpt lat="43.69482" lon="6.17263">
        <ele>743.3</ele>
        <time>2024-01-12T13:53:53.463Z</time>
      </trkpt>
      <trkpt lat="43.69483" lon="6.17256">
        <ele>742.5</ele>
        <time>2024-01-12T13:54:00.960Z</time>
      </trkpt>
      <trkpt lat="43.69483" lon="6.17248">
        <ele>741.6</ele>
        <time>2024-01-12T13:54:09.365Z</time>
      </trkpt>
      <trkpt lat="43.69481" lon="6.17242">
        <ele>740.8</ele>
        <time>2024-01-12T13:54:16.306Z</time>
      </trkpt>
      <trkpt lat="43.69478" lon="6.17235">
        <ele>739.8</ele>
        <time>2024-01-12T13:54:24.856Z</time>
      </trkpt>
      <trkpt lat="43.69479" lon="6.17229">
        <ele>739.2</ele>
        <time>2024-01-12T13:54:31.325Z</time>
      </trkpt>
      <trkpt lat="43.69479" lon="6.17222">
        <ele>738.5</ele>
        <time>2024-01-12T13:54:38.680Z</time>
      </trkpt>
      <trkpt lat="43.69476" lon="6.17216">
        <ele>737.6</ele>
        <time>2024-01-12T13:54:46.344Z</time>
      </trkpt>
      <trkpt lat="43.69473" lon="6.1721">
        <ele>736.7</ele>
        <time>2024-01-12T13:54:54.009Z</time>
      </trkpt>
      <trkpt lat="43.6947" lon="6.17206">
        <ele>736</ele>
        <time>2024-01-12T13:55:00.064Z</time>
      </trkpt>
      <trkpt lat="43.69466" lon="6.17201">
        <ele>735</ele>
        <time>2024-01-12T13:55:07.898Z</time>
      </trkpt>
      <trkpt lat="43.69462" lon="6.17197">
        <ele>734.2</ele>
        <time>2024-01-12T13:55:15.071Z</time>
      </trkpt>
      <trkpt lat="43.69458" lon="6.17192">
        <ele>733.2</ele>
        <time>2024-01-12T13:55:22.906Z</time>
      </trkpt>
      <trkpt lat="43.69454" lon="6.1719">
        <ele>732.7</ele>
        <time>2024-01-12T13:55:29.086Z</time>
      </trkpt>
      <trkpt lat="43.69449" lon="6.17188">
        <ele>732</ele>
        <time>2024-01-12T13:55:36.650Z</time>
      </trkpt>
      <trkpt lat="43.69443" lon="6.17188">
        <ele>731.3</ele>
        <time>2024-01-12T13:55:45.369Z</time>
      </trkpt>
      <trkpt lat="43.69437" lon="6.17188">
        <ele>730.5</ele>
        <time>2024-01-12T13:55:54.087Z</time>
      </trkpt>
      <trkpt lat="43.69431" lon="6.17189">
        <ele>729.7</ele>
        <time>2024-01-12T13:56:02.869Z</time>
      </trkpt>
      <trkpt lat="43.69425" lon="6.1719">
        <ele>728.9</ele>
        <time>2024-01-12T13:56:11.651Z</time>
      </trkpt>
      <trkpt lat="43.69421" lon="6.17192">
        <ele>728.4</ele>
        <time>2024-01-12T13:56:17.832Z</time>
      </trkpt>
      <trkpt lat="43.69416" lon="6.17194">
        <ele>727.8</ele>
        <time>2024-01-12T13:56:25.395Z</time>
      </trkpt>
      <trkpt lat="43.69411" lon="6.17198">
        <ele>727.2</ele>
        <time>2024-01-12T13:56:33.789Z</time>
      </trkpt>
      <trkpt lat="43.69406" lon="6.17202">
        <ele>726.5</ele>
        <time>2024-01-12T13:56:42.182Z</time>
      </trkpt>
      <trkpt lat="43.69401" lon="6.17207">
        <ele>725.8</ele>
        <time>2024-01-12T13:56:51.148Z</time>
      </trkpt>
      <trkpt lat="43.69395" lon="6.17211">
        <ele>724.8</ele>
        <time>2024-01-12T13:57:00.827Z</time>
      </trkpt>
      <trkpt lat="43.6939" lon="6.17214">
        <ele>723.9</ele>
        <time>2024-01-12T13:57:08.747Z</time>
      </trkpt>
      <trkpt lat="43.69384" lon="6.17216">
        <ele>722.7</ele>
        <time>2024-01-12T13:57:17.715Z</time>
      </trkpt>
      <trkpt lat="43.6938" lon="6.17219">
        <ele>722</ele>
        <time>2024-01-12T13:57:24.327Z</time>
      </trkpt>
      <trkpt lat="43.69375" lon="6.17221">
        <ele>721</ele>
        <time>2024-01-12T13:57:31.891Z</time>
      </trkpt>
      <trkpt lat="43.6937" lon="6.17224">
        <ele>720</ele>
        <time>2024-01-12T13:57:39.811Z</time>
      </trkpt>
      <trkpt lat="43.69364" lon="6.17227">
        <ele>719</ele>
        <time>2024-01-12T13:57:49.082Z</time>
      </trkpt>
      <trkpt lat="43.6936" lon="6.17222">
        <ele>718</ele>
        <time>2024-01-12T13:57:56.916Z</time>
      </trkpt>
      <trkpt lat="43.69356" lon="6.17217">
        <ele>717.7</ele>
        <time>2024-01-12T13:58:04.751Z</time>
      </trkpt>
      <trkpt lat="43.69353" lon="6.1721">
        <ele>717.3</ele>
        <time>2024-01-12T13:58:13.301Z</time>
      </trkpt>
      <trkpt lat="43.69349" lon="6.17203">
        <ele>716.7</ele>
        <time>2024-01-12T13:58:22.675Z</time>
      </trkpt>
      <trkpt lat="43.69346" lon="6.17198">
        <ele>716.2</ele>
        <time>2024-01-12T13:58:29.502Z</time>
      </trkpt>
      <trkpt lat="43.69343" lon="6.17193">
        <ele>715.6</ele>
        <time>2024-01-12T13:58:36.328Z</time>
      </trkpt>
      <trkpt lat="43.69341" lon="6.17186">
        <ele>714.8</ele>
        <time>2024-01-12T13:58:44.236Z</time>
      </trkpt>
      <trkpt lat="43.69338" lon="6.17178">
        <ele>713.8</ele>
        <time>2024-01-12T13:58:53.705Z</time>
      </trkpt>
      <trkpt lat="43.69336" lon="6.17172">
        <ele>712.9</ele>
        <time>2024-01-12T13:59:00.647Z</time>
      </trkpt>
      <trkpt lat="43.69333" lon="6.17165">
        <ele>711.9</ele>
        <time>2024-01-12T13:59:09.196Z</time>
      </trkpt>
      <trkpt lat="43.69331" lon="6.17158">
        <ele>711.7</ele>
        <time>2024-01-12T13:59:17.288Z</time>
      </trkpt>
      <trkpt lat="43.69329" lon="6.17151">
        <ele>711.3</ele>
        <time>2024-01-12T13:59:25.196Z</time>
      </trkpt>
      <trkpt lat="43.69325" lon="6.17146">
        <ele>710.9</ele>
        <time>2024-01-12T13:59:33.031Z</time>
      </trkpt>
      <trkpt lat="43.69321" lon="6.1714">
        <ele>710.2</ele>
        <time>2024-01-12T13:59:41.606Z</time>
      </trkpt>
      <trkpt lat="43.69318" lon="6.17134">
        <ele>709.6</ele>
        <time>2024-01-12T13:59:49.270Z</time>
      </trkpt>
      <trkpt lat="43.69315" lon="6.17128">
        <ele>708.9</ele>
        <time>2024-01-12T13:59:56.935Z</time>
      </trkpt>
      <trkpt lat="43.69312" lon="6.17123">
        <ele>708.1</ele>
        <time>2024-01-12T14:00:03.761Z</time>
      </trkpt>
      <trkpt lat="43.69308" lon="6.17118">
        <ele>707.1</ele>
        <time>2024-01-12T14:00:11.596Z</time>
      </trkpt>
      <trkpt lat="43.69304" lon="6.17113">
        <ele>706.2</ele>
        <time>2024-01-12T14:00:19.431Z</time>
      </trkpt>
      <trkpt lat="43.693" lon="6.17107">
        <ele>705.7</ele>
        <time>2024-01-12T14:00:28.006Z</time>
      </trkpt>
      <trkpt lat="43.69294" lon="6.17107">
        <ele>705.4</ele>
        <time>2024-01-12T14:00:36.724Z</time>
      </trkpt>
      <trkpt lat="43.69288" lon="6.17106">
        <ele>705</ele>
        <time>2024-01-12T14:00:45.506Z</time>
      </trkpt>
      <trkpt lat="43.69283" lon="6.17105">
        <ele>704.7</ele>
        <time>2024-01-12T14:00:52.848Z</time>
      </trkpt>
      <trkpt lat="43.69277" lon="6.17104">
        <ele>704.2</ele>
        <time>2024-01-12T14:01:01.629Z</time>
      </trkpt>
      <trkpt lat="43.69272" lon="6.17104">
        <ele>704.2</ele>
        <time>2024-01-12T14:01:09.933Z</time>
      </trkpt>
      <trkpt lat="43.69267" lon="6.17103">
        <ele>704.1</ele>
        <time>2024-01-12T14:01:17.833Z</time>
      </trkpt>
      <trkpt lat="43.69262" lon="6.17103">
        <ele>704.1</ele>
        <time>2024-01-12T14:01:26.136Z</time>
      </trkpt>
      <trkpt lat="43.69257" lon="6.17103">
        <ele>704.1</ele>
        <time>2024-01-12T14:01:34.440Z</time>
      </trkpt>
      <trkpt lat="43.69253" lon="6.17103">
        <ele>704.1</ele>
        <time>2024-01-12T14:01:41.083Z</time>
      </trkpt>
      <trkpt lat="43.69248" lon="6.17103">
        <ele>704.1</ele>
        <time>2024-01-12T14:01:49.386Z</time>
      </trkpt>
      <trkpt lat="43.69243" lon="6.17103">
        <ele>703.9</ele>
        <time>2024-01-12T14:01:56.750Z</time>
      </trkpt>
      <trkpt lat="43.69238" lon="6.17102">
        <ele>703.6</ele>
        <time>2024-01-12T14:02:04.091Z</time>
      </trkpt>
      <trkpt lat="43.69234" lon="6.17101">
        <ele>703.3</ele>
        <time>2024-01-12T14:02:09.998Z</time>
      </trkpt>
      <trkpt lat="43.69229" lon="6.17099">
        <ele>702.9</ele>
        <time>2024-01-12T14:02:17.561Z</time>
      </trkpt>
      <trkpt lat="43.69224" lon="6.17098">
        <ele>702.6</ele>
        <time>2024-01-12T14:02:24.903Z</time>
      </trkpt>
      <trkpt lat="43.69219" lon="6.17097">
        <ele>702.6</ele>
        <time>2024-01-12T14:02:33.292Z</time>
      </trkpt>
      <trkpt lat="43.69215" lon="6.17094">
        <ele>702.4</ele>
        <time>2024-01-12T14:02:39.917Z</time>
      </trkpt>
      <trkpt lat="43.6921" lon="6.1709">
        <ele>702.2</ele>
        <time>2024-01-12T14:02:48.559Z</time>
      </trkpt>
      <trkpt lat="43.69205" lon="6.17085">
        <ele>701.8</ele>
        <time>2024-01-12T14:02:57.525Z</time>
      </trkpt>
      <trkpt lat="43.69199" lon="6.1708">
        <ele>701.7</ele>
        <time>2024-01-12T14:03:08.663Z</time>
      </trkpt>
      <trkpt lat="43.69194" lon="6.17076">
        <ele>701.8</ele>
        <time>2024-01-12T14:03:18.786Z</time>
      </trkpt>
      <trkpt lat="43.69189" lon="6.17071">
        <ele>702.3</ele>
        <time>2024-01-12T14:03:32.109Z</time>
      </trkpt>
      <trkpt lat="43.69185" lon="6.17065">
        <ele>702.5</ele>
        <time>2024-01-12T14:03:43.011Z</time>
      </trkpt>
      <trkpt lat="43.6918" lon="6.17058">
        <ele>702.7</ele>
        <time>2024-01-12T14:03:55.914Z</time>
      </trkpt>
      <trkpt lat="43.69179" lon="6.17049">
        <ele>702.3</ele>
        <time>2024-01-12T14:04:05.481Z</time>
      </trkpt>
      <trkpt lat="43.69178" lon="6.1704">
        <ele>702</ele>
        <time>2024-01-12T14:04:15.049Z</time>
      </trkpt>
      <trkpt lat="43.69175" lon="6.17032">
        <ele>702</ele>
        <time>2024-01-12T14:04:25.870Z</time>
      </trkpt>
      <trkpt lat="43.69172" lon="6.17023">
        <ele>702.1</ele>
        <time>2024-01-12T14:04:38.298Z</time>
      </trkpt>
      <trkpt lat="43.69166" lon="6.17019">
        <ele>702.8</ele>
        <time>2024-01-12T14:04:53.928Z</time>
      </trkpt>
      <trkpt lat="43.6916" lon="6.17015">
        <ele>703.2</ele>
        <time>2024-01-12T14:05:07.330Z</time>
      </trkpt>
      <trkpt lat="43.69155" lon="6.17011">
        <ele>703.3</ele>
        <time>2024-01-12T14:05:17.454Z</time>
      </trkpt>
      <trkpt lat="43.6915" lon="6.17006">
        <ele>703.2</ele>
        <time>2024-01-12T14:05:27.207Z</time>
      </trkpt>
      <trkpt lat="43.69144" lon="6.17002">
        <ele>703.1</ele>
        <time>2024-01-12T14:05:37.773Z</time>
      </trkpt>
      <trkpt lat="43.69137" lon="6.16997">
        <ele>703.2</ele>
        <time>2024-01-12T14:05:51.383Z</time>
      </trkpt>
      <trkpt lat="43.69133" lon="6.16994">
        <ele>703.8</ele>
        <time>2024-01-12T14:06:03.131Z</time>
      </trkpt>
      <trkpt lat="43.69128" lon="6.1699">
        <ele>704.3</ele>
        <time>2024-01-12T14:06:15.841Z</time>
      </trkpt>
      <trkpt lat="43.69124" lon="6.16986">
        <ele>704.6</ele>
        <time>2024-01-12T14:06:25.797Z</time>
      </trkpt>
      <trkpt lat="43.6912" lon="6.16981">
        <ele>704.8</ele>
        <time>2024-01-12T14:06:35.861Z</time>
      </trkpt>
      <trkpt lat="43.69115" lon="6.16975">
        <ele>704.9</ele>
        <time>2024-01-12T14:06:47.383Z</time>
      </trkpt>
      <trkpt lat="43.6911" lon="6.16969">
        <ele>704.7</ele>
        <time>2024-01-12T14:06:57.418Z</time>
      </trkpt>
      <trkpt lat="43.69103" lon="6.16963">
        <ele>704.6</ele>
        <time>2024-01-12T14:07:10.596Z</time>
      </trkpt>
      <trkpt lat="43.69099" lon="6.16958">
        <ele>704.3</ele>
        <time>2024-01-12T14:07:18.431Z</time>
      </trkpt>
      <trkpt lat="43.69095" lon="6.16953">
        <ele>704.1</ele>
        <time>2024-01-12T14:07:26.440Z</time>
      </trkpt>
      <trkpt lat="43.69091" lon="6.16949">
        <ele>703.9</ele>
        <time>2024-01-12T14:07:33.698Z</time>
      </trkpt>
      <trkpt lat="43.69086" lon="6.16945">
        <ele>703.9</ele>
        <time>2024-01-12T14:07:43.291Z</time>
      </trkpt>
      <trkpt lat="43.69082" lon="6.16942">
        <ele>703.9</ele>
        <time>2024-01-12T14:07:50.848Z</time>
      </trkpt>
      <trkpt lat="43.69077" lon="6.16939">
        <ele>704.1</ele>
        <time>2024-01-12T14:08:01.008Z</time>
      </trkpt>
      <trkpt lat="43.69072" lon="6.16937">
        <ele>704.3</ele>
        <time>2024-01-12T14:08:10.766Z</time>
      </trkpt>
      <trkpt lat="43.69067" lon="6.16934">
        <ele>704.4</ele>
        <time>2024-01-12T14:08:20.349Z</time>
      </trkpt>
      <trkpt lat="43.69063" lon="6.16933">
        <ele>704.6</ele>
        <time>2024-01-12T14:08:28.241Z</time>
      </trkpt>
      <trkpt lat="43.69058" lon="6.16931">
        <ele>704.9</ele>
        <time>2024-01-12T14:08:38.631Z</time>
      </trkpt>
      <trkpt lat="43.69053" lon="6.16929">
        <ele>704.9</ele>
        <time>2024-01-12T14:08:47.275Z</time>
      </trkpt>
      <trkpt lat="43.69048" lon="6.16927">
        <ele>704.8</ele>
        <time>2024-01-12T14:08:55.428Z</time>
      </trkpt>
      <trkpt lat="43.69043" lon="6.16925">
        <ele>704.7</ele>
        <time>2024-01-12T14:09:03.581Z</time>
      </trkpt>
      <trkpt lat="43.69037" lon="6.16922">
        <ele>704.5</ele>
        <time>2024-01-12T14:09:13.220Z</time>
      </trkpt>
      <trkpt lat="43.69031" lon="6.1692">
        <ele>704.3</ele>
        <time>2024-01-12T14:09:22.515Z</time>
      </trkpt>
      <trkpt lat="43.69025" lon="6.16917">
        <ele>703.9</ele>
        <time>2024-01-12T14:09:31.786Z</time>
      </trkpt>
      <trkpt lat="43.69022" lon="6.16913">
        <ele>703.5</ele>
        <time>2024-01-12T14:09:37.841Z</time>
      </trkpt>
      <trkpt lat="43.69018" lon="6.16908">
        <ele>702.9</ele>
        <time>2024-01-12T14:09:45.676Z</time>
      </trkpt>
      <trkpt lat="43.69014" lon="6.16903">
        <ele>702.3</ele>
        <time>2024-01-12T14:09:53.511Z</time>
      </trkpt>
      <trkpt lat="43.69009" lon="6.16898">
        <ele>701.5</ele>
        <time>2024-01-12T14:10:02.477Z</time>
      </trkpt>
      <trkpt lat="43.69005" lon="6.16896">
        <ele>701.1</ele>
        <time>2024-01-12T14:10:08.658Z</time>
      </trkpt>
      <trkpt lat="43.69" lon="6.16893">
        <ele>700.4</ele>
        <time>2024-01-12T14:10:16.578Z</time>
      </trkpt>
      <trkpt lat="43.68995" lon="6.16892">
        <ele>699.8</ele>
        <time>2024-01-12T14:10:23.919Z</time>
      </trkpt>
      <trkpt lat="43.6899" lon="6.16891">
        <ele>699.1</ele>
        <time>2024-01-12T14:10:31.260Z</time>
      </trkpt>
      <trkpt lat="43.68984" lon="6.16892">
        <ele>698.6</ele>
        <time>2024-01-12T14:10:40.042Z</time>
      </trkpt>
      <trkpt lat="43.68978" lon="6.16892">
        <ele>698</ele>
        <time>2024-01-12T14:10:48.761Z</time>
      </trkpt>
      <trkpt lat="43.68973" lon="6.16893">
        <ele>697.5</ele>
        <time>2024-01-12T14:10:56.102Z</time>
      </trkpt>
      <trkpt lat="43.68968" lon="6.16894">
        <ele>696.9</ele>
        <time>2024-01-12T14:11:03.443Z</time>
      </trkpt>
      <trkpt lat="43.68963" lon="6.16897">
        <ele>696.5</ele>
        <time>2024-01-12T14:11:11.363Z</time>
      </trkpt>
      <trkpt lat="43.68958" lon="6.169">
        <ele>695.9</ele>
        <time>2024-01-12T14:11:19.283Z</time>
      </trkpt>
      <trkpt lat="43.68951" lon="6.16902">
        <ele>695</ele>
        <time>2024-01-12T14:11:29.670Z</time>
      </trkpt>
      <trkpt lat="43.68943" lon="6.16904">
        <ele>693.9</ele>
        <time>2024-01-12T14:11:41.483Z</time>
      </trkpt>
      <trkpt lat="43.68938" lon="6.16913">
        <ele>693.8</ele>
        <time>2024-01-12T14:11:54.614Z</time>
      </trkpt>
      <trkpt lat="43.68933" lon="6.16917">
        <ele>693.4</ele>
        <time>2024-01-12T14:12:03.008Z</time>
      </trkpt>
      <trkpt lat="43.68928" lon="6.1692">
        <ele>692.9</ele>
        <time>2024-01-12T14:12:10.928Z</time>
      </trkpt>
      <trkpt lat="43.68923" lon="6.16923">
        <ele>692.4</ele>
        <time>2024-01-12T14:12:18.848Z</time>
      </trkpt>
      <trkpt lat="43.68917" lon="6.16926">
        <ele>691.7</ele>
        <time>2024-01-12T14:12:28.119Z</time>
      </trkpt>
      <trkpt lat="43.68912" lon="6.16927">
        <ele>690.9</ele>
        <time>2024-01-12T14:12:35.460Z</time>
      </trkpt>
      <trkpt lat="43.68906" lon="6.16927">
        <ele>689.8</ele>
        <time>2024-01-12T14:12:44.179Z</time>
      </trkpt>
      <trkpt lat="43.68902" lon="6.1693">
        <ele>689.3</ele>
        <time>2024-01-12T14:12:50.791Z</time>
      </trkpt>
      <trkpt lat="43.68897" lon="6.16933">
        <ele>688.6</ele>
        <time>2024-01-12T14:12:58.711Z</time>
      </trkpt>
      <trkpt lat="43.68894" lon="6.16937">
        <ele>688.4</ele>
        <time>2024-01-12T14:13:04.767Z</time>
      </trkpt>
      <trkpt lat="43.6889" lon="6.16941">
        <ele>688</ele>
        <time>2024-01-12T14:13:11.940Z</time>
      </trkpt>
      <trkpt lat="43.68884" lon="6.16943">
        <ele>687.2</ele>
        <time>2024-01-12T14:13:20.908Z</time>
      </trkpt>
      <trkpt lat="43.68878" lon="6.16944">
        <ele>686.4</ele>
        <time>2024-01-12T14:13:29.690Z</time>
      </trkpt>
      <trkpt lat="43.68874" lon="6.16947">
        <ele>686.1</ele>
        <time>2024-01-12T14:13:36.302Z</time>
      </trkpt>
      <trkpt lat="43.68869" lon="6.1695">
        <ele>685.6</ele>
        <time>2024-01-12T14:13:44.222Z</time>
      </trkpt>
      <trkpt lat="43.68864" lon="6.16952">
        <ele>685</ele>
        <time>2024-01-12T14:13:51.786Z</time>
      </trkpt>
      <trkpt lat="43.68859" lon="6.16954">
        <ele>684.4</ele>
        <time>2024-01-12T14:13:59.349Z</time>
      </trkpt>
      <trkpt lat="43.68855" lon="6.16953">
        <ele>683.7</ele>
        <time>2024-01-12T14:14:05.256Z</time>
      </trkpt>
      <trkpt lat="43.6885" lon="6.16951">
        <ele>682.8</ele>
        <time>2024-01-12T14:14:12.819Z</time>
      </trkpt>
      <trkpt lat="43.68842" lon="6.16948">
        <ele>681.4</ele>
        <time>2024-01-12T14:14:24.864Z</time>
      </trkpt>
      <trkpt lat="43.68837" lon="6.16947">
        <ele>680.6</ele>
        <time>2024-01-12T14:14:32.206Z</time>
      </trkpt>
      <trkpt lat="43.68831" lon="6.16946">
        <ele>679.7</ele>
        <time>2024-01-12T14:14:40.987Z</time>
      </trkpt>
      <trkpt lat="43.68826" lon="6.16947">
        <ele>679</ele>
        <time>2024-01-12T14:14:48.329Z</time>
      </trkpt>
      <trkpt lat="43.68821" lon="6.16948">
        <ele>678.4</ele>
        <time>2024-01-12T14:14:55.670Z</time>
      </trkpt>
      <trkpt lat="43.68816" lon="6.1695">
        <ele>677.7</ele>
        <time>2024-01-12T14:15:03.233Z</time>
      </trkpt>
      <trkpt lat="43.68811" lon="6.16952">
        <ele>677.1</ele>
        <time>2024-01-12T14:15:10.797Z</time>
      </trkpt>
      <trkpt lat="43.68807" lon="6.16955">
        <ele>676.6</ele>
        <time>2024-01-12T14:15:17.409Z</time>
      </trkpt>
      <trkpt lat="43.68802" lon="6.16958">
        <ele>676.1</ele>
        <time>2024-01-12T14:15:25.329Z</time>
      </trkpt>
      <trkpt lat="43.68797" lon="6.1696">
        <ele>675.6</ele>
        <time>2024-01-12T14:15:32.892Z</time>
      </trkpt>
      <trkpt lat="43.68792" lon="6.16962">
        <ele>675.2</ele>
        <time>2024-01-12T14:15:40.456Z</time>
      </trkpt>
      <trkpt lat="43.68787" lon="6.16961">
        <ele>674.6</ele>
        <time>2024-01-12T14:15:47.797Z</time>
      </trkpt>
      <trkpt lat="43.68782" lon="6.16959">
        <ele>674</ele>
        <time>2024-01-12T14:15:55.361Z</time>
      </trkpt>
      <trkpt lat="43.68777" lon="6.16958">
        <ele>673.4</ele>
        <time>2024-01-12T14:16:02.702Z</time>
      </trkpt>
      <trkpt lat="43.68772" lon="6.16956">
        <ele>672.6</ele>
        <time>2024-01-12T14:16:10.265Z</time>
      </trkpt>
      <trkpt lat="43.68764" lon="6.1696">
        <ele>671.6</ele>
        <time>2024-01-12T14:16:22.627Z</time>
      </trkpt>
      <trkpt lat="43.6876" lon="6.16965">
        <ele>671.2</ele>
        <time>2024-01-12T14:16:30.462Z</time>
      </trkpt>
      <trkpt lat="43.68755" lon="6.16969">
        <ele>670.6</ele>
        <time>2024-01-12T14:16:38.856Z</time>
      </trkpt>
      <trkpt lat="43.6875" lon="6.16969">
        <ele>669.9</ele>
        <time>2024-01-12T14:16:46.121Z</time>
      </trkpt>
      <trkpt lat="43.68744" lon="6.16969">
        <ele>669.2</ele>
        <time>2024-01-12T14:16:54.840Z</time>
      </trkpt>
      <trkpt lat="43.6874" lon="6.16973">
        <ele>668.9</ele>
        <time>2024-01-12T14:17:02.013Z</time>
      </trkpt>
      <trkpt lat="43.68735" lon="6.16976">
        <ele>668.5</ele>
        <time>2024-01-12T14:17:09.933Z</time>
      </trkpt>
      <trkpt lat="43.68731" lon="6.1698">
        <ele>668.1</ele>
        <time>2024-01-12T14:17:17.106Z</time>
      </trkpt>
      <trkpt lat="43.68726" lon="6.16983">
        <ele>667.7</ele>
        <time>2024-01-12T14:17:25.026Z</time>
      </trkpt>
      <trkpt lat="43.68723" lon="6.16988">
        <ele>667.6</ele>
        <time>2024-01-12T14:17:32.340Z</time>
      </trkpt>
      <trkpt lat="43.68719" lon="6.16993">
        <ele>667.7</ele>
        <time>2024-01-12T14:17:41.827Z</time>
      </trkpt>
      <trkpt lat="43.68716" lon="6.17004">
        <ele>668.4</ele>
        <time>2024-01-12T14:18:00.265Z</time>
      </trkpt>
      <trkpt lat="43.68713" lon="6.17009">
        <ele>668.9</ele>
        <time>2024-01-12T14:18:11.341Z</time>
      </trkpt>
      <trkpt lat="43.6871" lon="6.17014">
        <ele>669.3</ele>
        <time>2024-01-12T14:18:21.629Z</time>
      </trkpt>
      <trkpt lat="43.68707" lon="6.17025">
        <ele>670.2</ele>
        <time>2024-01-12T14:18:41.632Z</time>
      </trkpt>
      <trkpt lat="43.68705" lon="6.17037">
        <ele>671</ele>
        <time>2024-01-12T14:19:01.449Z</time>
      </trkpt>
      <trkpt lat="43.68708" lon="6.17046">
        <ele>671.8</ele>
        <time>2024-01-12T14:19:18.657Z</time>
      </trkpt>
      <trkpt lat="43.68709" lon="6.17047">
        <ele>671.9</ele>
        <time>2024-01-12T14:19:21.321Z</time>
      </trkpt>
      <trkpt lat="43.68712" lon="6.17045">
        <ele>671.9</ele>
        <time>2024-01-12T14:19:26.852Z</time>
      </trkpt>
      <trkpt lat="43.68711" lon="6.17039">
        <ele>671.4</ele>
        <time>2024-01-12T14:19:33.322Z</time>
      </trkpt>
      <trkpt lat="43.68709" lon="6.17038">
        <ele>671.3</ele>
        <time>2024-01-12T14:19:36.413Z</time>
      </trkpt>
      <trkpt lat="43.68711" lon="6.17038">
        <ele>671.3</ele>
        <time>2024-01-12T14:19:39.734Z</time>
      </trkpt>
      <trkpt lat="43.6871" lon="6.17042">
        <ele>671.6</ele>
        <time>2024-01-12T14:19:46.741Z</time>
      </trkpt>
      <trkpt lat="43.68709" lon="6.17045">
        <ele>671.8</ele>
        <time>2024-01-12T14:19:51.946Z</time>
      </trkpt>
      <trkpt lat="43.68706" lon="6.17042">
        <ele>671.4</ele>
        <time>2024-01-12T14:19:57.326Z</time>
      </trkpt>
      <trkpt lat="43.68703" lon="6.17037">
        <ele>671</ele>
        <time>2024-01-12T14:20:04.153Z</time>
      </trkpt>
      <trkpt lat="43.68699" lon="6.17031">
        <ele>670.4</ele>
        <time>2024-01-12T14:20:12.728Z</time>
      </trkpt>
      <trkpt lat="43.68697" lon="6.17026">
        <ele>670</ele>
        <time>2024-01-12T14:20:18.732Z</time>
      </trkpt>
      <trkpt lat="43.68694" lon="6.1702">
        <ele>669.4</ele>
        <time>2024-01-12T14:20:26.397Z</time>
      </trkpt>
      <trkpt lat="43.68691" lon="6.17013">
        <ele>668.8</ele>
        <time>2024-01-12T14:20:34.948Z</time>
      </trkpt>
      <trkpt lat="43.68687" lon="6.17006">
        <ele>668.2</ele>
        <time>2024-01-12T14:20:44.323Z</time>
      </trkpt>
      <trkpt lat="43.68683" lon="6.17004">
        <ele>667.9</ele>
        <time>2024-01-12T14:20:50.503Z</time>
      </trkpt>
      <trkpt lat="43.68678" lon="6.17002">
        <ele>667.6</ele>
        <time>2024-01-12T14:20:58.067Z</time>
      </trkpt>
      <trkpt lat="43.68673" lon="6.17003">
        <ele>667.4</ele>
        <time>2024-01-12T14:21:05.516Z</time>
      </trkpt>
      <trkpt lat="43.68667" lon="6.17003">
        <ele>667.2</ele>
        <time>2024-01-12T14:21:14.527Z</time>
      </trkpt>
      <trkpt lat="43.68662" lon="6.17004">
        <ele>667.1</ele>
        <time>2024-01-12T14:21:22.427Z</time>
      </trkpt>
      <trkpt lat="43.68657" lon="6.17005">
        <ele>667</ele>
        <time>2024-01-12T14:21:30.327Z</time>
      </trkpt>
      <trkpt lat="43.68653" lon="6.17008">
        <ele>667.1</ele>
        <time>2024-01-12T14:21:38.421Z</time>
      </trkpt>
      <trkpt lat="43.68648" lon="6.1701">
        <ele>667</ele>
        <time>2024-01-12T14:21:46.574Z</time>
      </trkpt>
      <trkpt lat="43.68644" lon="6.17012">
        <ele>667</ele>
        <time>2024-01-12T14:21:53.638Z</time>
      </trkpt>
      <trkpt lat="43.68639" lon="6.17013">
        <ele>666.9</ele>
        <time>2024-01-12T14:22:01.537Z</time>
      </trkpt>
      <trkpt lat="43.68635" lon="6.17014">
        <ele>666.9</ele>
        <time>2024-01-12T14:22:08.288Z</time>
      </trkpt>
      <trkpt lat="43.6863" lon="6.17015">
        <ele>666.8</ele>
        <time>2024-01-12T14:22:16.188Z</time>
      </trkpt>
      <trkpt lat="43.68626" lon="6.17018">
        <ele>666.8</ele>
        <time>2024-01-12T14:22:23.745Z</time>
      </trkpt>
      <trkpt lat="43.68621" lon="6.1702">
        <ele>666.8</ele>
        <time>2024-01-12T14:22:32.389Z</time>
      </trkpt>
      <trkpt lat="43.68616" lon="6.17022">
        <ele>666.8</ele>
        <time>2024-01-12T14:22:41.033Z</time>
      </trkpt>
      <trkpt lat="43.68611" lon="6.17024">
        <ele>666.7</ele>
        <time>2024-01-12T14:22:49.186Z</time>
      </trkpt>
      <trkpt lat="43.68606" lon="6.17026">
        <ele>666.7</ele>
        <time>2024-01-12T14:22:57.830Z</time>
      </trkpt>
      <trkpt lat="43.68601" lon="6.17027">
        <ele>666.6</ele>
        <time>2024-01-12T14:23:05.730Z</time>
      </trkpt>
      <trkpt lat="43.68596" lon="6.17028">
        <ele>666.5</ele>
        <time>2024-01-12T14:23:13.630Z</time>
      </trkpt>
      <trkpt lat="43.68591" lon="6.17028">
        <ele>666.3</ele>
        <time>2024-01-12T14:23:20.993Z</time>
      </trkpt>
      <trkpt lat="43.68586" lon="6.17029">
        <ele>666.2</ele>
        <time>2024-01-12T14:23:28.893Z</time>
      </trkpt>
      <trkpt lat="43.68581" lon="6.1703">
        <ele>666</ele>
        <time>2024-01-12T14:23:36.342Z</time>
      </trkpt>
      <trkpt lat="43.68576" lon="6.17032">
        <ele>665.7</ele>
        <time>2024-01-12T14:23:43.906Z</time>
      </trkpt>
      <trkpt lat="43.68571" lon="6.17034">
        <ele>665.5</ele>
        <time>2024-01-12T14:23:51.607Z</time>
      </trkpt>
      <trkpt lat="43.6857" lon="6.17025">
        <ele>664.9</ele>
        <time>2024-01-12T14:24:01.175Z</time>
      </trkpt>
      <trkpt lat="43.68574" lon="6.1702">
        <ele>664.9</ele>
        <time>2024-01-12T14:24:10.130Z</time>
      </trkpt>
      <trkpt lat="43.68577" lon="6.17014">
        <ele>664.5</ele>
        <time>2024-01-12T14:24:17.795Z</time>
      </trkpt>
      <trkpt lat="43.68581" lon="6.17009">
        <ele>664</ele>
        <time>2024-01-12T14:24:25.630Z</time>
      </trkpt>
      <trkpt lat="43.68584" lon="6.17003">
        <ele>663.4</ele>
        <time>2024-01-12T14:24:33.295Z</time>
      </trkpt>
      <trkpt lat="43.68587" lon="6.16997">
        <ele>663.1</ele>
        <time>2024-01-12T14:24:40.960Z</time>
      </trkpt>
      <trkpt lat="43.68589" lon="6.1699">
        <ele>662.8</ele>
        <time>2024-01-12T14:24:48.869Z</time>
      </trkpt>
      <trkpt lat="43.6859" lon="6.16983">
        <ele>662.4</ele>
        <time>2024-01-12T14:24:56.367Z</time>
      </trkpt>
      <trkpt lat="43.68591" lon="6.16976">
        <ele>662.1</ele>
        <time>2024-01-12T14:25:03.865Z</time>
      </trkpt>
      <trkpt lat="43.68594" lon="6.16969">
        <ele>662</ele>
        <time>2024-01-12T14:25:13.144Z</time>
      </trkpt>
      <trkpt lat="43.68597" lon="6.16961">
        <ele>661.9</ele>
        <time>2024-01-12T14:25:23.472Z</time>
      </trkpt>
      <trkpt lat="43.686" lon="6.16954">
        <ele>661.6</ele>
        <time>2024-01-12T14:25:32.022Z</time>
      </trkpt>
      <trkpt lat="43.68603" lon="6.16947">
        <ele>661.2</ele>
        <time>2024-01-12T14:25:40.573Z</time>
      </trkpt>
      <trkpt lat="43.68605" lon="6.16941">
        <ele>660.7</ele>
        <time>2024-01-12T14:25:47.515Z</time>
      </trkpt>
      <trkpt lat="43.68606" lon="6.16935">
        <ele>660.2</ele>
        <time>2024-01-12T14:25:53.985Z</time>
      </trkpt>
      <trkpt lat="43.6861" lon="6.16929">
        <ele>659.4</ele>
        <time>2024-01-12T14:26:02.560Z</time>
      </trkpt>
      <trkpt lat="43.68614" lon="6.16923">
        <ele>658.9</ele>
        <time>2024-01-12T14:26:11.136Z</time>
      </trkpt>
      <trkpt lat="43.68617" lon="6.16917">
        <ele>658.7</ele>
        <time>2024-01-12T14:26:18.952Z</time>
      </trkpt>
      <trkpt lat="43.6862" lon="6.16911">
        <ele>658.8</ele>
        <time>2024-01-12T14:26:28.245Z</time>
      </trkpt>
      <trkpt lat="43.68624" lon="6.16906">
        <ele>659</ele>
        <time>2024-01-12T14:26:38.309Z</time>
      </trkpt>
      <trkpt lat="43.68627" lon="6.169">
        <ele>659</ele>
        <time>2024-01-12T14:26:47.070Z</time>
      </trkpt>
      <trkpt lat="43.6863" lon="6.16895">
        <ele>659</ele>
        <time>2024-01-12T14:26:54.872Z</time>
      </trkpt>
      <trkpt lat="43.68632" lon="6.16889">
        <ele>658.8</ele>
        <time>2024-01-12T14:27:01.870Z</time>
      </trkpt>
      <trkpt lat="43.68634" lon="6.16881">
        <ele>658.1</ele>
        <time>2024-01-12T14:27:10.764Z</time>
      </trkpt>
      <trkpt lat="43.68635" lon="6.16873">
        <ele>657.4</ele>
        <time>2024-01-12T14:27:19.296Z</time>
      </trkpt>
      <trkpt lat="43.68636" lon="6.16866">
        <ele>656.7</ele>
        <time>2024-01-12T14:27:26.793Z</time>
      </trkpt>
      <trkpt lat="43.68636" lon="6.16859">
        <ele>656.1</ele>
        <time>2024-01-12T14:27:34.149Z</time>
      </trkpt>
      <trkpt lat="43.68635" lon="6.16852">
        <ele>656</ele>
        <time>2024-01-12T14:27:42.227Z</time>
      </trkpt>
      <trkpt lat="43.68634" lon="6.16844">
        <ele>655.7</ele>
        <time>2024-01-12T14:27:50.758Z</time>
      </trkpt>
      <trkpt lat="43.68634" lon="6.16836">
        <ele>655.4</ele>
        <time>2024-01-12T14:27:59.165Z</time>
      </trkpt>
      <trkpt lat="43.68633" lon="6.16828">
        <ele>655.2</ele>
        <time>2024-01-12T14:28:07.963Z</time>
      </trkpt>
      <trkpt lat="43.68633" lon="6.1682">
        <ele>654.8</ele>
        <time>2024-01-12T14:28:16.369Z</time>
      </trkpt>
      <trkpt lat="43.68633" lon="6.16812">
        <ele>654.5</ele>
        <time>2024-01-12T14:28:24.776Z</time>
      </trkpt>
      <trkpt lat="43.68632" lon="6.16804">
        <ele>654.2</ele>
        <time>2024-01-12T14:28:33.307Z</time>
      </trkpt>
      <trkpt lat="43.68631" lon="6.16796">
        <ele>653.9</ele>
        <time>2024-01-12T14:28:41.838Z</time>
      </trkpt>
      <trkpt lat="43.68629" lon="6.1679">
        <ele>653.8</ele>
        <time>2024-01-12T14:28:49.283Z</time>
      </trkpt>
      <trkpt lat="43.68626" lon="6.16783">
        <ele>653.7</ele>
        <time>2024-01-12T14:28:58.562Z</time>
      </trkpt>
      <trkpt lat="43.68624" lon="6.16776">
        <ele>653.5</ele>
        <time>2024-01-12T14:29:06.655Z</time>
      </trkpt>
      <trkpt lat="43.68622" lon="6.16768">
        <ele>653.3</ele>
        <time>2024-01-12T14:29:15.866Z</time>
      </trkpt>
      <trkpt lat="43.68621" lon="6.16759">
        <ele>653</ele>
        <time>2024-01-12T14:29:25.434Z</time>
      </trkpt>
      <trkpt lat="43.68619" lon="6.1675">
        <ele>652.7</ele>
        <time>2024-01-12T14:29:35.343Z</time>
      </trkpt>
      <trkpt lat="43.68618" lon="6.16743">
        <ele>652.5</ele>
        <time>2024-01-12T14:29:42.969Z</time>
      </trkpt>
      <trkpt lat="43.68617" lon="6.16735">
        <ele>652.2</ele>
        <time>2024-01-12T14:29:51.500Z</time>
      </trkpt>
      <trkpt lat="43.68615" lon="6.16726">
        <ele>652</ele>
        <time>2024-01-12T14:30:01.847Z</time>
      </trkpt>
      <trkpt lat="43.68612" lon="6.1672">
        <ele>651.9</ele>
        <time>2024-01-12T14:30:10.381Z</time>
      </trkpt>
      <trkpt lat="43.68608" lon="6.16715">
        <ele>651.7</ele>
        <time>2024-01-12T14:30:18.461Z</time>
      </trkpt>
      <trkpt lat="43.68605" lon="6.16709">
        <ele>651.5</ele>
        <time>2024-01-12T14:30:26.541Z</time>
      </trkpt>
      <trkpt lat="43.68601" lon="6.16703">
        <ele>651.3</ele>
        <time>2024-01-12T14:30:34.621Z</time>
      </trkpt>
      <trkpt lat="43.686" lon="6.16697">
        <ele>651.1</ele>
        <time>2024-01-12T14:30:41.311Z</time>
      </trkpt>
      <trkpt lat="43.68598" lon="6.16691">
        <ele>650.8</ele>
        <time>2024-01-12T14:30:47.982Z</time>
      </trkpt>
      <trkpt lat="43.68597" lon="6.16686">
        <ele>650.5</ele>
        <time>2024-01-12T14:30:53.434Z</time>
      </trkpt>
      <trkpt lat="43.68598" lon="6.16675">
        <ele>649.9</ele>
        <time>2024-01-12T14:31:05.084Z</time>
      </trkpt>
      <trkpt lat="43.68597" lon="6.16667">
        <ele>649.5</ele>
        <time>2024-01-12T14:31:13.615Z</time>
      </trkpt>
      <trkpt lat="43.68594" lon="6.16656">
        <ele>649</ele>
        <time>2024-01-12T14:31:25.968Z</time>
      </trkpt>
      <trkpt lat="43.68588" lon="6.1665">
        <ele>648.7</ele>
        <time>2024-01-12T14:31:36.856Z</time>
      </trkpt>
      <trkpt lat="43.68586" lon="6.16645">
        <ele>648.4</ele>
        <time>2024-01-12T14:31:42.861Z</time>
      </trkpt>
      <trkpt lat="43.68585" lon="6.16637">
        <ele>647.9</ele>
        <time>2024-01-12T14:31:51.392Z</time>
      </trkpt>
      <trkpt lat="43.68587" lon="6.16629">
        <ele>647.6</ele>
        <time>2024-01-12T14:32:00.586Z</time>
      </trkpt>
      <trkpt lat="43.68588" lon="6.1662">
        <ele>647.2</ele>
        <time>2024-01-12T14:32:09.780Z</time>
      </trkpt>
      <trkpt lat="43.68591" lon="6.16615">
        <ele>646.9</ele>
        <time>2024-01-12T14:32:16.607Z</time>
      </trkpt>
      <trkpt lat="43.68594" lon="6.1661">
        <ele>646.6</ele>
        <time>2024-01-12T14:32:23.434Z</time>
      </trkpt>
      <trkpt lat="43.68597" lon="6.16605">
        <ele>646.4</ele>
        <time>2024-01-12T14:32:30.301Z</time>
      </trkpt>
      <trkpt lat="43.68599" lon="6.16599">
        <ele>646.2</ele>
        <time>2024-01-12T14:32:37.167Z</time>
      </trkpt>
      <trkpt lat="43.68601" lon="6.16592">
        <ele>646.1</ele>
        <time>2024-01-12T14:32:45.714Z</time>
      </trkpt>
      <trkpt lat="43.686" lon="6.16584">
        <ele>646</ele>
        <time>2024-01-12T14:32:54.971Z</time>
      </trkpt>
      <trkpt lat="43.68597" lon="6.16576">
        <ele>645.6</ele>
        <time>2024-01-12T14:33:04.441Z</time>
      </trkpt>
      <trkpt lat="43.68593" lon="6.1657">
        <ele>645.1</ele>
        <time>2024-01-12T14:33:12.577Z</time>
      </trkpt>
      <trkpt lat="43.6859" lon="6.16565">
        <ele>644.4</ele>
        <time>2024-01-12T14:33:20.714Z</time>
      </trkpt>
      <trkpt lat="43.68586" lon="6.16559">
        <ele>643.6</ele>
        <time>2024-01-12T14:33:28.850Z</time>
      </trkpt>
      <trkpt lat="43.68582" lon="6.16553">
        <ele>643.1</ele>
        <time>2024-01-12T14:33:36.987Z</time>
      </trkpt>
      <trkpt lat="43.68577" lon="6.16545">
        <ele>643.4</ele>
        <time>2024-01-12T14:33:51.273Z</time>
      </trkpt>
      <trkpt lat="43.68572" lon="6.16538">
        <ele>643.5</ele>
        <time>2024-01-12T14:34:04.411Z</time>
      </trkpt>
      <trkpt lat="43.68567" lon="6.1653">
        <ele>643.4</ele>
        <time>2024-01-12T14:34:16.526Z</time>
      </trkpt>
      <trkpt lat="43.68562" lon="6.16522">
        <ele>643.1</ele>
        <time>2024-01-12T14:34:27.727Z</time>
      </trkpt>
      <trkpt lat="43.68556" lon="6.16514">
        <ele>642.6</ele>
        <time>2024-01-12T14:34:38.762Z</time>
      </trkpt>
      <trkpt lat="43.68551" lon="6.16507">
        <ele>642.1</ele>
        <time>2024-01-12T14:34:49.798Z</time>
      </trkpt>
      <trkpt lat="43.68546" lon="6.16499">
        <ele>641.6</ele>
        <time>2024-01-12T14:35:00.833Z</time>
      </trkpt>
      <trkpt lat="43.68541" lon="6.16491">
        <ele>641.3</ele>
        <time>2024-01-12T14:35:12.034Z</time>
      </trkpt>
      <trkpt lat="43.68538" lon="6.16485">
        <ele>641</ele>
        <time>2024-01-12T14:35:20.550Z</time>
      </trkpt>
      <trkpt lat="43.68534" lon="6.16478">
        <ele>640.6</ele>
        <time>2024-01-12T14:35:29.066Z</time>
      </trkpt>
      <trkpt lat="43.6853" lon="6.16475">
        <ele>640.2</ele>
        <time>2024-01-12T14:35:36.568Z</time>
      </trkpt>
      <trkpt lat="43.68525" lon="6.16471">
        <ele>639.9</ele>
        <time>2024-01-12T14:35:44.071Z</time>
      </trkpt>
      <trkpt lat="43.6852" lon="6.16469">
        <ele>639.7</ele>
        <time>2024-01-12T14:35:51.772Z</time>
      </trkpt>
      <trkpt lat="43.68515" lon="6.16467">
        <ele>639.5</ele>
        <time>2024-01-12T14:35:59.472Z</time>
      </trkpt>
      <trkpt lat="43.68508" lon="6.16465">
        <ele>639.3</ele>
        <time>2024-01-12T14:36:11.190Z</time>
      </trkpt>
      <trkpt lat="43.685" lon="6.16463">
        <ele>639</ele>
        <time>2024-01-12T14:36:22.463Z</time>
      </trkpt>
      <trkpt lat="43.68495" lon="6.16463">
        <ele>638.8</ele>
        <time>2024-01-12T14:36:29.848Z</time>
      </trkpt>
      <trkpt lat="43.6849" lon="6.16462">
        <ele>638.5</ele>
        <time>2024-01-12T14:36:37.133Z</time>
      </trkpt>
      <trkpt lat="43.68485" lon="6.16462">
        <ele>638.3</ele>
        <time>2024-01-12T14:36:44.518Z</time>
      </trkpt>
      <trkpt lat="43.6848" lon="6.16461">
        <ele>638</ele>
        <time>2024-01-12T14:36:51.802Z</time>
      </trkpt>
      <trkpt lat="43.68474" lon="6.1646">
        <ele>637.6</ele>
        <time>2024-01-12T14:37:00.662Z</time>
      </trkpt>
      <trkpt lat="43.68468" lon="6.16458">
        <ele>637.3</ele>
        <time>2024-01-12T14:37:09.522Z</time>
      </trkpt>
      <trkpt lat="43.68462" lon="6.16457">
        <ele>637.1</ele>
        <time>2024-01-12T14:37:18.694Z</time>
      </trkpt>
      <trkpt lat="43.68456" lon="6.16455">
        <ele>636.8</ele>
        <time>2024-01-12T14:37:27.554Z</time>
      </trkpt>
      <trkpt lat="43.68451" lon="6.16453">
        <ele>636.5</ele>
        <time>2024-01-12T14:37:35.967Z</time>
      </trkpt>
      <trkpt lat="43.68445" lon="6.1645">
        <ele>636.2</ele>
        <time>2024-01-12T14:37:44.380Z</time>
      </trkpt>
      <trkpt lat="43.68438" lon="6.16445">
        <ele>635.8</ele>
        <time>2024-01-12T14:37:56.079Z</time>
      </trkpt>
      <trkpt lat="43.68431" lon="6.16439">
        <ele>635.4</ele>
        <time>2024-01-12T14:38:07.779Z</time>
      </trkpt>
      <trkpt lat="43.68424" lon="6.16431">
        <ele>634.9</ele>
        <time>2024-01-12T14:38:20.697Z</time>
      </trkpt>
      <trkpt lat="43.68418" lon="6.16423">
        <ele>634.3</ele>
        <time>2024-01-12T14:38:33.615Z</time>
      </trkpt>
      <trkpt lat="43.68411" lon="6.16415">
        <ele>633.8</ele>
        <time>2024-01-12T14:38:46.533Z</time>
      </trkpt>
      <trkpt lat="43.68404" lon="6.16407">
        <ele>633.4</ele>
        <time>2024-01-12T14:38:59.452Z</time>
      </trkpt>
      <trkpt lat="43.68398" lon="6.164">
        <ele>632.9</ele>
        <time>2024-01-12T14:39:11.264Z</time>
      </trkpt>
      <trkpt lat="43.68391" lon="6.16394">
        <ele>632.3</ele>
        <time>2024-01-12T14:39:23.076Z</time>
      </trkpt>
      <trkpt lat="43.68385" lon="6.16387">
        <ele>632</ele>
        <time>2024-01-12T14:39:35.157Z</time>
      </trkpt>
      <trkpt lat="43.68378" lon="6.1638">
        <ele>631.9</ele>
        <time>2024-01-12T14:39:48.158Z</time>
      </trkpt>
      <trkpt lat="43.68373" lon="6.16374">
        <ele>631.7</ele>
        <time>2024-01-12T14:39:58.701Z</time>
      </trkpt>
      <trkpt lat="43.68368" lon="6.16368">
        <ele>631.4</ele>
        <time>2024-01-12T14:40:08.805Z</time>
      </trkpt>
      <trkpt lat="43.68362" lon="6.16361">
        <ele>631</ele>
        <time>2024-01-12T14:40:18.872Z</time>
      </trkpt>
      <trkpt lat="43.68357" lon="6.16355">
        <ele>630.8</ele>
        <time>2024-01-12T14:40:29.415Z</time>
      </trkpt>
      <trkpt lat="43.68353" lon="6.1635">
        <ele>630.6</ele>
        <time>2024-01-12T14:40:37.123Z</time>
      </trkpt>
      <trkpt lat="43.6835" lon="6.16345">
        <ele>630.3</ele>
        <time>2024-01-12T14:40:44.693Z</time>
      </trkpt>
      <trkpt lat="43.68346" lon="6.1634">
        <ele>630</ele>
        <time>2024-01-12T14:40:52.262Z</time>
      </trkpt>
      <trkpt lat="43.68342" lon="6.16335">
        <ele>629.7</ele>
        <time>2024-01-12T14:40:59.832Z</time>
      </trkpt>
      <trkpt lat="43.68339" lon="6.16332">
        <ele>629.4</ele>
        <time>2024-01-12T14:41:05.212Z</time>
        <extensions>
          <visugpx:TrkExtension xmlns:visugpx="https://www.visugpx.com/editgpx/">
            <visugpx:node>2</visugpx:node>
            </visugpx:TrkExtension>
        </extensions>
      </trkpt>
      <trkpt lat="43.68335" lon="6.16328">
        <ele>629.1</ele>
        <time>2024-01-12T14:41:12.463Z</time>
      </trkpt>
      <trkpt lat="43.68331" lon="6.16324">
        <ele>628.9</ele>
        <time>2024-01-12T14:41:19.810Z</time>
      </trkpt>
      <trkpt lat="43.68327" lon="6.1632">
        <ele>628.8</ele>
        <time>2024-01-12T14:41:27.607Z</time>
      </trkpt>
      <trkpt lat="43.68323" lon="6.16316">
        <ele>628.6</ele>
        <time>2024-01-12T14:41:34.954Z</time>
      </trkpt>
      <trkpt lat="43.68319" lon="6.16311">
        <ele>628.5</ele>
        <time>2024-01-12T14:41:42.751Z</time>
      </trkpt>
      <trkpt lat="43.68315" lon="6.16307">
        <ele>628.3</ele>
        <time>2024-01-12T14:41:50.097Z</time>
      </trkpt>
      <trkpt lat="43.68311" lon="6.16303">
        <ele>628.1</ele>
        <time>2024-01-12T14:41:57.444Z</time>
      </trkpt>
      <trkpt lat="43.68307" lon="6.16299">
        <ele>627.8</ele>
        <time>2024-01-12T14:42:04.695Z</time>
      </trkpt>
      <trkpt lat="43.68302" lon="6.16295">
        <ele>627.4</ele>
        <time>2024-01-12T14:42:13.982Z</time>
      </trkpt>
      <trkpt lat="43.68296" lon="6.1629">
        <ele>626.9</ele>
        <time>2024-01-12T14:42:23.268Z</time>
      </trkpt>
      <trkpt lat="43.6829" lon="6.16287">
        <ele>626.6</ele>
        <time>2024-01-12T14:42:33.451Z</time>
      </trkpt>
      <trkpt lat="43.68283" lon="6.16283">
        <ele>626.2</ele>
        <time>2024-01-12T14:42:43.587Z</time>
      </trkpt>
      <trkpt lat="43.68277" lon="6.16279">
        <ele>626</ele>
        <time>2024-01-12T14:42:53.690Z</time>
      </trkpt>
      <trkpt lat="43.68271" lon="6.16275">
        <ele>625.8</ele>
        <time>2024-01-12T14:43:03.792Z</time>
      </trkpt>
      <trkpt lat="43.68265" lon="6.1627">
        <ele>625.5</ele>
        <time>2024-01-12T14:43:14.378Z</time>
      </trkpt>
      <trkpt lat="43.68259" lon="6.16265">
        <ele>625.3</ele>
        <time>2024-01-12T14:43:25.405Z</time>
      </trkpt>
      <trkpt lat="43.68252" lon="6.1626">
        <ele>625.1</ele>
        <time>2024-01-12T14:43:36.432Z</time>
      </trkpt>
      <trkpt lat="43.68246" lon="6.16255">
        <ele>624.7</ele>
        <time>2024-01-12T14:43:46.925Z</time>
      </trkpt>
      <trkpt lat="43.6824" lon="6.1625">
        <ele>624.3</ele>
        <time>2024-01-12T14:43:57.242Z</time>
      </trkpt>
      <trkpt lat="43.68234" lon="6.16245">
        <ele>623.8</ele>
        <time>2024-01-12T14:44:07.560Z</time>
      </trkpt>
      <trkpt lat="43.68228" lon="6.16239">
        <ele>623.3</ele>
        <time>2024-01-12T14:44:17.878Z</time>
      </trkpt>
      <trkpt lat="43.68222" lon="6.16234">
        <ele>623</ele>
        <time>2024-01-12T14:44:28.266Z</time>
      </trkpt>
      <trkpt lat="43.68218" lon="6.1623">
        <ele>622.8</ele>
        <time>2024-01-12T14:44:35.698Z</time>
      </trkpt>
      <trkpt lat="43.68214" lon="6.16227">
        <ele>622.7</ele>
        <time>2024-01-12T14:44:43.580Z</time>
      </trkpt>
      <trkpt lat="43.68209" lon="6.16223">
        <ele>622.5</ele>
        <time>2024-01-12T14:44:51.012Z</time>
      </trkpt>
      <trkpt lat="43.68205" lon="6.16219">
        <ele>622.3</ele>
        <time>2024-01-12T14:44:58.444Z</time>
      </trkpt>
      <trkpt lat="43.682" lon="6.16214">
        <ele>621.9</ele>
        <time>2024-01-12T14:45:07.728Z</time>
      </trkpt>
      <trkpt lat="43.68195" lon="6.16208">
        <ele>621.5</ele>
        <time>2024-01-12T14:45:17.013Z</time>
      </trkpt>
      <trkpt lat="43.6819" lon="6.16205">
        <ele>621.2</ele>
        <time>2024-01-12T14:45:25.810Z</time>
      </trkpt>
      <trkpt lat="43.68184" lon="6.16201">
        <ele>620.9</ele>
        <time>2024-01-12T14:45:34.608Z</time>
      </trkpt>
      <trkpt lat="43.6818" lon="6.16199">
        <ele>620.6</ele>
        <time>2024-01-12T14:45:41.438Z</time>
      </trkpt>
      <trkpt lat="43.68175" lon="6.16196">
        <ele>620.4</ele>
        <time>2024-01-12T14:45:48.309Z</time>
      </trkpt>
      <trkpt lat="43.68171" lon="6.16194">
        <ele>620.1</ele>
        <time>2024-01-12T14:45:55.138Z</time>
      </trkpt>
      <trkpt lat="43.68167" lon="6.16192">
        <ele>619.9</ele>
        <time>2024-01-12T14:46:02.009Z</time>
      </trkpt>
      <trkpt lat="43.68162" lon="6.16189">
        <ele>619.6</ele>
        <time>2024-01-12T14:46:08.839Z</time>
      </trkpt>
      <trkpt lat="43.68158" lon="6.16187">
        <ele>619.4</ele>
        <time>2024-01-12T14:46:15.709Z</time>
      </trkpt>
      <trkpt lat="43.68153" lon="6.16184">
        <ele>619.2</ele>
        <time>2024-01-12T14:46:22.579Z</time>
      </trkpt>
      <trkpt lat="43.68149" lon="6.16182">
        <ele>618.9</ele>
        <time>2024-01-12T14:46:29.409Z</time>
      </trkpt>
      <trkpt lat="43.68142" lon="6.16177">
        <ele>618.5</ele>
        <time>2024-01-12T14:46:41.508Z</time>
      </trkpt>
      <trkpt lat="43.68134" lon="6.16172">
        <ele>618</ele>
        <time>2024-01-12T14:46:53.607Z</time>
      </trkpt>
      <trkpt lat="43.68127" lon="6.16167">
        <ele>617.6</ele>
        <time>2024-01-12T14:47:05.706Z</time>
      </trkpt>
      <trkpt lat="43.68119" lon="6.16162">
        <ele>617.3</ele>
        <time>2024-01-12T14:47:18.112Z</time>
      </trkpt>
      <trkpt lat="43.68112" lon="6.16158">
        <ele>617</ele>
        <time>2024-01-12T14:47:30.270Z</time>
      </trkpt>
      <trkpt lat="43.68104" lon="6.16153">
        <ele>616.7</ele>
        <time>2024-01-12T14:47:42.428Z</time>
      </trkpt>
      <trkpt lat="43.681" lon="6.16149">
        <ele>616.6</ele>
        <time>2024-01-12T14:47:51.158Z</time>
      </trkpt>
      <trkpt lat="43.68095" lon="6.16144">
        <ele>616.4</ele>
        <time>2024-01-12T14:47:59.433Z</time>
      </trkpt>
      <trkpt lat="43.68088" lon="6.1614">
        <ele>616.2</ele>
        <time>2024-01-12T14:48:12.040Z</time>
      </trkpt>
      <trkpt lat="43.6808" lon="6.16135">
        <ele>615.6</ele>
        <time>2024-01-12T14:48:23.920Z</time>
      </trkpt>
      <trkpt lat="43.68076" lon="6.16133">
        <ele>615.3</ele>
        <time>2024-01-12T14:48:30.632Z</time>
      </trkpt>
      <trkpt lat="43.68072" lon="6.1613">
        <ele>615</ele>
        <time>2024-01-12T14:48:37.343Z</time>
      </trkpt>
      <trkpt lat="43.68067" lon="6.16128">
        <ele>614.7</ele>
        <time>2024-01-12T14:48:44.055Z</time>
      </trkpt>
      <trkpt lat="43.68063" lon="6.16125">
        <ele>614.4</ele>
        <time>2024-01-12T14:48:50.766Z</time>
      </trkpt>
      <trkpt lat="43.68056" lon="6.16123">
        <ele>614</ele>
        <time>2024-01-12T14:49:01.977Z</time>
      </trkpt>
      <trkpt lat="43.68048" lon="6.1612">
        <ele>613.7</ele>
        <time>2024-01-12T14:49:13.376Z</time>
      </trkpt>
      <trkpt lat="43.68043" lon="6.16118">
        <ele>613.5</ele>
        <time>2024-01-12T14:49:21.871Z</time>
      </trkpt>
      <trkpt lat="43.68037" lon="6.16116">
        <ele>613.3</ele>
        <time>2024-01-12T14:49:30.366Z</time>
      </trkpt>
      <trkpt lat="43.68033" lon="6.16114">
        <ele>613.2</ele>
        <time>2024-01-12T14:49:37.727Z</time>
      </trkpt>
      <trkpt lat="43.68028" lon="6.16112">
        <ele>613</ele>
        <time>2024-01-12T14:49:44.641Z</time>
      </trkpt>
      <trkpt lat="43.68021" lon="6.16112">
        <ele>612.8</ele>
        <time>2024-01-12T14:49:55.319Z</time>
      </trkpt>
      <trkpt lat="43.68014" lon="6.16111">
        <ele>612.5</ele>
        <time>2024-01-12T14:50:05.558Z</time>
      </trkpt>
      <trkpt lat="43.6801" lon="6.16109">
        <ele>612.3</ele>
        <time>2024-01-12T14:50:12.472Z</time>
      </trkpt>
      <trkpt lat="43.68005" lon="6.16107">
        <ele>612</ele>
        <time>2024-01-12T14:50:19.341Z</time>
      </trkpt>
      <trkpt lat="43.67998" lon="6.161">
        <ele>611.5</ele>
        <time>2024-01-12T14:50:31.894Z</time>
      </trkpt>
      <trkpt lat="43.67994" lon="6.16095">
        <ele>611.2</ele>
        <time>2024-01-12T14:50:40.091Z</time>
      </trkpt>
      <trkpt lat="43.6799" lon="6.16089">
        <ele>610.8</ele>
        <time>2024-01-12T14:50:48.288Z</time>
      </trkpt>
      <trkpt lat="43.67985" lon="6.16085">
        <ele>610.5</ele>
        <time>2024-01-12T14:50:56.682Z</time>
      </trkpt>
      <trkpt lat="43.67977" lon="6.16083">
        <ele>610.2</ele>
        <time>2024-01-12T14:51:08.764Z</time>
      </trkpt>
      <trkpt lat="43.67973" lon="6.16083">
        <ele>610</ele>
        <time>2024-01-12T14:51:15.306Z</time>
      </trkpt>
      <trkpt lat="43.67968" lon="6.16083">
        <ele>610</ele>
        <time>2024-01-12T14:51:22.779Z</time>
      </trkpt>
      <trkpt lat="43.67962" lon="6.16082">
        <ele>610</ele>
        <time>2024-01-12T14:51:32.816Z</time>
      </trkpt>
      <trkpt lat="43.67956" lon="6.16077">
        <ele>609.7</ele>
        <time>2024-01-12T14:51:43.048Z</time>
      </trkpt>
      <trkpt lat="43.67951" lon="6.16069">
        <ele>609.2</ele>
        <time>2024-01-12T14:51:54.160Z</time>
      </trkpt>
      <trkpt lat="43.67948" lon="6.16064">
        <ele>608.7</ele>
        <time>2024-01-12T14:52:01.859Z</time>
      </trkpt>
      <trkpt lat="43.67944" lon="6.16058">
        <ele>608.2</ele>
        <time>2024-01-12T14:52:09.558Z</time>
      </trkpt>
      <trkpt lat="43.67939" lon="6.16052">
        <ele>608</ele>
        <time>2024-01-12T14:52:20.609Z</time>
      </trkpt>
      <trkpt lat="43.67933" lon="6.16045">
        <ele>607.8</ele>
        <time>2024-01-12T14:52:31.661Z</time>
      </trkpt>
      <trkpt lat="43.67929" lon="6.16042">
        <ele>607.7</ele>
        <time>2024-01-12T14:52:38.730Z</time>
      </trkpt>
      <trkpt lat="43.67925" lon="6.16039">
        <ele>607.6</ele>
        <time>2024-01-12T14:52:45.799Z</time>
      </trkpt>
      <trkpt lat="43.67923" lon="6.16036">
        <ele>607.5</ele>
        <time>2024-01-12T14:52:50.224Z</time>
      </trkpt>
      <trkpt lat="43.67921" lon="6.1603">
        <ele>607.2</ele>
        <time>2024-01-12T14:52:57.167Z</time>
      </trkpt>
      <trkpt lat="43.6792" lon="6.16019">
        <ele>606.8</ele>
        <time>2024-01-12T14:53:08.818Z</time>
      </trkpt>
      <trkpt lat="43.67918" lon="6.16011">
        <ele>606.5</ele>
        <time>2024-01-12T14:53:17.714Z</time>
      </trkpt>
      <trkpt lat="43.67914" lon="6.16004">
        <ele>606.2</ele>
        <time>2024-01-12T14:53:27.089Z</time>
      </trkpt>
      <trkpt lat="43.67911" lon="6.16">
        <ele>606</ele>
        <time>2024-01-12T14:53:33.698Z</time>
      </trkpt>
      <trkpt lat="43.67907" lon="6.15996">
        <ele>606</ele>
        <time>2024-01-12T14:53:41.239Z</time>
      </trkpt>
      <trkpt lat="43.679" lon="6.1599">
        <ele>606</ele>
        <time>2024-01-12T14:53:54.916Z</time>
      </trkpt>
      <trkpt lat="43.67896" lon="6.15984">
        <ele>606</ele>
        <time>2024-01-12T14:54:04.717Z</time>
      </trkpt>
      <trkpt lat="43.67898" lon="6.15978">
        <ele>606</ele>
        <time>2024-01-12T14:54:12.652Z</time>
        <extensions>
          <visugpx:TrkExtension xmlns:visugpx="https://www.visugpx.com/editgpx/">
            <visugpx:node>1</visugpx:node>
            </visugpx:TrkExtension>
        </extensions>
      </trkpt>
      <trkpt lat="43.67898" lon="6.15979">
        <ele>606</ele>
        <time>2024-01-12T14:54:13.853Z</time>
      </trkpt>
      <trkpt lat="43.67892" lon="6.15978">
        <ele>606</ele>
        <time>2024-01-12T14:54:23.890Z</time>
      </trkpt>
      <trkpt lat="43.67886" lon="6.15977">
        <ele>606</ele>
        <time>2024-01-12T14:54:33.926Z</time>
      </trkpt>
      <trkpt lat="43.67878" lon="6.15981">
        <ele>606</ele>
        <time>2024-01-12T14:54:48.054Z</time>
      </trkpt>
      <trkpt lat="43.6787" lon="6.15986">
        <ele>606</ele>
        <time>2024-01-12T14:55:02.634Z</time>
      </trkpt>
      <trkpt lat="43.67862" lon="6.15986">
        <ele>606</ele>
        <time>2024-01-12T14:55:15.920Z</time>
      </trkpt>
      <trkpt lat="43.67855" lon="6.15988">
        <ele>605.9</ele>
        <time>2024-01-12T14:55:27.294Z</time>
      </trkpt>
      <trkpt lat="43.6785" lon="6.15989">
        <ele>605.8</ele>
        <time>2024-01-12T14:55:36.015Z</time>
      </trkpt>
      <trkpt lat="43.67844" lon="6.1599">
        <ele>605.8</ele>
        <time>2024-01-12T14:55:45.227Z</time>
      </trkpt>
      <trkpt lat="43.67838" lon="6.15989">
        <ele>605.7</ele>
        <time>2024-01-12T14:55:54.770Z</time>
      </trkpt>
      <trkpt lat="43.67832" lon="6.15988">
        <ele>605.6</ele>
        <time>2024-01-12T14:56:04.313Z</time>
      </trkpt>
      <trkpt lat="43.67826" lon="6.15992">
        <ele>605.7</ele>
        <time>2024-01-12T14:56:15.657Z</time>
      </trkpt>
      <trkpt lat="43.6782" lon="6.15995">
        <ele>605.8</ele>
        <time>2024-01-12T14:56:27.000Z</time>
      </trkpt>
    </trkseg>
  </trk>
</gpx>